Date StartTime U_cm/s V_cm/s W_cm/s Ustd_cm/s Vstd_cm/s Wstd_cm/s Uvar_(cm/s)^2 Vvar_(cm/s)^2 Wvar_(cm/s)^2 KE_(m/s)^2 TurbulentKE_(m/s)^2 HorizWindSpeed_cm/s FrictionSpeec_cm/s DragCoef SpeedOfSound_m/s SonicTemperature_C Pressure_mb 
11/22/2013  00:00:00       14.402       67.736      -13.945       25.307       28.245       19.023      640.429      797.782      361.876        0.339        0.090       69.251       15.863        0.052      332.093        0.533      868.284
11/22/2013  00:01:00       27.476       70.005       -1.927       29.754       54.910       23.901      885.294     3015.088      571.250        0.506        0.224       75.204       28.428        0.143      332.030        0.428      868.291
11/22/2013  00:02:00       35.699      132.213      -10.470       36.621       69.872       34.989     1341.107     4882.141     1224.252        1.315        0.372      136.948       37.020        0.073      332.079        0.508      868.285
11/22/2013  00:03:00       36.448      121.263       -9.166       59.646       80.716       37.501     3557.663     6515.035     1406.357        1.380        0.574      126.622       42.827        0.114      332.076        0.502      868.284
11/22/2013  00:04:00       29.046      161.340      -19.958       45.583       90.888       46.535     2077.829     8260.674     2165.486        1.989        0.625      163.934       51.236        0.098      332.047        0.456      868.293
11/22/2013  00:05:00      104.720      134.968        5.436      113.529       95.893       73.828    12888.809     9195.441     5450.535        2.837        1.377      170.829       65.544        0.147      332.112        0.561      868.278
11/22/2013  00:06:00       58.255       79.121        9.593       76.169       64.045       51.055     5801.781     4101.782     2606.641        1.113        0.626       98.254       38.776        0.156      332.097        0.538      868.286
11/22/2013  00:07:00      102.386       93.990        6.674       82.255       58.240       51.581     6765.948     3391.840     2660.646        1.609        0.641      138.985       35.589        0.066      332.078        0.507      868.299
11/22/2013  00:08:00      124.285       98.752       11.381       71.469       65.210       51.961     5107.846     4252.357     2699.911        1.869        0.603      158.741       37.554        0.056      332.095        0.533      868.292
11/22/2013  00:09:00       82.801       89.118        4.295       60.093       44.516       38.916     3611.157     1981.699     1514.470        1.096        0.355      121.647       24.141        0.039      332.072        0.497      868.282
11/22/2013  00:10:00       65.089       72.619        7.966       45.930       37.331       36.553     2109.537     1393.588     1336.111        0.721        0.242       97.519       26.787        0.075      331.997        0.372      868.273
11/22/2013  00:11:00       51.678       91.299        3.150       53.120       74.942       48.742     2821.747     5616.230     2375.758        1.091        0.541      104.910       46.269        0.195      331.987        0.356      868.264
11/22/2013  00:12:00       84.434       73.904        3.462       62.592       54.814       36.622     3917.818     3004.537     1341.159        1.043        0.413      112.209       32.228        0.082      331.981        0.346      868.265
11/22/2013  00:13:00      154.788      127.888       33.812       86.125       62.539       68.795     7417.507     3911.117     4732.795        2.876        0.803      200.785       36.358        0.033      332.045        0.449      868.257
11/22/2013  00:14:00      123.584       94.745        9.360       95.562       65.412       51.513     9132.092     4278.696     2653.549        2.020        0.803      155.723       47.334        0.092      332.049        0.457      868.236
11/22/2013  00:15:00      160.930       99.680       20.699       72.613       50.183       53.960     5272.597     2518.320     2911.716        2.348        0.535      189.300       33.133        0.031      332.033        0.431      868.198
11/22/2013  00:16:00      142.625      111.232       12.328       94.706       63.706       54.054     8969.227     4058.468     2921.833        2.440        0.797      180.871       23.749        0.017      332.021        0.411      868.173
11/22/2013  00:17:00      176.490      115.951       11.713       88.130       57.829       54.134     7766.861     3344.156     2930.453        2.938        0.702      211.171       32.616        0.024      332.051        0.461      868.157
11/22/2013  00:18:00      121.180       92.379        6.815       77.193       48.292       39.022     5958.831     2332.121     1522.680        1.654        0.491      152.377       26.000        0.029      332.034        0.432      868.141
11/22/2013  00:19:00      190.526      127.094       24.559       93.957       72.301       56.724     8827.927     5227.496     3217.576        3.516        0.864      229.026       37.667        0.027      332.082        0.513      868.130
11/22/2013  00:20:00      194.488      131.635       46.480      110.548       63.691       56.419    12220.889     4056.514     3183.090        3.838        0.973      234.848       35.113        0.022      332.058        0.472      868.111
11/22/2013  00:21:00      251.297      152.012       33.771       88.873       60.461       59.602     7898.325     3655.520     3552.448        5.125        0.755      293.697       37.439        0.016      332.095        0.530      868.092
11/22/2013  00:22:00      196.835      132.794       31.466       84.746       66.346       60.579     7181.917     4401.845     3669.770        3.631        0.763      237.441       42.410        0.032      332.040        0.442      868.099
11/22/2013  00:23:00      254.190      181.081       32.303       98.434       72.052       63.225     9689.168     5191.470     3997.428        5.866        0.944      312.094       37.414        0.014      332.138        0.602      868.091
11/22/2013  00:24:00      257.295      162.092       44.298      110.988       98.544       61.288    12318.241     9710.951     3756.276        6.011        1.289      304.097       31.118        0.010      332.160        0.639      868.092
11/22/2013  00:25:00      205.005      126.405       16.196       81.653       63.000       54.860     6667.257     3968.968     3009.589        3.595        0.682      240.843       39.870        0.027      332.083        0.511      868.078
11/22/2013  00:26:00      165.400      122.138       34.234       62.934       70.457       53.711     3960.683     4964.250     2884.894        2.763        0.590      205.609       39.620        0.037      332.083        0.515      868.059
11/22/2013  00:27:00      222.793      148.319       29.392       84.114       67.552       62.722     7075.237     4563.260     3934.070        4.403        0.779      267.647       40.277        0.023      332.178        0.668      868.055
11/22/2013  00:28:00      205.202      140.947       19.386      100.611       68.252       49.493    10122.571     4658.306     2449.533        3.979        0.862      248.946       33.665        0.018      332.147        0.617      868.054
11/22/2013  00:29:00      232.988      136.356       23.892       88.807       66.659       55.018     7886.768     4443.416     3026.995        4.440        0.768      269.956       27.971        0.011      332.186        0.680      868.051
11/22/2013  00:30:00      143.223       89.971       10.249       64.710       53.507       37.731     4187.422     2863.000     1423.661        1.859        0.424      169.138       24.679        0.021      332.122        0.577      868.073
11/22/2013  00:31:00      200.385      129.956       36.598       75.652       51.184       54.709     5723.167     2619.778     2993.067        3.486        0.567      238.836        8.528        0.001      332.109        0.554      868.090
11/22/2013  00:32:00      147.972       96.822        6.314       69.711       59.229       45.248     4859.672     3508.073     2047.355        2.086        0.521      176.833       25.555        0.021      332.120        0.575      868.079
11/22/2013  00:33:00      200.464      120.533       13.244       84.356       73.957       54.212     7115.854     5469.568     2938.889        3.520        0.776      233.910       41.826        0.032      332.137        0.602      868.065
11/22/2013  00:34:00      128.867       52.244       29.732       72.836       48.514       36.112     5305.039     2353.630     1304.059        1.459        0.448      139.054       24.444        0.031      332.088        0.521      868.064
11/22/2013  00:35:00       89.572       30.969        6.467       52.839       42.119       41.091     2791.955     1774.050     1688.466        0.764        0.313       94.774       30.523        0.104      332.062        0.480      868.055
11/22/2013  00:36:00      143.736       87.961       24.077       84.173       70.079       43.063     7085.102     4911.051     1854.422        2.141        0.693      168.515       16.493        0.010      332.082        0.513      868.051
11/22/2013  00:37:00       91.761       54.779       24.228       37.181       46.635       32.236     1382.436     2174.862     1039.150        0.830        0.230      106.868       13.253        0.015      332.053        0.464      868.046
11/22/2013  00:38:00      108.541       66.753       14.419       62.294       57.020       47.947     3880.548     3251.335     2298.941        1.294        0.472      127.424       28.417        0.050      332.051        0.461      868.040
11/22/2013  00:39:00      129.997       69.551       12.774       49.278       32.758       31.808     2428.285     1073.094     1011.725        1.321        0.226      147.434        9.700        0.004      332.039        0.442      868.040
11/22/2013  00:40:00       63.174       32.198        3.099       44.054       34.092       28.885     1940.733     1162.261      834.328        0.449        0.197       70.906        8.620        0.015      332.050        0.460      868.039
11/22/2013  00:41:00       30.752       36.773        8.990       46.466       36.195       28.337     2159.132     1310.096      802.960        0.332        0.214       47.937       22.791        0.226      331.963        0.317      868.049
11/22/2013  00:42:00       54.928       71.884      -10.009       41.320       30.140       22.492     1707.331      908.391      505.900        0.570        0.156       90.467       18.259        0.041      332.005        0.387      868.039
11/22/2013  00:43:00       73.006       87.624        5.328       52.480       41.714       35.518     2754.128     1740.098     1261.541        0.939        0.288      114.052       30.758        0.073      332.014        0.402      868.034
11/22/2013  00:44:00       36.393       79.234       -3.533       64.911       42.427       32.271     4213.382     1800.044     1041.446        0.733        0.353       87.192       25.884        0.088      331.930        0.264      868.039
11/22/2013  00:45:00       22.015       99.680       -9.415       31.704       60.535       29.432     1005.174     3664.507      866.259        0.802        0.277      102.082       30.956        0.092      331.932        0.266      868.036
11/22/2013  00:46:00       14.208       81.851        0.135       30.823       47.556       34.909      950.051     2261.586     1218.640        0.566        0.222       83.075       33.411        0.162      331.935        0.270      868.031
11/22/2013  00:47:00      -68.132       44.222      -11.209       25.827       26.367       12.519      667.016      695.204      156.737        0.412        0.076       81.225       12.321        0.023      331.978        0.342      868.025
11/22/2013  00:48:00      -63.889      -11.165        0.246       21.581       28.912       16.573      465.736      835.882      274.678        0.289        0.079       64.858       13.271        0.042      331.899        0.212      868.035
11/22/2013  00:49:00      -79.134      -16.440       -9.802       23.639       36.173       17.256      558.783     1308.459      297.769        0.440        0.108       80.824       17.880        0.049      331.708       -0.103      868.046
11/22/2013  00:50:00      -98.981        6.991      -14.271       42.107       21.668       18.815     1773.028      469.507      353.987        0.632        0.130       99.228       21.258        0.046      331.612       -0.260      868.036
11/22/2013  00:51:00     -117.948       -3.222      -10.568       38.397       25.287       17.554     1474.300      639.434      308.128        0.823        0.121      117.992       16.772        0.020      331.533       -0.392      868.031
11/22/2013  00:52:00     -144.571      -10.676      -30.329       20.791       42.779       21.734      432.275     1830.041      472.360        1.233        0.137      144.965       19.392        0.018      331.523       -0.407      868.022
11/22/2013  00:53:00      -90.258      -27.489      -20.814       52.232       41.451       29.077     2728.132     1718.180      845.473        0.731        0.265       94.351       26.038        0.076      331.455       -0.518      868.030
11/22/2013  00:54:00      -28.994       -6.412       10.471       46.669       18.592       17.685     2178.030      345.644      312.775        0.191        0.142       29.695       22.988        0.599      331.432       -0.557      868.048
11/22/2013  00:55:00      -88.220       -2.300       -8.182       29.059       21.930       13.486      844.417      480.909      181.882        0.468        0.075       88.250       12.722        0.021      331.352       -0.689      868.071
11/22/2013  00:56:00      -86.860      -10.228      -15.998       23.291       15.627       12.950      542.461      244.208      167.713        0.443        0.048       87.460       13.618        0.024      331.401       -0.608      868.067
11/22/2013  00:57:00      -41.260      -27.144      -15.798       24.580       19.695       13.793      604.166      387.878      190.258        0.194        0.059       49.388       12.126        0.060      331.448       -0.531      868.032
11/22/2013  00:58:00      -17.187      -31.676      -10.095       20.606       11.850       11.884      424.625      140.421      141.225        0.105        0.035       36.038        5.790        0.026      331.462       -0.509      868.019
11/22/2013  00:59:00      -92.475      -34.353      -10.878       15.919       11.816        7.826      253.412      139.616       61.241        0.515        0.023       98.650        4.456        0.002      331.392       -0.623      868.011
11/22/2013  01:00:00      -94.562      -37.004       -9.005       21.391       16.121       12.517      457.576      259.890      156.685        0.563        0.044      101.545       11.758        0.013      331.339       -0.711      868.018
11/22/2013  01:01:00     -114.128      -50.371       -9.616       16.945       12.735       13.464      287.134      162.185      181.275        0.814        0.032      124.750        5.188        0.002      331.372       -0.655      868.019
11/22/2013  01:02:00      -59.904      -23.837       -4.763       26.770       13.877        7.595      716.640      192.584       57.679        0.257        0.048       64.473        6.756        0.011      331.323       -0.737      868.027
11/22/2013  01:03:00      -63.871      -14.459      -11.516       17.896        9.932        8.339      320.277       98.648       69.543        0.245        0.024       65.487        8.479        0.017      331.419       -0.578      868.011
11/22/2013  01:04:00     -125.333      -44.264      -12.167       32.342       22.454       17.013     1045.995      504.168      289.434        0.983        0.092      132.919       20.854        0.025      331.379       -0.643      867.993
11/22/2013  01:05:00      -35.660      -28.277        8.885       47.643       27.566       20.363     2269.890      759.877      414.636        0.280        0.172       45.510       25.146        0.305      331.270       -0.823      867.981
11/22/2013  01:06:00       -2.196       15.420       31.727       19.611       47.572       38.817      384.601     2263.063     1506.756        0.270        0.208       15.576       35.353        5.152      331.370       -0.659      868.010
11/22/2013  01:07:00       14.523       -5.905        3.346       22.183       39.838       22.823      492.064     1587.036      520.887        0.143        0.130       15.678       14.213        0.822      331.553       -0.359      868.035
11/22/2013  01:08:00       19.110      -12.574       24.365       29.417       35.380       21.412      865.376     1251.718      458.488        0.185        0.129       22.876       17.286        0.571      331.700       -0.116      868.029
11/22/2013  01:09:00     -103.886      -47.402        4.137       76.590       31.810       22.590     5866.038     1011.883      510.298        1.022        0.369      114.190       28.057        0.060      331.609       -0.265      868.001
11/22/2013  01:10:00      -71.624      -26.311       -2.046       24.725       25.479       21.934      611.349      649.167      481.121        0.378        0.087       76.303       12.918        0.029      331.282       -0.801      868.017
11/22/2013  01:11:00      -63.791        7.911       -6.062       26.309       35.171       18.110      692.171     1236.983      327.961        0.321        0.113       64.279       12.525        0.038      331.237       -0.876      868.073
11/22/2013  01:12:00      -81.050      -30.596       -6.734       51.943       45.618       24.771     2698.110     2081.025      613.611        0.647        0.270       86.632       26.325        0.092      331.447       -0.532      868.085
11/22/2013  01:13:00      -32.909       -8.035        0.599       40.329       33.123       19.101     1626.420     1097.104      364.833        0.212        0.154       33.876       14.804        0.191      331.481       -0.476      868.106
11/22/2013  01:14:00       77.602       66.129       21.562       45.452       57.647       47.124     2065.923     3323.234     2220.667        0.923        0.380      101.956       33.726        0.109      331.869        0.161      868.099
11/22/2013  01:15:00       11.501       99.209      -10.764       41.357       60.308       30.124     1710.369     3636.995      907.476        0.817        0.313       99.874       31.980        0.103      331.890        0.197      868.115
11/22/2013  01:16:00      142.236      113.506        5.889       94.032       67.176       63.149     8841.959     4512.628     3987.785        2.524        0.867      181.974       42.123        0.054      332.032        0.430      868.113
11/22/2013  01:17:00       60.816       29.506       20.362       78.479       47.570       34.037     6158.952     2262.945     1158.485        0.728        0.479       67.595       12.831        0.036      332.000        0.377      868.119
11/22/2013  01:18:00       37.211       35.388        5.467       40.903       39.713       19.735     1673.085     1577.096      389.490        0.315        0.182       51.351       18.712        0.133      332.026        0.420      868.120
11/22/2013  01:19:00       30.997      105.326       -2.154       33.709       78.206       30.985     1136.317     6116.195      960.067        1.013        0.411      109.792       31.381        0.082      331.997        0.373      868.134
11/22/2013  01:20:00       26.259       39.086       -5.671       26.012       32.723       19.699      676.632     1070.777      388.062        0.219        0.107       47.088       14.296        0.092      331.891        0.200      868.165
11/22/2013  01:21:00       60.103       64.402       -0.020       34.898       36.594       33.252     1217.877     1339.143     1105.719        0.571        0.183       88.090       10.603        0.014      332.016        0.404      868.222
11/22/2013  01:22:00       43.885       53.419        6.324       32.847       32.972       26.997     1078.894     1087.162      728.852        0.386        0.145       69.134       22.113        0.102      332.009        0.392      868.246
11/22/2013  01:23:00       32.915       48.624        6.463       47.018       38.777       28.289     2210.663     1503.671      800.286        0.400        0.226       58.717       16.063        0.075      331.908        0.227      868.258
11/22/2013  01:24:00      110.738       67.962       11.166       42.154       35.613       30.404     1776.949     1268.301      924.378        1.049        0.198      129.929       15.310        0.014      332.012        0.397      868.263
11/22/2013  01:25:00       -1.452       39.689        5.612       23.850       31.073       17.601      568.805      965.550      309.790        0.173        0.092       39.716       11.444        0.083      331.835        0.106      868.261
11/22/2013  01:26:00       57.579       57.279        2.589       43.926       29.698       34.474     1929.499      881.958     1188.441        0.530        0.200       81.218       19.074        0.055      331.862        0.151      868.262
11/22/2013  01:27:00      160.408       93.236       27.211       90.990       72.649       46.884     8279.137     5277.907     2198.108        2.546        0.788      185.537       30.259        0.027      331.988        0.356      868.251
11/22/2013  01:28:00      112.921       59.251       12.001       74.774       62.898       34.933     5591.180     3956.097     1220.284        1.358        0.538      127.522       18.386        0.021      331.910        0.227      868.247
11/22/2013  01:29:00      159.896       84.894        7.184       51.975       43.618       31.570     2701.431     1902.537      996.677        1.921        0.280      181.036       25.823        0.020      331.932        0.265      868.264
11/22/2013  01:30:00       46.544       37.862        3.377       46.929       32.178       25.418     2202.330     1035.424      646.089        0.375        0.194       59.999       14.746        0.060      331.829        0.095      868.279
11/22/2013  01:31:00       50.599       62.893        6.921       40.841       30.349       28.924     1668.006      921.044      836.577        0.499        0.171       80.721        9.702        0.014      331.821        0.083      868.278
11/22/2013  01:32:00       86.776       73.742       10.452       53.104       32.644       31.647     2820.087     1065.599     1001.513        0.898        0.244      113.877       26.175        0.053      331.796        0.043      868.286
11/22/2013  01:33:00      105.355       59.237       28.344       47.432       43.250       37.570     2249.827     1870.568     1411.478        1.047        0.277      120.867       31.203        0.067      331.841        0.115      868.273
11/22/2013  01:34:00      145.692       59.629       31.894       60.154       46.900       39.260     3618.553     2199.644     1541.334        1.658        0.368      157.422       23.908        0.023      331.858        0.145      868.268
11/22/2013  01:35:00      106.681       63.587       32.088       40.697       33.876       31.781     1656.215     1147.573     1010.035        1.013        0.191      124.194       25.080        0.041      331.771        0.001      868.262
11/22/2013  01:36:00      121.192       50.502       13.988       67.811       47.342       36.061     4598.369     2241.241     1300.418        1.279        0.407      131.293       30.960        0.056      331.765       -0.007      868.259
11/22/2013  01:37:00      182.008       82.209       22.680       90.505       85.534       55.481     8191.211     7316.107     3078.182        2.949        0.929      199.713       34.535        0.030      331.874        0.167      868.241
11/22/2013  01:38:00      140.330       91.543       38.355       74.573       54.047       39.836     5561.187     2921.035     1586.885        1.980        0.503      167.549       24.607        0.022      331.868        0.159      868.236
11/22/2013  01:39:00       70.424       39.322       29.051       39.013       41.451       27.119     1522.010     1718.214      735.454        0.566        0.199       80.659       17.857        0.049      331.818        0.077      868.238
11/22/2013  01:40:00       91.705       73.920       27.453       40.498       25.931       34.402     1640.117      672.433     1183.464        0.906        0.175      117.788       23.180        0.039      331.751       -0.031      868.255
11/22/2013  01:41:00        2.349       39.639       57.190       24.944       28.901       18.001      622.207      835.289      324.025        0.331        0.089       39.709       17.792        0.201      331.729       -0.067      868.261
11/22/2013  01:42:00       41.531       36.342       34.559       28.048       29.917       32.739      786.676      895.027     1071.841        0.350        0.138       55.186       20.537        0.138      331.735       -0.056      868.278
11/22/2013  01:43:00       18.014      -18.002        0.146       11.024       18.785       10.545      121.518      352.891      111.206        0.062        0.029       25.467       10.874        0.182      331.709       -0.101      868.298
11/22/2013  01:44:00        1.730      -27.180        1.402       14.026       11.668       10.001      196.735      136.132      100.010        0.059        0.022       27.235        8.600        0.100      331.688       -0.133      868.301
11/22/2013  01:45:00      -21.796      -14.479       -7.101       17.240       13.384       12.236      297.208      179.133      149.730        0.068        0.031       26.167        9.366        0.128      331.601       -0.279      868.297
11/22/2013  01:46:00      -87.600       10.090      -14.157       24.385       14.055       15.867      594.624      197.554      251.750        0.451        0.052       88.179       12.851        0.021      331.721       -0.080      868.292
11/22/2013  01:47:00      -86.680        4.189       -9.042       40.058       13.617       10.535     1604.636      185.419      110.978        0.476        0.095       86.781       15.389        0.031      331.713       -0.093      868.294
11/22/2013  01:48:00     -100.065       -9.508      -13.140       28.020       13.455       14.146      785.108      181.031      200.096        0.572        0.058      100.516        4.269        0.002      331.641       -0.213      868.300
11/22/2013  01:49:00      -68.208      -38.536       -3.063       23.967       27.394       14.697      574.404      750.458      215.992        0.384        0.077       78.341       11.834        0.023      331.530       -0.396      868.312
11/22/2013  01:50:00      -64.873      -47.887       -3.445       25.305       15.711       10.450      640.330      246.834      109.199        0.375        0.050       80.633        7.980        0.010      331.485       -0.470      868.322
11/22/2013  01:51:00      -80.784      -12.632       -6.002       35.573       26.852       13.829     1265.427      721.007      191.235        0.445        0.109       81.766       12.594        0.024      331.339       -0.709      868.340
11/22/2013  01:52:00      -95.034      -26.118        1.097       31.743       25.960       17.819     1007.589      673.912      317.522        0.586        0.100       98.558       16.747        0.029      331.279       -0.807      868.347
11/22/2013  01:53:00      -85.088      -11.253       -0.779       40.002       30.082       21.110     1600.128      904.916      445.615        0.516        0.148       85.829       20.609        0.058      331.163       -1.000      868.344
11/22/2013  01:54:00      -41.616        1.517       -3.070       38.487       24.613       18.363     1481.261      605.777      337.211        0.208        0.121       41.643       18.901        0.206      331.116       -1.076      868.341
11/22/2013  01:55:00     -124.833       -4.350      -13.137       36.055       23.835       19.869     1299.932      568.122      394.790        0.902        0.113      124.909       16.769        0.018      331.159       -1.005      868.335
11/22/2013  01:56:00     -140.846      -14.588       -5.233       26.784       21.153       18.146      717.385      447.435      329.277        1.079        0.075      141.600       15.256        0.012      331.080       -1.136      868.315
11/22/2013  01:57:00      -69.310       -4.923       -3.137       58.441       29.547       24.776     3415.391      873.035      613.842        0.487        0.245       69.484       30.397        0.191      331.002       -1.264      868.314
11/22/2013  01:58:00      -60.731       18.500       -8.690       36.124       26.406       22.846     1304.923      697.291      521.954        0.331        0.126       63.486       15.591        0.060      331.026       -1.225      868.312
11/22/2013  01:59:00     -115.379        9.981      -15.846       74.920       26.146       19.870     5612.938      683.592      394.818        1.018        0.335      115.810       19.277        0.028      331.053       -1.178      868.312
11/22/2013  02:00:00     -149.212       -3.831      -16.367       38.299       29.592       25.498     1466.819      875.667      650.133        1.277        0.150      149.261       23.344        0.024      331.039       -1.204      868.301
11/22/2013  02:01:00     -166.156       28.531      -19.169       28.811       26.716       17.900      830.101      713.721      320.425        1.533        0.093      168.588        8.868        0.003      331.078       -1.139      868.289
11/22/2013  02:02:00     -174.070       43.118      -18.434       37.814       33.007       19.948     1429.920     1089.485      397.912        1.771        0.146      179.331       10.135        0.003      331.060       -1.169      868.291
11/22/2013  02:03:00     -104.057       37.393      -13.542       39.184       26.012       21.851     1535.371      676.637      477.469        0.755        0.134      110.572       15.683        0.020      331.043       -1.196      868.328
11/22/2013  02:04:00      -89.685       15.406      -13.661       25.673       28.112       12.996      659.122      790.294      168.909        0.504        0.081       90.999        8.235        0.008      331.294       -0.784      868.355
11/22/2013  02:05:00      -60.276       -0.739      -17.214       39.541       40.896       19.124     1563.505     1672.481      365.744        0.377        0.180       60.280       10.395        0.030      331.083       -1.131      868.363
11/22/2013  02:06:00      -71.762       35.711      -11.281       41.417       31.569       21.634     1715.359      996.628      468.044        0.487        0.159       80.156       20.687        0.067      331.052       -1.181      868.375
11/22/2013  02:07:00      -88.978        7.262      -13.072       30.004       29.674       22.382      900.216      880.520      500.959        0.521        0.114       89.274       13.848        0.024      331.094       -1.113      868.368
11/22/2013  02:08:00      -88.979       -1.848       -7.931       40.218       31.507       23.301     1617.462      992.701      542.940        0.557        0.158       88.998       22.417        0.063      331.013       -1.245      868.363
11/22/2013  02:09:00      -86.489        1.210      -15.736       33.066       25.679       15.047     1093.379      659.387      226.422        0.485        0.099       86.498       11.811        0.019      330.941       -1.363      868.381
11/22/2013  02:10:00      -74.989       32.813      -13.861       26.627       25.094       16.351      709.012      629.712      267.351        0.425        0.080       81.854       11.346        0.019      331.132       -1.049      868.402
11/22/2013  02:11:00      -55.204        4.395       -9.940       27.140       23.636       20.986      736.595      558.637      440.413        0.245        0.087       55.379       13.916        0.063      331.226       -0.895      868.398
11/22/2013  02:12:00      -62.279       17.884      -15.379       23.318       46.580       19.894      543.717     2169.668      395.778        0.377        0.155       64.796       15.097        0.054      331.150       -1.021      868.382
11/22/2013  02:13:00      -61.375       -6.641       -8.893       30.649       27.244       15.779      939.374      742.228      248.984        0.291        0.097       61.734       13.202        0.046      331.076       -1.142      868.372
11/22/2013  02:14:00      -69.404       38.675      -11.146       39.151       22.464       18.820     1532.839      504.630      354.176        0.441        0.120       79.452       17.083        0.046      331.294       -0.784      868.376
11/22/2013  02:15:00      -42.121       65.080      -13.986       37.138       35.747       18.833     1379.254     1277.821      354.697        0.461        0.151       77.521       12.922        0.028      331.470       -0.494      868.368
11/22/2013  02:16:00      -66.046       81.609      -20.457       24.914       37.650       12.764      620.687     1417.544      162.913        0.682        0.110      104.986       13.483        0.016      331.374       -0.652      868.367
11/22/2013  02:17:00      -59.239       69.129      -16.359       26.856       38.624       19.569      721.248     1491.797      382.935        0.558        0.130       91.038       19.402        0.045      331.456       -0.517      868.367
11/22/2013  02:18:00      -61.381      122.626      -22.000       32.196       41.584       22.881     1036.597     1729.215      523.547        1.129        0.164      137.130       19.964        0.021      331.614       -0.256      868.374
11/22/2013  02:19:00      -28.847      161.057      -16.898       31.449       40.619       22.141      989.025     1649.941      490.230        1.509        0.156      163.620       24.332        0.022      331.725       -0.074      868.361
11/22/2013  02:20:00       -8.439      123.614       -8.079       23.500       56.230       19.270      552.245     3161.790      371.334        0.975        0.204      123.902       26.027        0.044      331.634       -0.223      868.352
11/22/2013  02:21:00      -11.066       75.053       -4.658       36.512       40.203       20.876     1333.114     1616.247      435.801        0.458        0.169       75.865       18.421        0.059      331.594       -0.291      868.371
11/22/2013  02:22:00      -20.852       91.268       -4.207       41.087       40.356       25.623     1688.123     1628.574      656.524        0.638        0.199       93.619       22.773        0.059      331.519       -0.413      868.384
11/22/2013  02:23:00       -0.983      106.363      -15.278       26.396       35.466       19.381      696.740     1257.814      375.613        0.694        0.117      106.368       18.347        0.030      331.572       -0.325      868.380
11/22/2013  02:24:00      -30.290       87.633       -5.747       41.310       33.476       22.087     1706.547     1120.623      487.829        0.597        0.166       92.720       17.813        0.037      331.647       -0.202      868.393
11/22/2013  02:25:00      -26.775       65.120       -6.499       41.355       42.351       17.745     1710.203     1793.646      314.899        0.441        0.191       70.410       15.575        0.049      331.506       -0.436      868.386
11/22/2013  02:26:00      -76.505      123.806      -21.854       49.307       74.519       27.479     2431.138     5553.103      755.103        1.520        0.437      145.537       28.223        0.038      331.560       -0.348      868.375
11/22/2013  02:27:00      -16.427      141.705      -21.732       47.285       41.695       24.659     2235.915     1738.473      608.079        1.270        0.229      142.654       17.822        0.016      331.600       -0.280      868.393
11/22/2013  02:28:00      -69.328       26.975      -11.175       34.001       31.200       24.035     1156.037      973.410      577.689        0.418        0.135       74.391       23.332        0.098      331.160       -1.003      868.411
11/22/2013  02:29:00      -55.259      -18.379       -8.215       21.051       17.066       19.506      443.139      291.251      380.476        0.229        0.056       58.236        9.294        0.025      331.017       -1.238      868.413
11/22/2013  02:30:00      -48.580       80.264      -12.983       29.587       60.297       21.586      875.383     3635.696      465.968        0.697        0.249       93.821       22.941        0.060      331.539       -0.380      868.424
11/22/2013  02:31:00      -35.998       65.624       -0.050       27.362       34.854       20.393      748.687     1214.784      415.873        0.399        0.119       74.849       16.046        0.046      331.485       -0.470      868.431
11/22/2013  02:32:00      -17.320       60.440       -2.188       40.174       65.907       27.309     1613.940     4343.683      745.768        0.533        0.335       62.873       21.995        0.122      331.263       -0.835      868.417
11/22/2013  02:33:00      -28.022       -2.226       -6.615       20.671       13.279       11.475      427.291      176.321      131.671        0.078        0.037       28.111       12.883        0.210      330.992       -1.280      868.406
11/22/2013  02:34:00      -52.868       50.099       -9.020       30.364       30.510       22.360      921.992      930.854      499.966        0.387        0.118       72.835       20.967        0.083      331.220       -0.905      868.395
11/22/2013  02:35:00      -26.393       25.795        2.698       30.206       30.656       14.836      912.392      939.807      220.113        0.172        0.104       36.905       11.963        0.105      331.155       -1.012      868.409
11/22/2013  02:36:00      -21.200      -10.002        2.192       18.104       23.020       10.584      327.748      529.912      112.025        0.076        0.048       23.442       12.622        0.290      331.136       -1.043      868.437
11/22/2013  02:37:00        8.088       32.375       -1.555       28.797       31.934       14.018      829.268     1019.810      196.514        0.158        0.102       33.371       11.006        0.109      331.320       -0.742      868.450
11/22/2013  02:38:00       19.277       87.313      -12.863       22.109       26.634       12.820      488.811      709.371      164.343        0.476        0.068       89.416       13.568        0.023      331.367       -0.664      868.473
11/22/2013  02:39:00       -7.584      122.211      -17.284       29.541       16.535       10.738      872.667      273.396      115.304        0.828        0.063      122.446        4.845        0.002      331.404       -0.603      868.500
11/22/2013  02:40:00      -40.126       60.603       -7.258       27.657       58.431       16.580      764.922     3414.191      274.890        0.489        0.223       72.683       19.490        0.072      331.253       -0.851      868.479
11/22/2013  02:41:00      -51.340       41.786       -9.094       18.377       37.368       20.134      337.717     1396.360      405.375        0.330        0.107       66.196       20.805        0.099      331.106       -1.093      868.452
11/22/2013  02:42:00      -52.400       39.313       -9.501       17.081       24.076       15.914      291.748      579.654      253.241        0.275        0.056       65.507       11.349        0.030      331.206       -0.928      868.428
11/22/2013  02:43:00      -17.865       50.178       -3.568       28.803       32.797       16.416      829.641     1075.639      269.475        0.251        0.109       53.263       12.689        0.057      331.283       -0.803      868.422
11/22/2013  02:44:00      -45.202       14.153       -4.360       15.559       26.161       12.695      242.097      684.384      161.156        0.167        0.054       47.365        9.442        0.040      331.077       -1.140      868.407
11/22/2013  02:45:00      -30.461       59.704       -6.846       25.687       27.592       14.994      659.824      761.317      224.825        0.309        0.082       67.026       14.484        0.047      331.426       -0.567      868.370
11/22/2013  02:46:00       -1.373       40.266       -3.561       22.294       33.746       15.354      497.010     1138.795      235.740        0.175        0.094       40.289       18.751        0.217      331.395       -0.618      868.367
11/22/2013  02:47:00      -31.056       46.171       -8.267       28.981       42.576       14.393      839.924     1812.737      207.172        0.301        0.143       55.643       17.403        0.098      331.432       -0.557      868.360
11/22/2013  02:48:00        3.904       46.551       -3.950       16.520       28.047       12.318      272.914      786.650      151.737        0.170        0.061       46.714        9.415        0.041      331.384       -0.635      868.354
11/22/2013  02:49:00       -0.917       51.623       -3.139       39.849       32.045       20.966     1587.907     1026.851      439.562        0.286        0.153       51.631       16.976        0.108      331.435       -0.551      868.353
11/22/2013  02:50:00      -14.588       55.323       -8.488       20.277       28.160       12.966      411.164      792.979      168.110        0.236        0.069       57.214       10.539        0.034      331.448       -0.530      868.345
11/22/2013  02:51:00      -37.481       40.163       -7.373       18.088       39.047       13.688      327.161     1524.699      187.360        0.256        0.102       54.935       15.375        0.078      331.264       -0.832      868.338
11/22/2013  02:52:00       -3.338       41.917        2.213       32.451       33.177       13.560     1053.058     1100.737      183.869        0.205        0.117       42.049       14.630        0.121      331.373       -0.653      868.351
11/22/2013  02:53:00      -38.815      -13.187       -5.285       20.866       26.643       10.301      435.377      709.823      106.119        0.148        0.063       40.994       10.494        0.066      331.225       -0.896      868.359
11/22/2013  02:54:00      -75.490      -28.027      -13.104       16.479       12.005        7.924      271.566      144.122       62.789        0.357        0.024       80.525        5.911        0.005      330.844       -1.523      868.348
11/22/2013  02:55:00     -110.536        9.414      -22.219       25.093       21.516       15.674      629.635      462.931      245.678        0.707        0.067      110.936        9.403        0.007      330.492       -2.100      868.332
11/22/2013  02:56:00      -91.911        7.135      -21.064       19.440       26.725       14.971      377.920      714.224      224.131        0.513        0.066       92.187       10.376        0.013      330.538       -2.026      868.353
11/22/2013  02:57:00      -36.756       14.234       -6.298       17.375       22.425       12.533      301.885      502.869      157.082        0.128        0.048       39.416        9.125        0.054      330.669       -1.810      868.370
11/22/2013  02:58:00      -55.449       -8.245      -12.576       19.391       23.379       17.104      376.018      546.557      292.558        0.226        0.061       56.059       12.133        0.047      330.564       -1.982      868.388
11/22/2013  02:59:00     -103.492       19.686      -14.289       48.770       32.796       22.481     2378.555     1075.560      505.373        0.763        0.198      105.348       24.205        0.053      330.461       -2.152      868.400
11/22/2013  03:00:00     -105.615       13.892      -21.504       36.197       36.742       22.816     1310.250     1349.992      520.592        0.749        0.159      106.525       16.541        0.024      330.382       -2.280      868.401
11/22/2013  03:01:00      -92.244        0.869      -17.429       42.317       30.037       26.083     1790.721      902.199      680.325        0.609        0.169       92.248       13.639        0.022      330.320       -2.383      868.403
11/22/2013  03:02:00     -104.075       12.399      -24.641       39.073       26.286       23.044     1526.696      690.978      531.044        0.717        0.137      104.811       20.110        0.037      330.232       -2.527      868.397
11/22/2013  03:03:00     -103.330        0.305      -18.366       28.341       31.775       19.135      803.207     1009.627      366.133        0.660        0.109      103.330       10.367        0.010      330.209       -2.565      868.370
11/22/2013  03:04:00     -108.854       18.875      -16.091       29.892       30.256       16.778      893.541      915.421      281.488        0.728        0.105      110.478       10.211        0.009      330.408       -2.236      868.384
11/22/2013  03:05:00      -99.927      -26.817      -14.305       25.219       28.849       21.589      635.983      832.240      466.093        0.642        0.097      103.463       17.497        0.029      330.320       -2.382      868.414
11/22/2013  03:06:00      -88.390      -15.660      -15.901       20.343       18.663       13.769      413.837      348.304      189.593        0.463        0.048       89.766        9.455        0.011      330.370       -2.301      868.426
11/22/2013  03:07:00      -80.026       -0.628      -19.034       29.825       22.831       20.310      889.512      521.240      412.482        0.429        0.091       80.028       16.342        0.042      330.566       -1.978      868.404
11/22/2013  03:08:00      -86.435       25.386      -12.885       22.201       36.715       19.950      492.899     1347.995      398.002        0.526        0.112       90.086       15.441        0.029      330.617       -1.895      868.394
11/22/2013  03:09:00      -94.092       74.632      -20.766       37.827       39.906       25.851     1430.857     1592.487      668.256        0.927        0.185      120.097       21.811        0.033      331.029       -1.219      868.382
11/22/2013  03:10:00      -79.624       44.372      -11.670       25.854       31.545       20.603      668.438      995.064      424.502        0.527        0.104       91.153       15.665        0.030      330.928       -1.385      868.380
11/22/2013  03:11:00      -45.431       96.981      -13.875       39.170       68.680       23.239     1534.294     4716.989      540.056        0.923        0.340      107.095       31.752        0.088      331.242       -0.869      868.376
11/22/2013  03:12:00      -38.456       53.936        5.607       34.718       44.398       22.583     1205.306     1971.220      509.991        0.405        0.184       66.241       19.730        0.089      331.219       -0.906      868.359
11/22/2013  03:13:00      -36.669       22.424      -10.467       23.517       52.124       17.814      553.065     2716.945      317.343        0.277        0.179       42.982       14.858        0.119      330.963       -1.328      868.346
11/22/2013  03:14:00      -28.278       16.728       -7.208       17.850       22.334       13.484      318.609      498.813      181.818        0.107        0.050       32.856       10.163        0.096      330.840       -1.530      868.334
11/22/2013  03:15:00        2.680       51.207       -7.699       33.354       37.169       24.165     1112.508     1381.500      583.961        0.288        0.154       51.277       16.393        0.102      331.086       -1.124      868.341
11/22/2013  03:16:00        0.188      135.656      -10.795       26.106       50.642       24.896      681.502     2564.660      619.830        1.119        0.193      135.656       25.789        0.036      331.260       -0.840      868.359
11/22/2013  03:17:00       -5.292      124.310      -13.830       25.471       28.731       17.966      648.792      825.467      322.778        0.873        0.090      124.423       16.425        0.017      331.331       -0.722      868.344
11/22/2013  03:18:00        8.725      156.271      -19.869       39.004       34.356       20.817     1521.331     1180.328      433.360        1.401        0.157      156.514       16.926        0.012      331.370       -0.659      868.316
11/22/2013  03:19:00       -5.076      155.888      -19.570       30.438       40.232       24.209      926.478     1618.580      586.096        1.392        0.157      155.970       23.859        0.023      331.308       -0.760      868.295
11/22/2013  03:20:00      -25.355      145.146      -17.321       40.756       35.428       20.168     1661.019     1255.128      406.731        1.267        0.166      147.344       16.533        0.013      331.445       -0.536      868.296
11/22/2013  03:21:00      -11.870      127.967      -16.498       43.938       38.090       21.596     1930.506     1450.872      466.394        1.032        0.192      128.516       17.662        0.019      331.469       -0.495      868.294
11/22/2013  03:22:00      -10.766      170.271      -20.892       29.902       32.183       17.240      894.110     1035.749      297.204        1.589        0.111      170.611       12.970        0.006      331.472       -0.491      868.280
11/22/2013  03:23:00      -19.049      200.397      -22.854       27.127       30.477       16.908      735.858      928.854      285.886        2.150        0.098      201.300       13.077        0.004      331.445       -0.537      868.282
11/22/2013  03:24:00      -14.483      180.728      -27.308       24.773       31.426       18.544      613.695      987.564      343.872        1.778        0.097      181.308       11.236        0.004      331.421       -0.574      868.284
11/22/2013  03:25:00       21.662      145.330      -20.958       30.484       32.137       15.991      929.285     1032.818      255.727        1.212        0.111      146.935       14.128        0.009      331.407       -0.597      868.286
11/22/2013  03:26:00        1.342      120.872      -14.072       35.373       34.997       19.363     1251.237     1224.794      374.944        0.883        0.143      120.879       17.780        0.022      331.350       -0.692      868.290
11/22/2013  03:27:00        1.237      112.299       -2.981       27.769       40.714       26.024      771.138     1657.596      677.262        0.786        0.155      112.306       23.682        0.044      331.325       -0.734      868.273
11/22/2013  03:28:00       18.059       74.590       -7.777       17.156       28.999       14.071      294.319      840.934      198.003        0.364        0.067       76.745       12.724        0.027      331.285       -0.798      868.284
11/22/2013  03:29:00       38.738       41.351       -1.695       25.652       18.262       17.461      658.037      333.513      304.903        0.225        0.065       56.661       11.067        0.038      331.322       -0.739      868.295
11/22/2013  03:30:00       21.862       36.618       -1.189       15.382       29.722       15.722      236.621      883.426      247.174        0.159        0.068       42.648       16.239        0.145      331.249       -0.858      868.286
11/22/2013  03:31:00       31.975       41.386       -8.488       19.956       27.576       18.294      398.242      760.431      334.666        0.215        0.075       52.299       13.569        0.067      331.324       -0.734      868.314
11/22/2013  03:32:00        5.525       44.533        2.576       15.188       19.559       15.298      230.682      382.564      234.036        0.143        0.042       44.875       10.651        0.056      331.261       -0.837      868.366
11/22/2013  03:33:00      -45.716        5.402      -10.548       16.233       24.120        9.125      263.512      581.797       83.260        0.158        0.046       46.034       11.424        0.062      330.781       -1.627      868.386
11/22/2013  03:34:00      -45.511       -7.805       -6.839       24.779        9.719        9.121      613.981       94.450       83.186        0.149        0.040       46.176       10.428        0.051      330.746       -1.684      868.396
11/22/2013  03:35:00     -106.207      -48.640      -10.311       26.723       23.519       12.099      714.100      553.123      146.383        0.758        0.071      116.815        6.906        0.003      330.676       -1.799      868.398
11/22/2013  03:36:00     -106.614      -69.610       -6.981       42.768       31.742       20.581     1829.141     1007.563      423.558        0.976        0.163      127.327       14.531        0.013      330.664       -1.818      868.387
11/22/2013  03:37:00     -119.898      -33.170      -11.065       37.219       28.836       26.735     1385.229      831.499      714.760        0.926        0.147      124.402       21.363        0.029      330.530       -2.039      868.373
11/22/2013  03:38:00     -155.593       -7.877       -9.573       51.375       31.850       31.138     2639.368     1014.453      969.556        1.449        0.231      155.792       30.551        0.038      330.367       -2.305      868.346
11/22/2013  03:39:00     -187.469      -35.534      -14.087       36.683       42.594       25.706     1345.652     1814.259      660.786        2.021        0.191      190.807       24.254        0.016      330.248       -2.502      868.334
11/22/2013  03:40:00     -119.557      -63.418       -4.682       55.413       38.949       26.588     3070.646     1517.057      706.948        1.182        0.265      135.336       18.844        0.019      330.251       -2.496      868.324
11/22/2013  03:41:00     -169.391      -31.963      -30.734       23.977       38.971       18.803      574.912     1518.716      353.562        1.655        0.122      172.380        6.569        0.001      330.268       -2.468      868.323
11/22/2013  03:42:00     -156.406      -39.987      -17.443       34.892       29.419       21.452     1217.420      865.493      460.195        1.445        0.127      161.437       13.507        0.007      330.224       -2.540      868.297
11/22/2013  03:43:00     -137.885      -14.463      -26.560       19.357       20.004       12.854      374.702      400.145      165.222        1.043        0.047      138.641        6.791        0.002      330.148       -2.666      868.279
11/22/2013  03:44:00     -127.751      -31.829      -18.999       13.008       15.825       12.420      169.207      250.426      154.250        0.913        0.029      131.656        5.276        0.002      330.183       -2.609      868.256
11/22/2013  03:45:00     -125.328      -41.347      -17.449       35.479       23.149       13.597     1258.750      535.874      184.865        0.985        0.099      131.972        9.288        0.005      330.183       -2.608      868.247
11/22/2013  03:46:00     -156.514      -32.145      -10.990       36.221       40.731       20.686     1311.945     1658.992      427.899        1.452        0.170      159.781       20.186        0.016      330.127       -2.700      868.236
11/22/2013  03:47:00     -138.080      -11.362      -10.257       51.413       38.707       28.520     2643.253     1498.269      813.382        1.213        0.248      138.547       24.687        0.032      330.049       -2.828      868.236
11/22/2013  03:48:00     -163.818       -0.556      -18.881       46.611       25.116       21.360     2172.569      630.816      456.251        1.523        0.163      163.819       25.277        0.024      330.128       -2.699      868.234
11/22/2013  03:49:00     -152.893       12.781      -14.969       50.413       31.955       22.911     2541.506     1021.099      524.917        1.392        0.204      153.426       21.644        0.020      330.126       -2.702      868.229
11/22/2013  03:50:00      -99.854      -12.079       -6.371       64.576       39.331       24.037     4169.998     1546.947      577.801        0.822        0.315      100.582       26.635        0.070      329.971       -2.954      868.243
11/22/2013  03:51:00      -67.503      -28.382       -7.482       44.607       26.978       15.391     1989.827      727.814      236.884        0.419        0.148       73.227       10.053        0.019      330.075       -2.786      868.260
11/22/2013  03:52:00        9.548      -65.261      -19.120       42.041       30.601       23.880     1767.475      936.450      570.252        0.399        0.164       65.956       19.231        0.085      330.415       -2.227      868.293
11/22/2013  03:53:00       17.019      -28.135        9.267       28.566       29.977       19.528      815.996      898.647      381.343        0.163        0.105       32.882       19.974        0.369      330.494       -2.097      868.315
11/22/2013  03:54:00       14.010       23.040       -3.519       15.718       18.642       16.463      247.053      347.537      271.043        0.080        0.043       26.965        7.015        0.068      330.438       -2.189      868.320
11/22/2013  03:55:00      -53.696       -4.160       -9.818       19.868       15.550       11.126      394.725      241.794      123.780        0.188        0.038       53.857        8.165        0.023      330.416       -2.224      868.310
11/22/2013  03:56:00      -70.082        5.152      -12.320       13.079        9.297       14.193      171.053       86.441      201.455        0.277        0.023       70.271        9.129        0.017      330.329       -2.368      868.319
11/22/2013  03:57:00      -84.287      -15.374       -7.915       35.509       21.557       13.747     1260.922      464.725      188.971        0.466        0.096       85.678       15.266        0.032      330.310       -2.399      868.324
11/22/2013  03:58:00     -135.138        4.268      -14.595       29.999       22.106       21.284      899.952      488.675      453.015        1.017        0.092      135.206       16.168        0.014      330.141       -2.675      868.326
11/22/2013  03:59:00     -109.046       -6.028       -3.549       33.169       22.079       20.928     1100.193      487.470      438.001        0.698        0.101      109.213       20.078        0.034      330.101       -2.741      868.332
11/22/2013  04:00:00     -102.007       -2.362       -7.396       29.386       19.344       15.043      863.512      374.173      226.286        0.596        0.073      102.035       12.554        0.015      330.174       -2.621      868.320
11/22/2013  04:01:00      -55.240      -19.255       -0.052       16.993       16.264       11.800      288.775      264.531      139.250        0.206        0.035       58.499        7.189        0.015      330.148       -2.667      868.327
11/22/2013  04:02:00     -109.924      -10.185      -11.462       23.845       24.559       10.720      568.562      603.143      114.909        0.680        0.064      110.395       11.606        0.011      330.117       -2.714      868.338
11/22/2013  04:03:00     -116.988      -27.296      -13.719       23.521       21.755       14.033      553.236      473.270      196.924        0.792        0.061      120.130        9.723        0.007      330.105       -2.735      868.311
11/22/2013  04:04:00     -126.340      -25.444       -7.777       34.850       30.084       21.089     1214.535      905.037      444.725        0.962        0.128      128.877       17.006        0.017      330.130       -2.694      868.267
11/22/2013  04:05:00      -63.779        6.028      -10.963       28.441       20.794       15.660      808.883      432.405      245.232        0.286        0.074       64.063       14.861        0.054      330.007       -2.895      868.279
11/22/2013  04:06:00      -31.365       28.472       -7.403       18.592       25.925       11.926      345.644      672.093      142.240        0.150        0.058       42.361       13.855        0.107      330.200       -2.581      868.314
11/22/2013  04:07:00      -16.958       24.734      -10.976       14.123       26.676       14.954      199.463      711.603      223.610        0.108        0.057       29.989       15.211        0.257      330.512       -2.067      868.334
11/22/2013  04:08:00      -53.945       -3.307      -14.005       19.132       16.886       11.877      366.049      285.148      141.053        0.195        0.040       54.046        4.728        0.008      330.472       -2.134      868.317
11/22/2013  04:09:00      -41.970      -23.989       -4.676       15.768       13.939       10.742      248.644      194.297      115.389        0.146        0.028       48.342        8.193        0.029      330.333       -2.361      868.311
11/22/2013  04:10:00      -35.324       -6.695      -11.787       13.828        8.575        7.670      191.227       73.533       58.827        0.088        0.016       35.952        4.410        0.015      330.249       -2.499      868.316
11/22/2013  04:11:00      -25.034      -11.375       -9.669        9.143        8.740        8.979       83.595       76.392       80.622        0.055        0.012       27.497        2.181        0.006      330.376       -2.291      868.308
11/22/2013  04:12:00      -31.459       -8.805       -7.388        6.676        6.896       10.307       44.573       47.549      106.234        0.066        0.010       32.668        5.142        0.025      330.356       -2.323      868.314
11/22/2013  04:13:00      -26.424       -9.838       -4.616        9.589        6.092        9.555       91.945       37.112       91.295        0.052        0.011       28.196        4.180        0.022      330.528       -2.043      868.319
11/22/2013  04:14:00      -43.096       -5.119      -11.603        5.876        7.000        5.772       34.527       48.993       33.321        0.107        0.006       43.398        2.568        0.004      330.303       -2.410      868.309
11/22/2013  04:15:00      -26.303       -3.709        3.428       20.160       10.388       10.070      406.418      107.904      101.413        0.067        0.031       26.563        9.684        0.133      330.245       -2.505      868.296
11/22/2013  04:16:00        9.162       79.278      -11.103        9.072       19.102        7.973       82.309      364.899       63.562        0.350        0.026       79.806        5.965        0.006      330.778       -1.631      868.305
11/22/2013  04:17:00       11.904       87.484      -11.403       10.552       12.302        7.583      111.337      151.330       57.499        0.412        0.016       88.291        5.155        0.003      330.777       -1.634      868.317
11/22/2013  04:18:00       20.729       50.059       -5.060       13.611       28.872       13.082      185.259      833.615      171.136        0.208        0.060       54.182       11.866        0.048      330.612       -1.904      868.319
11/22/2013  04:19:00       47.011       34.038       -4.260       18.510       15.925       13.900      342.628      253.596      193.210        0.209        0.039       58.040       12.975        0.050      330.315       -2.391      868.329
11/22/2013  04:20:00       42.514       28.427       -3.904        9.351       14.120        7.784       87.446      199.370       60.593        0.149        0.017       51.142        4.734        0.009      330.233       -2.524      868.335
11/22/2013  04:21:00       41.326       39.481        4.007       16.599       18.384       15.054      275.538      337.967      226.628        0.206        0.042       57.154       11.563        0.041      330.232       -2.527      868.348
11/22/2013  04:22:00       27.429       52.846       -1.590       19.312       16.111       11.981      372.950      259.548      143.550        0.216        0.039       59.540        8.962        0.023      330.405       -2.244      868.354
11/22/2013  04:23:00        9.899       69.967      -10.732       12.025       17.243        9.089      144.612      297.318       82.618        0.282        0.026       70.663        5.616        0.006      330.540       -2.021      868.357
11/22/2013  04:24:00       15.682       75.221       -8.772       14.124       23.942       10.926      199.494      573.195      119.383        0.344        0.045       76.839        9.739        0.016      330.527       -2.043      868.369
11/22/2013  04:25:00       24.840       43.558       -7.295       14.816       28.141       11.715      219.522      791.902      137.253        0.186        0.057       50.143        9.381        0.035      330.425       -2.211      868.380
11/22/2013  04:26:00       55.646       23.503        4.288       12.748       13.945       12.392      162.505      194.449      153.567        0.209        0.026       60.406        5.961        0.010      330.384       -2.277      868.401
11/22/2013  04:27:00       64.853       23.883        2.803       12.670       13.522        8.663      160.528      182.840       75.040        0.260        0.021       69.111        7.672        0.012      330.376       -2.291      868.426
11/22/2013  04:28:00       44.912       29.915       15.817       16.422       17.368       16.765      269.689      301.646      281.069        0.201        0.043       53.963       11.872        0.048      330.360       -2.316      868.440
11/22/2013  04:29:00       42.629       26.335       23.823       19.481       18.252       16.453      379.517      333.139      270.698        0.203        0.049       50.107       12.175        0.059      330.265       -2.472      868.456
11/22/2013  04:30:00       79.701       30.540       11.929       26.024       15.171       14.636      677.258      230.153      214.199        0.427        0.056       85.352       11.325        0.018      330.293       -2.427      868.473
11/22/2013  04:31:00       64.132       40.830        5.172       15.883       13.530       14.475      252.278      183.057      209.530        0.323        0.032       76.027        5.304        0.005      330.238       -2.516      868.497
11/22/2013  04:32:00       35.002       32.664        1.715       22.603       15.712       14.968      510.889      246.857      224.055        0.164        0.049       47.876        7.256        0.023      330.194       -2.589      868.506
11/22/2013  04:33:00       21.661       44.554       -1.842       13.717       19.825       15.173      188.150      393.014      230.224        0.163        0.041       49.541       12.982        0.069      330.134       -2.687      868.509
11/22/2013  04:34:00       17.512       51.649       -8.141       15.205       18.332       12.268      231.183      336.067      150.506        0.188        0.036       54.537        7.905        0.021      330.156       -2.654      868.510
11/22/2013  04:35:00       16.374       47.234       -9.715       10.251       11.785        6.467      105.076      138.877       41.824        0.144        0.014       49.991        4.596        0.008      330.214       -2.556      868.496
11/22/2013  04:36:00       23.627       60.769       -9.559       10.539       11.165        8.494      111.069      124.649       72.156        0.233        0.015       65.200        4.677        0.005      330.233       -2.527      868.498
11/22/2013  04:37:00       21.580       69.611      -11.685        9.570        8.903        6.941       91.582       79.258       48.181        0.283        0.011       72.880        3.543        0.002      330.254       -2.489      868.502
11/22/2013  04:38:00        8.184       54.171       -9.893       12.000       10.207        6.287      144.005      104.173       39.523        0.169        0.014       54.786        4.382        0.006      330.226       -2.540      868.499
11/22/2013  04:39:00       12.225       64.440       -5.554        9.805       27.675        9.257       96.147      765.907       85.697        0.264        0.047       65.589        9.928        0.023      330.236       -2.521      868.489
11/22/2013  04:40:00       23.115      105.958      -17.113       13.840       17.012       10.349      191.533      289.407      107.103        0.632        0.029      108.450        6.080        0.003      330.217       -2.551      868.511
11/22/2013  04:41:00       27.759       76.082       -7.138       15.739       33.066       23.982      247.719     1093.390      575.113        0.426        0.096       80.988       21.783        0.072      330.128       -2.696      868.537
11/22/2013  04:42:00       22.159       51.709       -3.005       16.704       23.997       17.285      279.029      575.841      298.754        0.216        0.058       56.257       12.696        0.051      330.108       -2.730      868.546
11/22/2013  04:43:00       26.875       62.858      -10.347       23.818       26.370       18.292      567.286      695.402      334.594        0.319        0.080       68.363       15.498        0.051      330.112       -2.724      868.519
11/22/2013  04:44:00       45.468       40.155        1.022       23.853       20.894       17.915      568.986      436.555      320.954        0.250        0.066       60.661       12.904        0.045      330.105       -2.735      868.499
11/22/2013  04:45:00       61.609       42.455       -1.635       35.970       21.551       23.352     1293.874      464.424      545.333        0.395        0.115       74.821       13.074        0.031      330.129       -2.697      868.502
11/22/2013  04:46:00       36.507       56.101        5.826       32.739       35.131       26.799     1071.837     1234.154      718.186        0.377        0.151       66.934       23.284        0.121      330.088       -2.763      868.517
11/22/2013  04:47:00       27.370       92.142      -16.541       29.836       33.152       18.712      890.211     1099.025      350.154        0.593        0.117       96.121       17.862        0.035      330.168       -2.633      868.521
11/22/2013  04:48:00       19.573       64.979        0.826       33.977       41.658       26.270     1154.449     1735.405      690.116        0.409        0.179       67.862       27.656        0.166      330.121       -2.710      868.519
11/22/2013  04:49:00       27.670       71.674      -10.111       26.115       30.198       22.413      682.018      911.912      502.350        0.405        0.105       76.830       18.457        0.058      330.117       -2.716      868.510
11/22/2013  04:50:00       22.613       76.402       -6.447       30.236       38.399       23.315      914.217     1474.449      543.570        0.466        0.147       79.678       23.203        0.085      330.121       -2.709      868.507
11/22/2013  04:51:00       27.731       65.249       -6.514       21.325       33.830       18.467      454.740     1144.442      341.034        0.350        0.097       70.897       18.983        0.072      330.119       -2.712      868.521
11/22/2013  04:52:00       41.565       56.812       -8.661       24.611       32.229       20.700      605.716     1038.730      428.475        0.355        0.104       70.394       20.419        0.084      330.064       -2.802      868.536
11/22/2013  04:53:00       54.028       45.800       -7.608       16.543       18.536       12.219      273.678      343.581      149.297        0.292        0.038       70.828        7.781        0.012      330.107       -2.731      868.513
11/22/2013  04:54:00       65.296       30.170        9.711       24.889       13.844       14.553      619.475      191.660      211.802        0.315        0.051       71.929       10.075        0.020      330.113       -2.723      868.486
11/22/2013  04:55:00       74.686       45.832       20.697       22.940       21.103       27.083      526.226      445.348      733.499        0.491        0.085       87.627       14.410        0.027      330.104       -2.738      868.494
11/22/2013  04:56:00       70.323       29.512       24.823       20.896       22.148       20.322      436.628      490.528      412.967        0.389        0.067       76.265        8.929        0.014      330.116       -2.718      868.517
11/22/2013  04:57:00       83.018       40.342       32.247       28.650       21.852       25.905      820.849      477.499      671.049        0.576        0.098       92.301       19.202        0.043      330.131       -2.693      868.521
11/22/2013  04:58:00       66.480       21.258       30.772       23.704       19.879       19.938      561.878      395.157      397.538        0.359        0.068       69.796       13.503        0.037      330.052       -2.821      868.527
11/22/2013  04:59:00       89.687       45.084        7.415       34.602       22.354       23.654     1197.267      499.685      559.511        0.619        0.113      100.381       17.771        0.031      330.144       -2.672      868.540
11/22/2013  05:00:00      105.581       46.142       11.055       22.464       21.267       15.136      504.645      452.285      229.087        0.729        0.059      115.224        9.703        0.007      330.178       -2.615      868.555
11/22/2013  05:01:00       85.446       31.532       14.657       28.086       27.376       17.856      788.832      749.451      318.842        0.518        0.093       91.079       12.588        0.019      330.153       -2.657      868.550
11/22/2013  05:02:00       63.382       29.046       26.694       25.052       19.203       19.323      627.599      368.770      373.394        0.347        0.068       69.720       12.946        0.034      330.149       -2.661      868.534
11/22/2013  05:03:00       73.322       49.632       34.957       27.733       26.375       25.347      769.109      695.657      642.462        0.558        0.105       88.541       15.017        0.029      330.179       -2.615      868.537
11/22/2013  05:04:00       63.875       42.217       42.867       24.890       27.599       25.273      619.534      761.723      638.708        0.486        0.101       76.566       17.001        0.049      330.181       -2.610      868.535
11/22/2013  05:05:00       50.460       41.056       41.664       24.771       25.406       25.501      613.605      645.486      650.295        0.394        0.095       65.052       10.488        0.026      330.145       -2.671      868.510
11/22/2013  05:06:00       51.785       23.305       27.247       22.573       16.437       24.068      509.546      270.169      579.248        0.266        0.068       56.788       13.543        0.057      330.174       -2.624      868.503
11/22/2013  05:07:00       37.500       27.398       23.019       18.317       14.400       14.867      335.502      207.346      221.016        0.173        0.038       46.442        7.018        0.023      330.170       -2.629      868.522
11/22/2013  05:08:00       70.436       38.736        8.725       18.184       12.118       13.715      330.656      146.853      188.105        0.360        0.033       80.385        7.351        0.008      330.161       -2.643      868.540
11/22/2013  05:09:00       63.885       38.733        5.757       22.337       14.466       12.258      498.925      209.268      150.262        0.324        0.043       74.710       11.317        0.023      330.154       -2.654      868.547
11/22/2013  05:10:00       61.490       31.308       12.132       13.684       11.358       14.036      187.256      129.008      197.005        0.271        0.026       69.002        6.798        0.010      330.196       -2.586      868.560
11/22/2013  05:11:00       60.278       26.613        9.136       19.568       15.849       13.633      382.922      251.197      185.872        0.262        0.041       65.891       11.857        0.032      330.246       -2.502      868.575
11/22/2013  05:12:00       21.477       34.236        0.254       11.461        7.290        7.325      131.349       53.139       53.657        0.094        0.012       40.415        6.382        0.025      330.168       -2.632      868.562
11/22/2013  05:13:00        8.813       14.539       -3.266        3.708        6.373        3.551       13.746       40.610       12.612        0.018        0.003       17.002        3.150        0.034      330.155       -2.653      868.548
11/22/2013  05:14:00       18.460       22.767        8.088        7.923        8.969        5.925       62.773       80.439       35.102        0.055        0.009       29.311        3.940        0.018      330.127       -2.700      868.550
11/22/2013  05:15:00       21.852       20.559        5.274        8.359        9.242       10.260       69.877       85.409      105.267        0.059        0.013       30.004        6.414        0.046      330.151       -2.660      868.549
11/22/2013  05:16:00        1.255       25.277       -4.364       11.142       10.929        5.991      124.146      119.447       35.897        0.047        0.014       25.308        3.393        0.018      330.136       -2.684      868.538
11/22/2013  05:17:00      -17.918       32.164       -4.462       13.745       20.381        5.337      188.915      415.381       28.482        0.100        0.032       36.818        7.056        0.037      330.107       -2.730      868.530
11/22/2013  05:18:00      -38.622       -1.916       -2.863        9.394        8.360        5.930       88.253       69.894       35.167        0.085        0.010       38.669        4.940        0.016      329.987       -2.927      868.527
11/22/2013  05:19:00      -43.084      -14.894       -4.988        5.304        6.093        4.676       28.136       37.122       21.868        0.110        0.004       45.586        3.320        0.005      330.033       -2.852      868.543
11/22/2013  05:20:00      -21.992      -11.212        0.008       10.506        9.649        5.092      110.371       93.112       25.929        0.042        0.011       24.685        3.634        0.022      329.879       -3.106      868.585
11/22/2013  05:21:00      -32.067        1.947       -3.335        8.093        6.987        3.664       65.498       48.814       13.428        0.059        0.006       32.126        3.189        0.010      330.008       -2.893      868.611
11/22/2013  05:22:00      -23.114        1.268       -4.711        7.881        5.718        4.882       62.108       32.692       23.834        0.034        0.006       23.149        3.295        0.020      330.073       -2.787      868.628
11/22/2013  05:23:00      -12.787       -8.988       -3.636        9.202        6.790        6.521       84.678       46.104       42.523        0.022        0.009       15.630        4.073        0.068      330.039       -2.843      868.628
11/22/2013  05:24:00       -4.619      -16.767       -4.390        5.805       11.502        6.700       33.695      132.299       44.896        0.027        0.011       17.392        4.957        0.081      329.926       -3.028      868.620
11/22/2013  05:25:00       -4.018      -11.125       -1.395        5.302        9.559        6.354       28.111       91.369       40.377        0.015        0.008       11.829        3.414        0.083      329.918       -3.040      868.628
11/22/2013  05:26:00       -7.848      -14.791       -1.988        7.321        7.837        5.686       53.597       61.412       32.326        0.022        0.007       16.744        4.031        0.058      330.003       -2.901      868.630
11/22/2013  05:27:00      -20.285       -7.948       -0.716       12.470        5.574        5.655      155.490       31.074       31.979        0.035        0.011       21.787        5.964        0.075      329.880       -3.104      868.613
11/22/2013  05:28:00      -53.312       -2.273       -7.740        6.911        5.773        6.256       47.764       33.324       39.133        0.151        0.006       53.360        2.335        0.002      329.855       -3.146      868.620
11/22/2013  05:29:00      -39.039       -1.414       -7.758        6.974        6.441        5.676       48.632       41.488       32.213        0.085        0.006       39.064        4.408        0.013      329.869       -3.120      868.631
11/22/2013  05:30:00      -52.271      -10.727      -12.220        8.097        8.159        5.659       65.559       66.564       32.020        0.158        0.008       53.361        2.925        0.003      329.958       -2.976      868.639
11/22/2013  05:31:00      -54.451      -14.780       -8.452        6.265        6.773        5.578       39.256       45.877       31.112        0.169        0.006       56.422        2.269        0.002      329.990       -2.923      868.639
11/22/2013  05:32:00      -55.218      -13.451       -9.064        5.470        9.148        4.946       29.922       83.693       24.463        0.173        0.007       56.833        3.904        0.005      329.780       -3.268      868.660
11/22/2013  05:33:00      -55.318      -21.468      -12.197        8.806       10.328        8.246       77.544      106.670       67.990        0.196        0.013       59.337        3.706        0.004      329.691       -3.413      868.680
11/22/2013  05:34:00      -58.788      -11.612       -8.147       15.175       15.422        9.379      230.292      237.852       87.967        0.211        0.028       59.924        7.878        0.017      329.632       -3.511      868.697
11/22/2013  05:35:00      -63.965       -2.593      -10.976       13.413       10.882        9.737      179.908      118.426       94.803        0.231        0.020       64.017        4.669        0.005      329.591       -3.578      868.709
11/22/2013  05:36:00      -65.888        0.139      -11.373        7.623        7.585        6.142       58.110       57.533       37.726        0.231        0.008       65.888        4.477        0.005      329.636       -3.505      868.714
11/22/2013  05:37:00      -61.025      -17.135      -11.308        9.174        9.977        8.209       84.167       99.534       67.381        0.220        0.013       63.385        5.407        0.007      329.696       -3.404      868.718
11/22/2013  05:38:00      -50.458       -6.333       -7.276       14.897       13.905        8.053      221.917      193.359       64.853        0.156        0.024       50.854        6.381        0.016      329.579       -3.597      868.727
11/22/2013  05:39:00      -54.841      -12.571       -9.380       10.183       15.298       10.130      103.684      234.035      102.619        0.185        0.022       56.263        6.954        0.015      329.660       -3.463      868.725
11/22/2013  05:40:00      -65.142      -13.050      -11.304       17.975       14.504       11.996      323.101      210.367      143.905        0.261        0.034       66.437        8.405        0.016      329.701       -3.395      868.710
11/22/2013  05:41:00      -52.678      -14.900      -13.390       11.665       13.265       11.365      136.073      175.966      129.162        0.181        0.022       54.745        8.231        0.023      329.696       -3.406      868.722
11/22/2013  05:42:00      -44.195      -14.977       -8.366       11.171       10.461        9.210      124.800      109.425       84.827        0.128        0.016       46.663        6.086        0.017      329.749       -3.318      868.735
11/22/2013  05:43:00      -34.157      -19.716       -5.249        9.832       12.042        8.991       96.664      144.999       80.830        0.095        0.016       39.439        6.215        0.025      329.733       -3.343      868.739
11/22/2013  05:44:00        1.322      -16.195        6.472       15.003       13.723        8.762      225.077      188.310       76.781        0.040        0.025       16.249        3.394        0.044      329.742       -3.329      868.735
11/22/2013  05:45:00      -34.690      -14.268       -4.829       19.562        9.690       10.631      382.658       93.906      113.018        0.101        0.029       37.510        6.213        0.027      329.613       -3.539      868.737
11/22/2013  05:46:00      -34.202      -24.195        0.570       16.970       15.668       10.533      287.965      245.494      110.944        0.120        0.032       41.895        7.430        0.031      329.628       -3.515      868.721
11/22/2013  05:47:00      -79.085      -31.516      -12.466       25.458       14.440       14.071      648.115      208.515      197.998        0.423        0.053       85.133       11.541        0.018      329.607       -3.551      868.713
11/22/2013  05:48:00      -82.232      -18.645      -14.709       12.617       15.146       13.732      159.197      229.400      188.579        0.395        0.029       84.319       10.483        0.015      329.617       -3.535      868.747
11/22/2013  05:49:00      -76.660        6.311      -12.308       11.167       13.955        9.976      124.706      194.746       99.529        0.324        0.021       76.919        6.871        0.008      329.610       -3.546      868.794
11/22/2013  05:50:00      -75.482        6.216      -13.661       17.560       10.014        8.803      308.350      100.275       77.491        0.320        0.024       75.737        6.192        0.007      329.479       -3.759      868.801
11/22/2013  05:51:00      -73.179       -0.564      -16.674       10.713       10.581       10.387      114.762      111.962      107.896        0.298        0.017       73.182        8.218        0.013      329.509       -3.710      868.801
11/22/2013  05:52:00      -66.917       -8.750      -10.553       13.144       12.797        9.878      172.764      163.751       97.576        0.255        0.022       67.487        3.812        0.003      329.468       -3.776      868.801
11/22/2013  05:53:00      -65.605      -16.876      -14.979       25.204       18.757       12.529      635.260      351.842      156.982        0.298        0.057       67.740        9.524        0.020      329.428       -3.842      868.818
11/22/2013  05:54:00     -108.042      -23.472      -14.831       34.477       26.073       14.020     1188.660      679.807      196.574        0.725        0.103      110.562       12.549        0.013      329.413       -3.869      868.838
11/22/2013  05:55:00      -96.900      -31.358      -10.545       27.045       37.503       16.462      731.449     1406.442      270.983        0.645        0.120      101.847       14.616        0.021      329.435       -3.832      868.873
11/22/2013  05:56:00      -89.593      -27.302       -6.861       21.834       22.874       10.123      476.740      523.232      102.479        0.496        0.055       93.661        6.466        0.005      329.360       -3.954      868.915
11/22/2013  05:57:00      -98.825      -18.036      -11.417       16.167       13.847       12.047      261.369      191.747      145.141        0.541        0.030      100.457        8.894        0.008      329.401       -3.888      868.945
11/22/2013  05:58:00      -76.602       -4.946      -10.502       17.006        7.360        7.247      289.202       54.167       52.515        0.320        0.020       76.762        3.095        0.002      329.374       -3.933      868.967
11/22/2013  05:59:00      -35.580      -15.669      -10.593       10.891        9.786        9.168      118.618       95.760       84.056        0.096        0.015       38.878        3.105        0.006      329.559       -3.627      868.983
11/22/2013  06:00:00       -6.226        5.020       -6.783       16.279        8.669       10.268      265.000       75.144      105.438        0.028        0.022        7.998       10.394        1.689      329.977       -2.944      868.997
11/22/2013  06:01:00        3.245       17.429        2.314        5.850       11.190        8.353       34.218      125.226       69.777        0.027        0.011       17.728        5.896        0.111      330.021       -2.871      869.014
11/22/2013  06:02:00        6.250       11.945       -0.062       10.306       12.266        7.445      106.208      150.458       55.422        0.025        0.016       13.482        8.114        0.362      330.028       -2.861      869.000
11/22/2013  06:03:00        2.309       17.424       -4.058        7.326       17.135        7.053       53.675      293.612       49.745        0.036        0.020       17.576        8.740        0.247      330.124       -2.704      868.988
11/22/2013  06:04:00      -18.023       27.288       -4.778       15.857       11.701        5.393      251.444      136.906       29.085        0.075        0.021       32.702        6.009        0.034      330.136       -2.682      868.979
11/22/2013  06:05:00      -47.377       -3.014       -9.695        7.931        9.956        8.407       62.900       99.125       70.685        0.129        0.012       47.472        5.072        0.011      329.852       -3.149      868.977
11/22/2013  06:06:00      -61.732      -22.787      -12.210       14.748       14.343        9.874      217.499      205.724       97.499        0.250        0.026       65.803        7.304        0.012      329.449       -3.810      868.990
11/22/2013  06:07:00      -67.651       -8.584       -8.087       15.704       13.853       10.830      246.616      191.917      117.280        0.264        0.028       68.194        8.633        0.016      329.352       -3.967      869.007
11/22/2013  06:08:00      -56.236      -22.005       -8.934       12.676        8.470        7.523      160.680       71.737       56.597        0.201        0.014       60.388        7.128        0.014      329.446       -3.813      869.028
11/22/2013  06:09:00      -37.469      -20.430      -13.678        8.600        9.964        6.603       73.955       99.279       43.596        0.111        0.011       42.677        3.996        0.009      329.577       -3.600      869.036
11/22/2013  06:10:00      -21.350      -16.534       -6.038       11.809       13.767        7.875      139.458      189.518       62.017        0.058        0.020       27.003        5.202        0.037      329.706       -3.389      869.051
11/22/2013  06:11:00       -8.179      -19.638       -4.745       10.259       12.639       10.981      105.243      159.738      120.577        0.043        0.019       21.273        8.696        0.167      329.691       -3.414      869.084
11/22/2013  06:12:00      -41.696      -11.659       -4.463       17.852       10.298        9.162      318.707      106.042       83.934        0.120        0.025       43.296        8.859        0.042      329.470       -3.774      869.099
11/22/2013  06:13:00      -33.224       -4.361      -13.028       16.951        9.343        6.508      287.328       87.298       42.358        0.085        0.021       33.509        5.800        0.030      329.498       -3.728      869.094
11/22/2013  06:14:00      -11.099      -11.885       -0.382       24.584       12.293       12.757      604.390      151.129      162.753        0.059        0.046       16.262        4.092        0.063      329.706       -3.388      869.092
11/22/2013  06:15:00      -12.196       -6.816       -2.990       13.405       10.109       12.956      179.703      102.194      167.864        0.033        0.022       13.971        8.507        0.371      329.689       -3.415      869.116
11/22/2013  06:16:00        2.780       24.815        2.251        8.860       20.332        9.259       78.497      413.410       85.733        0.060        0.029       24.970       13.083        0.275      329.776       -3.272      869.148
11/22/2013  06:17:00       29.214       44.546       -2.039       13.201       17.159       10.154      174.255      294.428      103.111        0.171        0.029       53.271        6.587        0.015      329.897       -3.076      869.150
11/22/2013  06:18:00       37.711       29.033        2.222       11.269        9.110       10.883      126.985       82.986      118.433        0.130        0.016       47.592        7.481        0.025      329.868       -3.123      869.148
11/22/2013  06:19:00       37.210       36.124        4.994       15.789       17.415       11.861      249.287      303.282      140.678        0.170        0.035       51.861       10.736        0.043      329.857       -3.142      869.151
11/22/2013  06:20:00       19.885       36.788        0.550        8.987       16.378       10.110       80.770      268.238      102.212        0.110        0.023       41.818        9.550        0.052      329.889       -3.090      869.150
11/22/2013  06:21:00       27.606       53.473       -6.393       15.582       16.572       10.119      242.791      274.639      102.390        0.214        0.031       60.179        5.693        0.009      329.895       -3.079      869.155
11/22/2013  06:22:00       24.310       67.802      -10.620       17.970       13.286       11.048      322.905      176.524      122.050        0.296        0.031       72.028        7.924        0.012      329.949       -2.991      869.163
11/22/2013  06:23:00       -0.781       61.741      -11.520       13.710       10.216        6.685      187.970      104.375       44.689        0.214        0.017       61.746        4.495        0.005      330.043       -2.836      869.152
11/22/2013  06:24:00        5.263       40.169       -3.245        8.457        7.439        6.460       71.513       55.331       41.734        0.091        0.008       40.512        4.619        0.013      330.029       -2.859      869.144
11/22/2013  06:25:00       14.896       21.596       -4.609        6.059        9.493        3.027       36.712       90.121        9.161        0.042        0.007       26.235        1.557        0.004      330.087       -2.765      869.138
11/22/2013  06:26:00       23.417        0.307       -4.187       10.879       11.551        6.643      118.363      133.431       44.135        0.043        0.015       23.419        4.009        0.029      329.981       -2.937      869.145
11/22/2013  06:27:00       28.124        7.867        9.019       13.841       10.052       10.086      191.560      101.042      101.734        0.066        0.020       29.204        7.660        0.069      329.810       -3.217      869.170
11/22/2013  06:28:00       33.939       18.563        2.843       12.818       14.863        8.632      164.297      220.909       74.503        0.098        0.023       38.684        8.024        0.043      329.770       -3.284      869.198
11/22/2013  06:29:00       33.867       42.540        2.387       14.142       16.779       14.187      199.990      281.546      201.266        0.182        0.034       54.374       12.350        0.052      329.803       -3.229      869.221
11/22/2013  06:30:00       29.406       45.449       -7.657       17.663       29.377       14.105      311.993      862.990      198.957        0.218        0.069       54.132       13.689        0.064      329.763       -3.294      869.225
11/22/2013  06:31:00       26.179       43.947       -3.235       18.686       30.140       14.199      349.161      908.442      201.622        0.204        0.073       51.153       14.587        0.081      329.761       -3.298      869.242
11/22/2013  06:32:00       21.349       29.592       -3.301       16.511       22.497       11.993      272.619      506.123      143.836        0.113        0.046       36.490        8.620        0.056      329.771       -3.282      869.266
11/22/2013  06:33:00       33.446       14.601       -1.183       14.269       12.004        9.804      203.606      144.103       96.116        0.089        0.022       36.494        8.739        0.057      329.792       -3.247      869.298
11/22/2013  06:34:00       23.246       11.957       -0.117       11.567        7.980        7.419      133.796       63.685       55.045        0.047        0.013       26.141        6.886        0.069      329.765       -3.291      869.305
11/22/2013  06:35:00       20.515       24.174       -3.163       10.213       15.687        7.419      104.303      246.071       55.039        0.071        0.020       31.706        8.438        0.071      329.726       -3.356      869.315
11/22/2013  06:36:00       20.331       30.280       -2.668       11.003       17.055        8.030      121.066      290.876       64.482        0.091        0.024       36.472        7.143        0.038      329.760       -3.299      869.339
11/22/2013  06:37:00       27.407       26.749       -1.371       17.766       17.056       10.730      315.614      290.893      115.130        0.109        0.036       38.297       10.566        0.076      329.807       -3.223      869.347
11/22/2013  06:38:00       19.949       62.065       -7.684       14.231       18.125       10.778      202.527      328.531      116.157        0.248        0.032       65.192        6.683        0.011      329.880       -3.105      869.337
11/22/2013  06:39:00       20.999       85.626      -16.030       12.970       19.505        7.707      168.213      380.443       59.398        0.432        0.030       88.163        6.256        0.005      329.937       -3.011      869.332
11/22/2013  06:40:00        4.725       71.837       -9.729       13.279       14.041        9.226      176.331      197.144       85.124        0.287        0.023       71.992        7.585        0.011      329.966       -2.962      869.348
11/22/2013  06:41:00        6.890       97.438      -12.355       13.574       16.228       13.162      184.249      263.341      173.231        0.516        0.031       97.681        7.014        0.005      329.991       -2.920      869.376
11/22/2013  06:42:00       13.936       82.699      -11.739       16.014       14.919       11.130      256.443      222.567      123.882        0.389        0.030       83.865       10.071        0.014      329.944       -2.999      869.408
11/22/2013  06:43:00        6.137       51.602       -2.660       20.921       24.222       13.644      437.690      586.682      186.170        0.196        0.061       51.966       11.934        0.053      329.875       -3.112      869.442
11/22/2013  06:44:00       16.370       -0.603       -0.790       12.999       13.962        6.708      168.979      194.937       44.991        0.034        0.020       16.382        4.060        0.061      329.920       -3.038      869.459
11/22/2013  06:45:00       -4.228      -33.196       -2.057        9.738       18.966        8.925       94.820      359.725       79.662        0.083        0.027       33.464        9.637        0.083      329.850       -3.153      869.454
11/22/2013  06:46:00       -2.860      -55.640       -5.032       14.979       12.190        8.981      224.375      148.592       80.655        0.179        0.023       55.713        7.373        0.018      329.833       -3.181      869.433
11/22/2013  06:47:00      -22.326      -29.128       -6.968       24.241       18.003        7.613      587.641      324.093       57.952        0.118        0.048       36.700        6.954        0.036      329.917       -3.042      869.420
11/22/2013  06:48:00      -54.799      -20.450      -11.487       14.512       13.231       10.624      210.587      175.055      112.865        0.203        0.025       58.490       10.320        0.031      329.781       -3.267      869.416
11/22/2013  06:49:00      -76.179        6.057      -12.546        7.460        9.603       10.173       55.657       92.209      103.500        0.312        0.013       76.419        6.887        0.008      329.603       -3.558      869.436
11/22/2013  06:50:00      -89.958       13.698      -15.118       10.913       10.355        8.739      119.090      107.221       76.376        0.441        0.015       90.995        2.280        0.001      329.526       -3.683      869.432
11/22/2013  06:51:00      -88.514       22.838      -16.143       16.070       15.802       11.696      258.253      249.717      136.794        0.463        0.032       91.413        7.563        0.007      329.543       -3.654      869.446
11/22/2013  06:52:00      -73.735       19.226      -10.725       15.149       11.693        9.669      229.502      136.731       93.499        0.319        0.023       76.201        4.582        0.004      329.563       -3.623      869.466
11/22/2013  06:53:00      -54.138       -3.778       -5.504       12.636       15.750        7.111      159.667      248.065       50.573        0.172        0.023       54.270        6.905        0.016      329.686       -3.421      869.471
11/22/2013  06:54:00      -44.647      -26.530       -3.182        5.943        7.737        5.378       35.321       59.860       28.918        0.142        0.006       51.935        3.300        0.004      329.759       -3.302      869.455
11/22/2013  06:55:00      -34.315      -31.942       -6.290       25.891       14.667       12.054      670.349      215.120      145.309        0.163        0.052       46.881        8.286        0.031      329.788       -3.256      869.419
11/22/2013  06:56:00      -97.263      -17.124       -9.424       20.799       18.333       15.153      432.596      336.097      229.609        0.542        0.050       98.759        9.330        0.009      329.459       -3.793      869.388
11/22/2013  06:57:00     -111.790       -9.233      -16.064       24.656       15.172       15.160      607.914      230.197      229.820        0.695        0.053      112.170       11.062        0.010      329.314       -4.029      869.392
11/22/2013  06:58:00      -96.707      -19.967       -9.709       21.433       19.615       14.942      459.381      384.756      223.278        0.546        0.053       98.747       12.174        0.015      329.259       -4.119      869.426
11/22/2013  06:59:00      -58.752      -29.752       -1.233       25.177       16.102       14.564      633.886      259.281      212.123        0.272        0.055       65.856       13.372        0.041      329.306       -4.044      869.444
11/22/2013  07:00:00      -99.448       -7.890      -10.208       37.748       37.519       15.763     1424.883     1407.639      248.463        0.657        0.154       99.761        9.819        0.010      329.316       -4.026      869.448
11/22/2013  07:01:00     -100.937        7.166      -10.347       37.302       31.666       19.808     1391.448     1002.720      392.368        0.657        0.139      101.191       15.990        0.025      329.340       -3.987      869.451
11/22/2013  07:02:00     -117.650      -19.250      -16.166       34.815       44.679       18.281     1212.111     1996.235      334.178        0.901        0.177      119.215       16.622        0.019      329.389       -3.907      869.450
11/22/2013  07:03:00     -121.436      -62.950       -8.516       46.117       34.700       26.420     2126.792     1204.094      698.007        1.140        0.201      136.782       26.241        0.037      329.428       -3.843      869.420
11/22/2013  07:04:00     -110.087      -49.447       -1.177       40.651       33.972       24.761     1652.530     1154.098      613.087        0.899        0.171      120.682       23.601        0.038      329.401       -3.887      869.391
11/22/2013  07:05:00      -84.381      -11.618       -4.904       23.642       14.572       13.457      558.968      212.331      181.079        0.412        0.048       85.177        4.981        0.003      329.477       -3.762      869.407
11/22/2013  07:06:00      -54.726       -6.254       -5.177       25.798       18.008       11.374      665.523      324.303      129.373        0.209        0.056       55.082        8.983        0.027      329.469       -3.776      869.439
11/22/2013  07:07:00      -40.262       -6.020       -0.488       38.656       22.218       16.139     1494.282      493.621      260.456        0.195        0.112       40.710       13.337        0.107      329.344       -3.981      869.464
11/22/2013  07:08:00      -40.775       -0.582       -1.469       23.636       22.315       12.857      558.650      497.975      165.314        0.144        0.061       40.780        6.292        0.024      329.428       -3.843      869.490
11/22/2013  07:09:00      -15.923      -25.375       -9.716       26.917       21.116       12.046      724.524      445.884      145.095        0.115        0.066       29.957        7.081        0.056      329.609       -3.548      869.507
11/22/2013  07:10:00        0.856      -32.447       -9.033       13.999       28.741       14.376      195.970      826.048      206.666        0.118        0.061       32.458       12.836        0.156      329.724       -3.358      869.518
11/22/2013  07:11:00       16.514      -26.023        5.815       14.838       25.546       15.531      220.172      652.623      241.218        0.105        0.056       30.820       11.538        0.140      329.668       -3.451      869.514
11/22/2013  07:12:00       19.629        6.703       -3.005       17.369       12.663        9.600      301.678      160.353       92.167        0.050        0.028       20.742        5.841        0.079      330.061       -2.807      869.526
11/22/2013  07:13:00      -21.006       -1.207      -11.613       14.141        9.622        8.400      199.964       92.592       70.564        0.047        0.018       21.040        5.483        0.068      330.101       -2.742      869.547
11/22/2013  07:14:00      -51.665       -3.863       -6.627        9.727       10.199        4.243       94.609      104.028       18.007        0.147        0.011       51.809        2.534        0.002      329.985       -2.932      869.546
11/22/2013  07:15:00      -58.106      -18.108       -9.173       12.987       10.917        8.086      168.665      119.184       65.381        0.207        0.018       60.862        5.274        0.008      329.813       -3.214      869.539
11/22/2013  07:16:00      -37.225      -16.640       -6.089       19.273       20.293       10.189      371.452      411.793      103.817        0.129        0.044       40.775       10.088        0.061      329.643       -3.491      869.556
11/22/2013  07:17:00       25.978       29.911        9.463       40.587       28.778       24.650     1647.276      828.200      607.629        0.237        0.154       39.617       14.396        0.132      329.720       -3.364      869.586
11/22/2013  07:18:00       35.638       19.027       -0.291       43.889       29.993       17.317     1926.261      899.605      299.887        0.238        0.156       40.399        8.558        0.045      329.501       -3.724      869.605
11/22/2013  07:19:00       -3.956      -35.002       -7.813       12.996       20.199       12.943      168.886      408.012      167.511        0.102        0.037       35.225        6.170        0.031      329.828       -3.188      869.592
11/22/2013  07:20:00      -66.585      -42.684       -1.159       23.426       17.902       10.437      548.790      320.491      108.934        0.362        0.049       79.092        2.687        0.001      329.686       -3.422      869.593
11/22/2013  07:21:00      -59.183      -40.362        1.980       26.148       17.150       11.924      683.738      294.137      142.182        0.313        0.056       71.636       10.954        0.023      329.754       -3.311      869.588
11/22/2013  07:22:00      -27.413      -10.093        6.550       25.886       15.277       13.830      670.086      233.394      191.257        0.100        0.055       29.212       16.180        0.307      329.828       -3.190      869.582
11/22/2013  07:23:00        3.320       -0.709        3.304       18.997       16.030       11.304      360.881      256.965      127.778        0.038        0.037        3.395       12.524       13.607      329.997       -2.911      869.569
11/22/2013  07:24:00       20.321       42.998        3.522       12.674       13.774       13.032      160.641      189.730      169.827        0.140        0.026       47.558       10.327        0.047      330.055       -2.815      869.582
11/22/2013  07:25:00       19.385       62.500       -5.633       19.411       24.659       17.499      376.782      608.089      306.219        0.280        0.065       65.437       14.733        0.051      329.924       -3.032      869.614
11/22/2013  07:26:00       28.302       32.237       -3.703       23.799       23.615       16.818      566.379      557.671      282.859        0.163        0.070       42.898        4.742        0.012      329.884       -3.096      869.651
11/22/2013  07:27:00       28.096       10.407        3.508       16.488       15.791       10.891      271.850      249.343      118.607        0.077        0.032       29.961        7.693        0.066      329.935       -3.014      869.649
11/22/2013  07:28:00       16.170        7.929        6.852       14.593       13.092        8.646      212.958      171.409       74.758        0.042        0.023       18.009        8.174        0.206      330.158       -2.649      869.657
11/22/2013  07:29:00       -7.330      -17.891       -2.521       11.061        7.284        7.498      122.348       53.057       56.224        0.031        0.012       19.335        4.110        0.045      330.345       -2.341      869.670
11/22/2013  07:30:00      -24.224      -24.261       -3.865        9.272       12.426        8.084       85.973      154.415       65.344        0.075        0.015       34.284        4.433        0.017      330.187       -2.601      869.704
11/22/2013  07:31:00      -18.644       -4.578       -5.823       12.630        7.365        5.241      159.519       54.242       27.465        0.032        0.012       19.197        5.442        0.080      330.259       -2.481      869.721
11/22/2013  07:32:00        2.129       21.257        3.132        8.439       13.945        8.930       71.214      194.462       79.747        0.041        0.017       21.364        6.253        0.086      330.342       -2.346      869.740
11/22/2013  07:33:00       15.679      146.453      -23.628       26.953       38.963       20.633      726.441     1518.116      425.718        1.246        0.134      147.290       11.586        0.006      329.907       -3.060      869.767
11/22/2013  07:34:00       -8.971      116.317      -17.396       14.283       25.965       10.508      204.014      674.163      110.411        0.745        0.049      116.662        7.542        0.004      330.007       -2.896      869.803
11/22/2013  07:35:00       -9.718       29.083      -12.742        9.697       25.521        6.855       94.037      651.325       46.991        0.095        0.040       30.663        7.237        0.056      330.280       -2.449      869.811
11/22/2013  07:36:00      -78.891      -27.157       -5.543       29.739       22.477        9.312      884.388      505.207       86.711        0.423        0.074       83.434       12.291        0.022      329.959       -2.974      869.780
11/22/2013  07:37:00      -27.683      -30.940        0.337       29.939       18.995       18.517      896.348      360.820      342.879        0.166        0.080       41.517       11.612        0.078      329.987       -2.928      869.767
11/22/2013  07:38:00      -27.890       -6.114        4.521       26.664       20.119       13.617      710.991      404.761      185.426        0.107        0.065       28.552       17.286        0.367      330.127       -2.698      869.772
11/22/2013  07:39:00      -16.590       27.610        8.954       21.592       17.393       14.082      466.215      302.529      198.309        0.104        0.048       32.211       17.528        0.296      330.197       -2.585      869.784
11/22/2013  07:40:00      -40.930       21.481       -6.579       11.241       10.692       12.063      126.357      114.329      145.521        0.128        0.019       46.225        8.577        0.034      330.091       -2.757      869.790
11/22/2013  07:41:00        9.000        4.360       19.163       20.230        7.617        9.407      409.261       58.013       88.496        0.051        0.028       10.001       11.262        1.268      330.498       -2.091      869.772
11/22/2013  07:42:00       -0.233        1.049        9.470       11.627        9.618        8.124      135.180       92.500       66.004        0.019        0.015        1.075        4.991       21.566      330.602       -1.920      869.759
11/22/2013  07:43:00      -47.604       -0.010       -3.139       24.107       11.501        8.741      581.169      132.280       76.408        0.153        0.039       47.604       10.578        0.049      330.330       -2.366      869.757
11/22/2013  07:44:00      -57.347      -13.266       -3.278       12.502       14.973        7.883      156.300      224.194       62.135        0.196        0.022       58.861        6.426        0.012      330.259       -2.482      869.744
11/22/2013  07:45:00      -38.535      -14.957        3.730       17.587       16.654       14.069      309.293      277.370      197.936        0.125        0.039       41.336       10.204        0.061      330.162       -2.643      869.739
11/22/2013  07:46:00      -39.325       -3.747       -5.288        9.286       12.315        7.976       86.227      151.649       63.610        0.094        0.015       39.503        4.656        0.014      330.250       -2.496      869.743
11/22/2013  07:47:00      -15.652        2.631        0.642        8.217        6.077        6.338       67.525       36.924       40.172        0.020        0.007       15.871        4.866        0.094      330.392       -2.265      869.752
11/22/2013  07:48:00       24.268       19.527       15.945       20.795       11.936       10.880      432.429      142.476      118.375        0.096        0.035       31.148        9.833        0.100      330.632       -1.871      869.775
11/22/2013  07:49:00       39.506       37.408       13.109       17.509       14.351       19.501      306.552      205.941      380.273        0.201        0.045       54.406        9.873        0.033      330.476       -2.128      869.792
11/22/2013  07:50:00       40.969       46.778       31.164       16.476       16.926       14.654      271.459      286.501      214.732        0.281        0.039       62.183       10.598        0.029      330.488       -2.107      869.787
11/22/2013  07:51:00        8.757        3.625       10.732       14.964        9.583       12.595      223.935       91.826      158.630        0.034        0.024        9.478        5.857        0.382      330.712       -1.740      869.770
11/22/2013  07:52:00      -42.252       -3.677       -1.733       15.197       16.074       15.887      230.948      258.383      252.397        0.127        0.037       42.412       10.653        0.063      330.474       -2.131      869.757
11/22/2013  07:53:00      -29.332      -12.921        3.535       13.681        9.841        8.857      187.176       96.844       78.444        0.070        0.018       32.052        7.373        0.053      330.574       -1.965      869.751
11/22/2013  07:54:00      -29.815      -12.061       -4.237       12.058        8.760        7.852      145.405       76.733       61.659        0.067        0.014       32.162        3.720        0.013      330.565       -1.981      869.745
11/22/2013  07:55:00      -14.169      -13.843        1.429       19.176       15.796       15.288      367.729      249.503      233.725        0.062        0.043       19.808        5.798        0.086      330.681       -1.791      869.732
11/22/2013  07:56:00      -49.662      -23.043       -4.691       16.297       11.999        8.464      265.585      143.971       71.645        0.175        0.024       54.747        7.424        0.018      330.524       -2.048      869.735
11/22/2013  07:57:00      -56.810      -15.633       -2.117       13.571       17.712       12.677      184.178      313.705      160.696        0.207        0.033       58.922        9.874        0.028      330.530       -2.039      869.740
11/22/2013  07:58:00      -50.528       -7.110       -8.472       19.116       11.868       13.696      365.431      140.846      187.569        0.168        0.035       51.026        7.511        0.022      330.577       -1.961      869.756
11/22/2013  07:59:00      -29.771       19.471       -9.724       21.280       14.449        9.550      452.843      208.763       91.209        0.106        0.038       35.573        3.345        0.009      330.666       -1.816      869.776
11/22/2013  08:00:00      -48.912       10.794       -9.996        8.645        9.291        7.132       74.734       86.321       50.864        0.141        0.011       50.089        5.635        0.013      330.561       -1.985      869.793
11/22/2013  08:01:00      -61.871       -0.858      -14.289       10.411       14.910        9.307      108.399      222.298       86.619        0.223        0.021       61.877        4.399        0.005      330.609       -1.909      869.779
11/22/2013  08:02:00      -84.872      -33.445       -9.765       30.783       21.866       13.479      947.607      478.109      181.676        0.501        0.080       91.224       15.137        0.028      330.665       -1.816      869.749
11/22/2013  08:03:00      -84.095      -54.839       -8.830       15.329       10.304       11.403      234.975      106.181      130.023        0.531        0.024      100.396        5.797        0.003      330.683       -1.787      869.755
11/22/2013  08:04:00      -63.918        8.682       -7.388       27.493       24.045       14.357      755.871      578.186      206.121        0.288        0.077       64.505       15.898        0.061      330.653       -1.836      869.773
11/22/2013  08:05:00      -42.743        2.308       -1.153       29.104       13.300       12.476      847.037      176.897      155.639        0.151        0.059       42.805       14.620        0.117      330.834       -1.538      869.789
11/22/2013  08:06:00      -17.235        8.988        3.569       18.381       11.781        9.944      337.880      138.782       98.884        0.048        0.029       19.437        5.815        0.090      330.985       -1.291      869.808
11/22/2013  08:07:00      -25.209      -15.517        1.350       14.975       14.752       13.235      224.263      217.607      175.172        0.075        0.031       29.602       11.400        0.148      330.962       -1.328      869.829
11/22/2013  08:08:00       -4.559       -1.733       13.304        6.882        6.633        6.061       47.357       43.996       36.739        0.016        0.006        4.877        4.041        0.686      331.431       -0.560      869.864
11/22/2013  08:09:00       -3.131        1.214       11.645        8.547        5.946        5.550       73.044       35.354       30.806        0.014        0.007        3.358        4.253        1.604      331.558       -0.348      869.882
11/22/2013  08:10:00      -22.646       -9.456       -4.169       10.019        7.288        8.828      100.390       53.109       77.939        0.043        0.012       24.541        5.768        0.055      331.061       -1.167      869.869
11/22/2013  08:11:00      -53.592      -18.017      -10.270       12.022       10.015       10.279      144.534      100.295      105.666        0.183        0.018       56.539        4.517        0.006      330.937       -1.370      869.838
11/22/2013  08:12:00      -61.410      -14.958       -3.544       12.333       10.347       10.086      152.107      107.059      101.737        0.218        0.018       63.206        7.845        0.015      330.908       -1.417      869.828
11/22/2013  08:13:00      -62.094      -10.697       -3.615        9.990       19.834        6.326       99.803      393.385       40.013        0.226        0.027       63.009        5.102        0.007      330.914       -1.406      869.838
11/22/2013  08:14:00      -35.078        9.333        0.026       18.385       13.939        8.964      338.015      194.303       80.351        0.096        0.031       36.298        2.823        0.006      331.010       -1.250      869.877
11/22/2013  08:15:00       -7.398       14.075       12.640       15.314       15.573       12.939      234.522      242.515      167.431        0.053        0.032       15.901       11.473        0.521      331.498       -0.448      869.903
11/22/2013  08:16:00      -37.538       18.010      -10.529       11.920       17.669       10.776      142.076      312.195      116.113        0.121        0.029       41.635       11.262        0.073      331.028       -1.222      869.899
11/22/2013  08:17:00      -43.895        2.113       -7.172       13.102        7.381        7.285      171.654       54.485       53.069        0.113        0.014       43.946        3.876        0.008      331.110       -1.087      869.887
11/22/2013  08:18:00      -27.230       -7.910       -1.567       10.507       11.676        6.751      110.401      136.326       45.579        0.055        0.015       28.356        3.844        0.018      331.230       -0.889      869.880
11/22/2013  08:19:00      -15.278      -30.365       22.471       18.766       37.511       27.459      352.178     1407.070      754.020        0.209        0.126       33.992       15.449        0.207      331.451       -0.526      869.876
11/22/2013  08:20:00        7.146        1.181       39.042       24.279       27.578       25.174      589.476      760.527      633.749        0.178        0.099        7.243       16.883        5.434      331.916        0.239      869.872
11/22/2013  08:21:00      -24.599       13.346       29.440       22.996       29.653       22.699      528.826      879.320      515.254        0.179        0.096       27.986       21.373        0.583      331.619       -0.248      869.878
11/22/2013  08:22:00      -36.612       18.435        5.288       14.245       10.524       14.849      202.909      110.764      220.496        0.112        0.027       40.992        5.953        0.021      331.384       -0.633      869.885
11/22/2013  08:23:00        0.525        3.713        4.260       24.163       11.033       17.644      583.871      121.736      311.324        0.052        0.051        3.750       10.809        8.310      331.743       -0.043      869.894
11/22/2013  08:24:00       29.389       37.817       39.513       24.085       35.713       32.222      580.081     1275.410     1038.286        0.337        0.145       47.894       21.376        0.199      331.717       -0.089      869.907
11/22/2013  08:25:00       -6.677        9.103       49.444       14.349       23.450       16.957      205.885      549.895      287.527        0.181        0.052       11.289       13.146        1.356      332.022        0.416      869.915
11/22/2013  08:26:00       20.474      -25.325       15.183       29.856       46.041       32.112      891.382     2119.810     1031.203        0.267        0.202       32.566       29.338        0.812      331.755       -0.025      869.907
11/22/2013  08:27:00        9.572        6.362       37.410       24.586       29.713       26.324      604.481      882.876      692.969        0.186        0.109       11.494       13.656        1.412      331.967        0.324      869.909
11/22/2013  08:28:00        6.036       27.029       47.298       24.500       25.139       13.292      600.255      631.970      176.682        0.221        0.070       27.695       13.155        0.226      331.824        0.090      869.909
11/22/2013  08:29:00       -9.134       22.615       38.735       11.891       23.860       16.892      141.400      569.292      285.330        0.155        0.050       24.390        9.299        0.145      332.060        0.478      869.908
11/22/2013  08:30:00       48.342      -40.967       -3.142       48.743       77.314       31.686     2375.849     5977.419     1003.998        0.669        0.468       63.366       42.553        0.451      331.617       -0.253      869.913
11/22/2013  08:31:00      -12.667       38.564       81.510       23.569       36.255       28.564      555.478     1314.456      815.895        0.549        0.134       40.591       29.704        0.536      331.770        0.000      869.904
11/22/2013  08:32:00       35.542      -54.010       15.196       50.286       78.262       45.782     2528.671     6124.941     2096.008        0.758        0.537       64.655       57.845        0.800      331.623       -0.242      869.911
11/22/2013  08:33:00      -39.962       -4.581       20.960       38.097       42.279       34.411     1451.360     1787.552     1184.098        0.324        0.221       40.223       21.854        0.295      331.628       -0.236      869.910
11/22/2013  08:34:00      -17.603        3.546       -0.558       16.158       18.547       18.078      261.089      343.990      326.807        0.063        0.047       17.957       13.186        0.539      331.743       -0.046      869.906
11/22/2013  08:35:00       -5.501       17.700       30.356       12.014       19.356       17.707      144.330      374.645      313.529        0.105        0.042       18.536       11.681        0.397      332.122        0.580      869.908
11/22/2013  08:36:00       -7.107        4.048       36.950       20.479       26.826       23.230      419.376      719.656      539.640        0.156        0.084        8.179       17.474        4.564      332.132        0.596      869.926
11/22/2013  08:37:00        2.409       -0.871       54.849       22.690       41.502       23.086      514.851     1722.406      532.966        0.289        0.139        2.562       19.998       60.943      332.169        0.657      869.961
11/22/2013  08:38:00       26.162        5.514       41.679       42.919       67.524       45.523     1842.033     4559.502     2072.361        0.546        0.424       26.737       45.972        2.956      331.778        0.013      869.986
11/22/2013  08:39:00       50.434       20.440       50.055       53.992       55.826       49.447     2915.187     3116.556     2445.021        0.697        0.424       54.418       47.506        0.762      331.742       -0.047      869.987
11/22/2013  08:40:00       25.736       54.048       62.630       35.341       58.085       45.253     1248.979     3373.845     2047.865        0.709        0.334       59.863       44.682        0.557      331.664       -0.175      869.978
11/22/2013  08:41:00       72.695     -119.993      -25.350       45.113       49.240       31.553     2035.163     2424.577      995.591        1.289        0.273      140.296       19.020        0.018      331.723       -0.078      869.980
11/22/2013  08:42:00       20.074       -5.311       21.344       38.160       40.821       41.005     1456.201     1666.389     1681.429        0.284        0.240       20.764       14.143        0.464      332.014        0.402      869.999
11/22/2013  08:43:00        0.450       16.506       59.698       26.723       44.043       21.951      714.139     1939.781      481.846        0.349        0.157       16.513       25.898        2.460      332.100        0.545      870.007
11/22/2013  08:44:00       16.464       11.757       56.218       28.606       34.640       24.571      818.282     1199.912      603.752        0.310        0.131       20.231       17.640        0.760      332.088        0.524      870.016
11/22/2013  08:45:00        1.187       15.284       56.434       24.002       65.402       33.598      576.116     4277.415     1128.847        0.470        0.299       15.330       37.435        5.963      331.991        0.363      870.031
11/22/2013  08:46:00       20.525      -42.644       -3.195       32.343       37.901       28.662     1046.038     1436.480      821.526        0.278        0.165       47.326       21.245        0.202      331.933        0.268      870.028
11/22/2013  08:47:00       12.564      -66.247       20.620       29.921       40.758       35.138      895.269     1661.251     1234.687        0.438        0.190       67.428       16.688        0.061      331.970        0.330      870.031
11/22/2013  08:48:00       44.567      -87.903        4.936       37.944       53.032       37.574     1439.778     2812.365     1411.776        0.770        0.283       98.555       26.897        0.074      331.976        0.338      870.051
11/22/2013  08:49:00       46.479       -1.226       49.801       38.897       69.223       41.760     1512.992     4791.769     1743.921        0.634        0.402       46.495       35.813        0.593      331.935        0.270      870.060
11/22/2013  08:50:00       29.850       28.458       30.223       35.363       38.069       33.273     1250.538     1449.245     1107.123        0.321        0.190       41.242       25.014        0.368      331.875        0.174      870.036
11/22/2013  08:51:00       15.503      -30.543       41.590       30.283       40.069       30.276      917.051     1605.545      916.615        0.317        0.172       34.252       26.463        0.597      332.239        0.773      870.019
11/22/2013  08:52:00       12.269       -6.383       30.780       23.339       64.065       31.787      544.703     4104.378     1010.387        0.340        0.283       13.830       39.793        8.279      332.250        0.789      869.995
11/22/2013  08:53:00       -2.335       24.730       44.697       14.042       24.824       15.907      197.189      616.228      253.038        0.184        0.053       24.840       13.381        0.290      332.408        1.052      869.982
11/22/2013  08:54:00      -10.176       17.637       11.050       15.110       19.029       13.979      228.308      362.115      195.416        0.066        0.039       20.362        5.508        0.073      332.060        0.478      869.976
11/22/2013  08:55:00      -25.498      -12.794        6.369       18.008       10.991       11.664      324.302      120.799      136.054        0.072        0.029       28.528       11.497        0.162      332.018        0.408      869.971
11/22/2013  08:56:00      -36.006      -32.997        0.754       14.014       24.809       11.659      196.391      615.491      135.942        0.167        0.047       48.839       13.487        0.076      331.867        0.158      869.968
11/22/2013  08:57:00       -1.305      -13.674        9.817       23.291       21.654       20.928      542.467      468.912      437.969        0.087        0.072       13.736       19.682        2.053      332.133        0.597      869.967
11/22/2013  08:58:00        4.216      -15.596       17.990       20.159       27.211       19.092      406.402      740.419      364.500        0.105        0.076       16.156       14.966        0.858      332.233        0.764      869.970
11/22/2013  08:59:00      -20.256        7.772       14.324       21.520       17.133       12.536      463.094      293.544      157.149        0.079        0.046       21.696        8.955        0.170      332.122        0.578      869.985
11/22/2013  09:00:00       -3.918        4.590       23.054        8.499       11.286       12.430       72.229      127.377      154.506        0.046        0.018        6.035        6.665        1.220      332.567        1.313      869.964
11/22/2013  09:01:00      -14.415        2.392       14.830       12.425        9.103       10.520      154.373       82.864      110.676        0.039        0.017       14.612        9.161        0.393      332.598        1.366      869.932
11/22/2013  09:02:00        0.124      -39.358       18.305       29.240       52.013       27.245      854.988     2705.342      742.305        0.309        0.215       39.358       28.326        0.518      332.575        1.327      869.918
11/22/2013  09:03:00       50.687      -21.324       16.897       33.139       66.303       44.682     1098.221     4396.149     1996.467        0.540        0.375       54.990       43.462        0.625      332.406        1.049      869.921
11/22/2013  09:04:00       37.180      -14.089       27.165       38.043       63.076       35.584     1447.248     3978.630     1266.190        0.450        0.335       39.759       38.494        0.937      332.382        1.010      869.926
11/22/2013  09:05:00      -14.293       23.213       58.107       21.225       28.798       19.546      450.484      829.300      382.028        0.289        0.083       27.260       16.940        0.386      332.785        1.674      869.939
11/22/2013  09:06:00      -15.899        1.941       24.459       18.408       26.589       19.303      338.848      706.984      372.597        0.114        0.071       16.017       11.851        0.547      332.542        1.272      869.948
11/22/2013  09:07:00       13.472      -38.692       19.094       31.001       43.039       30.034      961.051     1852.335      902.065        0.288        0.186       40.970       31.674        0.598      332.689        1.516      869.964
11/22/2013  09:08:00       10.084       17.894       39.698       36.642       42.757       30.216     1342.651     1828.197      912.998        0.304        0.204       20.539       22.364        1.186      332.374        0.995      869.974
11/22/2013  09:09:00        1.052        2.330       33.382       24.478       43.464       30.253      599.153     1889.122      915.230        0.226        0.170        2.556       29.299      131.366      332.713        1.555      869.992
11/22/2013  09:10:00       37.675       69.911       72.534       50.395       38.855       21.010     2539.621     1509.726      441.413        0.803        0.225       79.416       15.410        0.038      332.460        1.137      870.000
11/22/2013  09:11:00       30.750       38.943       37.589       37.785       33.083       26.136     1427.696     1094.463      683.107        0.354        0.160       49.620       18.297        0.136      332.472        1.156      869.981
11/22/2013  09:12:00       16.265      -37.250       26.472       34.515       47.807       29.881     1191.261     2285.474      892.888        0.336        0.218       40.647       23.992        0.348      332.764        1.637      869.964
11/22/2013  09:13:00       61.646       15.332       46.360       36.128       33.333       35.914     1305.208     1111.120     1289.817        0.494        0.185       63.524       27.065        0.182      332.584        1.342      869.984
11/22/2013  09:14:00      106.711      102.864       65.413       68.121       41.883       40.850     4640.509     1754.217     1668.732        1.715        0.403      148.217       34.336        0.054      332.270        0.822      870.002
11/22/2013  09:15:00      122.835       94.624       28.008       51.186       39.537       53.590     2620.020     1563.137     2871.861        1.594        0.353      155.055       37.807        0.059      332.101        0.546      870.002
11/22/2013  09:16:00      127.664       91.189       21.032       57.006       30.841       49.600     3249.697      951.170     2460.198        1.586        0.333      156.888       24.941        0.025      332.162        0.646      869.978
11/22/2013  09:17:00      113.490      117.770       92.081       51.695       33.368       41.634     2672.344     1113.420     1733.411        2.037        0.276      163.554       30.933        0.036      332.354        0.961      869.970
11/22/2013  09:18:00      101.879      102.439       75.701       70.779       37.613       40.394     5009.707     1414.742     1631.699        1.733        0.403      144.475       43.439        0.090      332.114        0.566      869.986
11/22/2013  09:19:00      127.378      133.427       86.214       47.924       39.980       41.020     2296.699     1598.437     1682.652        2.352        0.279      184.466       33.727        0.033      332.220        0.740      870.000
11/22/2013  09:20:00       98.510       62.091       44.650       57.225       49.854       54.142     3274.700     2485.451     2931.311        1.212        0.435      116.445       42.118        0.131      332.289        0.853      869.997
11/22/2013  09:21:00       54.104       83.398       82.064       53.777       48.772       32.913     2891.966     2378.680     1083.286        1.148        0.318       99.411       22.137        0.050      332.426        1.080      869.973
11/22/2013  09:22:00       -1.477       88.574      106.643       29.209       66.754       50.427      853.165     4456.131     2542.899        1.353        0.393       88.586       53.901        0.370      332.423        1.076      869.942
11/22/2013  09:23:00       28.764       67.982       96.069       30.593       65.512       33.108      935.950     4291.798     1096.131        1.050        0.316       73.817       41.562        0.317      332.476        1.165      869.924
11/22/2013  09:24:00       32.918       45.749       59.200       46.539       38.034       30.462     2165.904     1446.577      927.909        0.561        0.227       56.361       21.761        0.149      332.729        1.581      869.892
11/22/2013  09:25:00      108.533       92.116       66.462       56.603       47.471       48.133     3203.929     2253.466     2316.740        1.623        0.389      142.355       40.612        0.081      332.530        1.251      869.868
11/22/2013  09:26:00       21.201       46.865       74.418       41.137       59.386       31.495     1692.267     3526.706      991.905        0.720        0.311       51.438       27.251        0.281      332.766        1.641      869.873
11/22/2013  09:27:00       93.717      108.725       91.382       64.631       44.578       57.589     4177.124     1987.168     3316.447        1.922        0.474      143.541       47.521        0.110      332.304        0.878      869.890
11/22/2013  09:28:00       70.310       99.690       83.289       61.690       56.385       50.357     3805.609     3179.316     2535.809        1.567        0.476      121.990       49.339        0.164      332.252        0.794      869.907
11/22/2013  09:29:00       87.529       95.472       85.380       54.755       52.711       54.426     2998.074     2778.403     2962.192        1.640        0.437      129.523       44.031        0.116      332.317        0.901      869.923
11/22/2013  09:30:00       85.249       77.270       70.231       78.927       82.458       64.514     6229.538     6799.354     4162.069        1.768        0.860      115.057       65.292        0.322      332.342        0.941      869.907
11/22/2013  09:31:00       63.172      -24.975       58.232       53.370      108.437       60.982     2848.375    11758.541     3718.821        1.316        0.916       67.930       76.371        1.264      332.476        1.164      869.891
11/22/2013  09:32:00       34.715       13.071       75.873       51.856       67.036       53.338     2689.036     4493.771     2844.951        0.858        0.501       37.094       43.855        1.398      332.932        1.916      869.877
11/22/2013  09:33:00       28.701       21.860       74.218       53.289       68.061       41.629     2839.749     4632.282     1732.942        0.801        0.460       36.078       20.235        0.315      333.000        2.028      869.886
11/22/2013  09:34:00       25.037       -9.274       50.348       31.979       91.238       59.140     1022.664     8324.409     3497.540        0.804        0.642       26.699       65.892        6.091      332.659        1.465      869.900
11/22/2013  09:35:00       91.041       90.582       83.520       72.232       76.642       42.224     5217.416     5874.014     1782.882        1.817        0.644      128.427       48.359        0.142      332.460        1.136      869.894
11/22/2013  09:36:00       26.579       85.742       92.276       49.840       52.373       42.363     2484.028     2742.914     1794.615        1.180        0.351       89.767       41.740        0.216      332.579        1.334      869.887
11/22/2013  09:37:00       69.753      105.241       97.168       40.294       41.295       41.546     1623.576     1705.277     1726.045        1.522        0.253      126.258       27.489        0.047      332.475        1.161      869.887
11/22/2013  09:38:00       43.111       48.811       91.842       47.495       77.432       34.834     2255.772     5995.670     1213.413        1.107        0.473       65.124       42.876        0.433      332.760        1.633      869.870
11/22/2013  09:39:00       18.013       15.509       53.792       39.825       74.082       38.169     1586.069     5488.097     1456.879        0.599        0.427       23.769       33.187        1.949      332.990        2.013      869.866
11/22/2013  09:40:00       29.652       15.639       64.675       62.621       69.722       56.558     3921.414     4861.173     3198.791        0.864        0.599       33.524       56.449        2.835      333.022        2.064      869.875
11/22/2013  09:41:00       17.815       68.615      104.328       48.480       53.049       30.933     2350.302     2814.212      956.843        1.101        0.306       70.890       22.933        0.105      332.944        1.937      869.889
11/22/2013  09:42:00       60.694      -41.069       29.325       55.233      130.255       77.554     3050.666    16966.466     6014.640        1.613        1.302       73.284       98.089        1.792      332.679        1.499      869.894
11/22/2013  09:43:00       50.716      -31.654       25.285       51.624       49.574       42.210     2665.056     2457.607     1781.681        0.556        0.345       59.784       39.980        0.447      333.113        2.216      869.907
11/22/2013  09:44:00       44.434       34.728       87.495       50.601       36.875       28.141     2560.502     1359.752      791.908        0.777        0.236       56.396       18.154        0.104      333.136        2.253      869.908
11/22/2013  09:45:00       39.859       68.395       82.443       50.251       57.908       39.198     2525.173     3353.358     1536.480        1.024        0.371       79.161       35.929        0.206      332.868        1.810      869.890
11/22/2013  09:46:00       37.342       29.636       62.219       51.388       69.555       41.434     2640.712     4837.930     1716.743        0.767        0.460       47.673       45.396        0.907      332.990        2.012      869.873
11/22/2013  09:47:00       36.763        7.799       71.698       62.302       63.977       42.625     3881.500     4093.100     1816.878        0.817        0.490       37.581       40.925        1.186      333.361        2.625      869.880
11/22/2013  09:48:00       32.901      -31.288       42.374       45.652       68.115       52.379     2084.124     4639.672     2743.563        0.666        0.473       45.403       48.226        1.128      333.287        2.503      869.866
11/22/2013  09:49:00       79.473      -50.331       32.404       56.858       92.069       63.269     3232.820     8476.720     4002.962        1.280        0.786       94.070       67.889        0.521      332.997        2.024      869.850
11/22/2013  09:50:00       57.245       28.580       75.716       63.973       88.284       48.493     4092.536     7794.024     2351.598        1.203        0.712       63.983       55.810        0.761      332.941        1.931      869.835
11/22/2013  09:51:00       89.348       26.655       31.478       81.924       64.526       39.160     6711.476     4163.609     1533.540        1.104        0.620       93.239       27.666        0.088      332.870        1.812      869.823
11/22/2013  09:52:00       57.496       21.733       74.826       74.123       78.706       50.050     5494.235     6194.652     2505.003        1.178        0.710       61.467       51.978        0.715      333.122        2.229      869.797
11/22/2013  09:53:00       55.659       32.008       49.500       42.332       63.385       52.835     1792.028     4017.721     2791.569        0.759        0.430       64.206       47.443        0.546      332.927        1.908      869.766
11/22/2013  09:54:00       50.864       79.986       83.658       50.409       55.492       42.032     2541.069     3079.340     1766.692        1.168        0.369       94.789       36.752        0.150      332.863        1.802      869.721
11/22/2013  09:55:00       32.340      -23.024       41.590       51.012       76.423       52.297     2602.273     5840.493     2734.926        0.724        0.559       39.699       51.562        1.687      333.109        2.208      869.702
11/22/2013  09:56:00       23.806       -9.315       39.462       56.118       61.537       40.645     3149.176     3786.835     1652.049        0.540        0.429       25.564       39.469        2.384      333.098        2.191      869.666
11/22/2013  09:57:00       25.618       -8.755       32.778       36.474       56.423       29.882     1330.381     3183.530      892.911        0.361        0.270       27.073       34.303        1.605      333.426        2.732      869.639
11/22/2013  09:58:00        8.847      -15.635       34.381       32.084       45.558       31.849     1029.360     2075.551     1014.344        0.281        0.206       17.965       26.312        2.145      333.475        2.815      869.626
11/22/2013  09:59:00       19.126      -27.150       33.188       51.474       53.987       35.816     2649.542     2914.643     1282.756        0.452        0.342       33.210       40.797        1.509      333.386        2.668      869.610
11/22/2013  10:00:00        1.111      -37.574       43.906       37.767       70.717       40.475     1426.334     5000.854     1638.224        0.570        0.403       37.590       32.783        0.761      333.449        2.771      869.586
11/22/2013  10:01:00       18.816      -63.947       20.091       29.807       71.894       38.658      888.459     5168.724     1494.475        0.620        0.378       66.657       26.246        0.155      333.367        2.636      869.572
11/22/2013  10:02:00       -3.147       32.751       58.797       40.471       41.427       38.041     1637.939     1716.231     1447.084        0.467        0.240       32.902       28.680        0.760      333.588        3.001      869.571
11/22/2013  10:03:00       71.137       86.179       72.025       66.353       41.063       43.595     4402.768     1686.166     1900.524        1.283        0.399      111.746       32.890        0.087      333.068        2.140      869.581
11/22/2013  10:04:00       49.660       21.495       19.925       57.494       42.946       44.307     3305.593     1844.351     1963.107        0.522        0.356       54.113       30.770        0.323      333.103        2.198      869.619
11/22/2013  10:05:00       30.693       34.751       65.150       53.845       81.977       49.125     2899.313     6720.268     2413.291        0.921        0.602       46.365       55.060        1.410      333.608        3.034      869.648
11/22/2013  10:06:00       -2.675       53.200       88.782       45.509       50.686       42.924     2071.113     2569.121     1842.428        0.860        0.324       53.267       42.038        0.623      333.500        2.856      869.678
11/22/2013  10:07:00      116.582       67.034       63.984       63.102       73.591       53.212     3981.900     5415.610     2831.558        1.720        0.611      134.480       48.981        0.133      333.209        2.373      869.699
11/22/2013  10:08:00       85.088       40.540       49.814       72.370       57.284       48.481     5237.455     3281.511     2350.379        1.111        0.543       94.252       27.728        0.087      333.379        2.653      869.680
11/22/2013  10:09:00       13.736      -16.002       44.506       42.079       61.926       42.011     1770.644     3834.836     1764.937        0.490        0.369       21.089       33.522        2.527      333.710        3.203      869.665
11/22/2013  10:10:00       61.536      -74.657        4.617       68.669       53.671       55.994     4715.452     2880.561     3135.279        1.005        0.537       96.749       54.871        0.322      333.401        2.693      869.654
11/22/2013  10:11:00       -6.546      -51.709       36.111       38.069       86.750       37.408     1449.277     7525.534     1399.352        0.720        0.519       52.122       44.429        0.727      333.675        3.145      869.677
11/22/2013  10:12:00       47.979     -134.947       -5.886       58.452       54.787       44.486     3416.606     3001.634     1978.968        1.447        0.420      143.223       48.190        0.113      333.208        2.372      869.696
11/22/2013  10:13:00       29.399       24.840       65.181       47.830       77.964       44.857     2287.727     6078.398     2012.124        0.805        0.519       38.488       41.215        1.147      333.531        2.907      869.709
11/22/2013  10:14:00       75.661       66.636       86.821       55.177       85.655       51.078     3044.517     7336.839     2608.963        1.534        0.650      100.821       56.972        0.319      333.318        2.554      869.696
11/22/2013  10:15:00       50.651       -1.781       34.301       43.986       68.882       50.536     1934.767     4744.786     2553.921        0.649        0.462       50.682       43.026        0.721      333.432        2.743      869.695
11/22/2013  10:16:00       40.818      -30.259       39.527       71.779      113.679       66.243     5152.187    12922.990     4388.128        1.330        1.123       50.811       78.482        2.386      333.614        3.044      869.681
11/22/2013  10:17:00       30.551      161.987      164.780       71.010       82.380       46.703     5042.366     6786.385     2181.149        3.416        0.700      164.843       51.463        0.097      333.167        2.302      869.690
11/22/2013  10:18:00       66.179       -3.972       56.898       92.674       93.835       58.398     8588.518     8804.949     3410.301        1.421        1.040       66.298       76.459        1.330      333.380        2.655      869.703
11/22/2013  10:19:00       54.601       26.906       57.003       66.066       46.066       49.114     4364.661     2122.109     2412.222        0.792        0.445       60.870       39.251        0.416      333.596        3.013      869.700
11/22/2013  10:20:00      137.075       18.110       64.662      100.568       62.320       54.695    10113.938     3883.822     2991.559        2.014        0.849      138.266       58.226        0.177      333.241        2.426      869.706
11/22/2013  10:21:00       67.999       46.890       59.753       62.417       53.385       49.885     3895.916     2849.966     2488.480        0.981        0.462       82.599       38.532        0.218      333.463        2.793      869.699
11/22/2013  10:22:00       64.303       28.397       57.464       66.083      120.867       57.470     4367.021    14608.939     3302.823        1.526        1.114       70.294       69.657        0.982      333.491        2.839      869.660
11/22/2013  10:23:00       79.213      -78.465        7.470       78.559       93.181       62.202     6171.455     8682.769     3869.085        1.560        0.936      111.497       60.941        0.299      333.611        3.039      869.634
11/22/2013  10:24:00      136.429     -137.958      -37.207       66.196       84.549       47.485     4381.926     7148.479     2254.838        2.640        0.689      194.024       39.740        0.042      333.326        2.565      869.621
11/22/2013  10:25:00      101.682     -116.195      -27.299       65.150       65.763       42.075     4244.483     4324.826     1770.277        1.746        0.517      154.404       35.230        0.052      333.400        2.690      869.611
11/22/2013  10:26:00      120.136     -140.215      -18.961       81.859       83.384       54.255     6700.856     6952.892     2943.628        2.552        0.830      184.643       58.578        0.101      333.348        2.603      869.604
11/22/2013  10:27:00      106.769     -125.315       -7.918       73.716       80.927       51.639     5434.067     6549.159     2666.589        2.091        0.732      164.632       56.870        0.119      333.423        2.726      869.602
11/22/2013  10:28:00      100.412      -87.907        5.063       63.691       85.320       49.686     4056.599     7279.455     2468.747        1.582        0.690      133.455       60.617        0.206      333.637        3.081      869.611
11/22/2013  10:29:00       15.637       57.836       96.505       43.816       62.478       34.364     1919.816     3903.443     1180.907        0.995        0.350       59.913       36.292        0.367      333.869        3.466      869.596
11/22/2013  10:30:00       81.348     -108.804        8.230       82.224      107.830       54.555     6760.777    11627.409     2976.284        1.994        1.068      135.853       68.144        0.252      333.471        2.805      869.581
11/22/2013  10:31:00       16.323      -88.622        7.935       51.956       62.834       47.767     2699.417     3948.053     2281.725        0.855        0.446       90.113       28.447        0.100      333.726        3.229      869.533
11/22/2013  10:32:00       34.194      -37.412       30.039       52.458      112.376       55.573     2751.861    12628.430     3088.319        1.097        0.923       50.684       69.756        1.894      333.974        3.641      869.502
11/22/2013  10:33:00      118.903       66.255       42.641       77.820       57.873       60.661     6055.977     3349.260     3679.707        1.671        0.654      136.116       49.068        0.130      333.595        3.011      869.503
11/22/2013  10:34:00      179.772      127.417       21.278       53.008       43.361       48.793     2809.853     1880.210     2380.765        2.804        0.354      220.348       31.004        0.020      333.367        2.632      869.497
11/22/2013  10:35:00      110.117       87.652       98.562       71.743       83.075       59.140     5147.056     6901.468     3497.574        2.253        0.777      140.743       42.402        0.091      333.567        2.965      869.468
11/22/2013  10:36:00       16.693      142.890      138.485       53.154       58.125       45.302     2825.381     3378.525     2052.284        2.406        0.413      143.862       44.180        0.094      333.576        2.979      869.445
11/22/2013  10:37:00      105.265      134.094      134.766       80.053       56.532       58.704     6408.423     3195.824     3446.107        3.013        0.653      170.476       53.961        0.100      333.463        2.793      869.437
11/22/2013  10:38:00      136.571      106.117       90.868       66.659       63.929       63.291     4443.364     4086.865     4005.805        2.535        0.627      172.952       47.632        0.076      333.382        2.657      869.419
11/22/2013  10:39:00       91.147      128.503       98.464       67.752       63.218       55.406     4590.367     3996.478     3069.798        2.308        0.583      157.546       45.452        0.083      333.433        2.744      869.409
11/22/2013  10:40:00       84.386      144.457      109.546       59.803       51.601       42.899     3576.348     2662.659     1840.357        2.403        0.404      167.298       28.757        0.030      333.559        2.952      869.404
11/22/2013  10:41:00      107.938      114.004       91.726       82.549       40.493       53.630     6814.375     1639.648     2876.181        2.219        0.567      156.995       40.751        0.067      333.431        2.741      869.399
11/22/2013  10:42:00       65.107       63.122       51.578       46.042       46.978       38.267     2119.849     2206.956     1464.381        0.834        0.290       90.682       23.480        0.067      333.559        2.953      869.410
11/22/2013  10:43:00       23.786       96.376      119.200       55.046       56.191       45.246     3030.029     3157.427     2047.170        1.615        0.412       99.268       46.842        0.223      333.731        3.239      869.380
11/22/2013  10:44:00       72.765      116.519      100.937       70.889       44.316       50.536     5025.268     1963.942     2553.892        1.930        0.477      137.373       42.797        0.097      333.538        2.917      869.349
11/22/2013  10:45:00      124.217      109.385       73.126       47.027       46.468       54.424     2211.505     2159.255     2962.002        2.004        0.367      165.514       33.644        0.041      333.478        2.818      869.324
11/22/2013  10:46:00       43.298       76.345        9.654       33.601       21.621       33.627     1129.047      467.460     1130.783        0.526        0.136       87.768       17.573        0.040      333.401        2.691      869.290
11/22/2013  10:47:00       56.636       55.945        8.431       40.391       35.970       33.412     1631.422     1293.828     1116.347        0.522        0.202       79.608       30.093        0.143      333.642        3.091      869.266
11/22/2013  10:48:00       40.917      -54.150       11.977       50.513       42.741       39.599     2551.601     1826.803     1568.105        0.535        0.297       67.871       27.448        0.164      333.863        3.458      869.270
11/22/2013  10:49:00      -49.746      -35.741       -6.463       47.957       34.764       27.637     2299.876     1208.555      763.808        0.403        0.214       61.254       19.293        0.099      333.739        3.252      869.227
11/22/2013  10:50:00        4.620       -1.514       18.124       14.952       26.400       19.059      223.567      696.967      363.261        0.082        0.064        4.862        9.060        3.472      334.315        4.208      869.186
11/22/2013  10:51:00        7.991       19.496        8.485       20.850       17.205       17.871      434.705      296.018      319.366        0.078        0.053       21.070       13.126        0.388      334.231        4.069      869.155
11/22/2013  10:52:00       31.799       62.327       42.409       49.495       45.687       53.237     2449.739     2087.323     2834.190        0.703        0.369       69.970       29.322        0.176      334.096        3.843      869.113
11/22/2013  10:53:00       41.079       36.114       75.373       50.041       83.373       48.336     2504.135     6951.011     2336.353        1.023        0.590       54.697       50.881        0.865      334.017        3.711      869.087
11/22/2013  10:54:00       24.153       63.708       81.360       48.779       51.344       37.584     2379.396     2636.221     1412.546        0.884        0.321       68.133       35.901        0.278      334.129        3.897      869.077
11/22/2013  10:55:00      152.395      121.552       56.076       69.993       45.353       52.160     4899.030     2056.932     2720.690        2.541        0.484      194.934       41.408        0.045      333.765        3.291      869.048
11/22/2013  10:56:00      112.816       82.542       15.476       58.902       47.005       45.084     3469.415     2209.439     2032.525        1.374        0.386      139.788       19.198        0.019      333.794        3.341      869.024
11/22/2013  10:57:00       28.897        4.120       43.997       51.634       71.451       44.982     2666.108     5105.184     2023.386        0.629        0.490       29.189       33.352        1.306      334.361        4.282      869.019
11/22/2013  10:58:00       76.258       22.832       51.991       58.002       91.852       60.345     3364.224     8436.751     3641.549        1.224        0.772       79.603       26.591        0.112      333.947        3.595      869.018
11/22/2013  10:59:00       78.781       80.594       76.435       74.389       59.145       55.777     5533.723     3498.109     3111.037        1.534        0.607      112.702       31.728        0.079      333.929        3.566      869.022
11/22/2013  11:00:00       32.266       28.803       75.828       70.666       87.798       46.389     4993.709     7708.569     2151.974        1.123        0.743       43.251       51.527        1.419      334.108        3.862      869.010
11/22/2013  11:01:00      137.144     -174.634      -27.294       84.503      104.998       50.901     7140.774    11024.595     2590.884        3.540        1.038      222.049       56.429        0.065      333.924        3.555      868.988
11/22/2013  11:02:00       80.228       17.492       75.214       74.595      136.101       86.122     5564.407    18523.557     7417.059        2.195        1.575       82.113       99.075        1.456      334.027        3.727      868.943
11/22/2013  11:03:00      141.956     -136.477      -36.564       95.989      127.720       75.106     9213.953    16312.386     5640.893        3.563        1.558      196.920       71.548        0.132      333.954        3.606      868.903
11/22/2013  11:04:00      103.389     -101.604      -13.469       90.978      109.621       60.496     8276.919    12016.707     3659.766        2.257        1.198      144.958       75.744        0.273      333.859        3.448      868.891
11/22/2013  11:05:00       39.008       22.172       66.691       54.677       79.478       53.102     2989.583     6316.771     2819.810        0.929        0.606       44.869       58.377        1.693      334.070        3.801      868.888
11/22/2013  11:06:00      146.156     -186.626      -48.183       84.652      103.840       64.489     7165.905    10782.817     4158.784        4.031        1.105      237.046       53.828        0.052      333.759        3.283      868.838
11/22/2013  11:07:00       91.933      -73.484      -16.405       62.271       73.744       53.054     3877.679     5438.113     2814.759        1.312        0.607      117.693       52.360        0.198      333.867        3.462      868.846
11/22/2013  11:08:00       53.596       11.122       37.987       54.942       74.224       47.385     3018.673     5509.209     2245.341        0.760        0.539       54.738       56.303        1.058      334.145        3.926      868.842
11/22/2013  11:09:00       71.723       67.764       36.917       58.674       31.301       32.670     3442.649      979.752     1067.313        0.829        0.274       98.672       34.842        0.125      333.723        3.226      868.823
11/22/2013  11:10:00       95.857      105.811       89.012       94.180       65.417       65.582     8869.958     4279.393     4301.060        2.288        0.873      142.775       61.371        0.185      333.978        3.645      868.814
11/22/2013  11:11:00      111.795       69.702       45.246       73.137       60.931       49.331     5348.954     3712.583     2433.508        1.545        0.575      131.744       32.930        0.062      334.104        3.856      868.776
11/22/2013  11:12:00       83.458       78.745       72.057       99.152       57.676       44.232     9831.056     3326.568     1956.514        1.673        0.756      114.743       51.945        0.205      334.322        4.217      868.744
11/22/2013  11:13:00       47.475       73.013       70.283       75.004       45.461       52.073     5625.613     2066.735     2711.561        1.146        0.520       87.091       50.303        0.334      334.207        4.028      868.741
11/22/2013  11:14:00      144.705       95.616       18.278       57.328       54.455       49.865     3286.487     2965.306     2486.525        1.958        0.437      173.442       15.726        0.008      333.901        3.517      868.737
11/22/2013  11:15:00       59.313       31.352       45.114       47.013       35.448       38.790     2210.241     1256.572     1504.662        0.575        0.249       67.089       22.489        0.112      334.211        4.034      868.751
11/22/2013  11:16:00       49.790       86.679       15.526       74.061       30.090       36.563     5485.096      905.418     1336.841        0.898        0.386       99.961       30.963        0.096      333.584        2.993      868.765
11/22/2013  11:17:00       40.879       55.702        1.837       58.659       39.809       37.647     3440.900     1584.726     1417.294        0.561        0.322       69.093       29.883        0.187      333.878        3.480      868.729
11/22/2013  11:18:00       75.703       45.275        9.243       56.362       31.572       31.309     3176.696      996.817      980.232        0.651        0.258       88.209       22.435        0.065      333.831        3.403      868.719
11/22/2013  11:19:00       22.732       67.249        6.228       38.103       45.806       30.675     1451.850     2098.151      940.962        0.478        0.225       70.987       27.683        0.152      333.941        3.587      868.716
11/22/2013  11:20:00       55.806       43.785       -4.425       33.846       27.196       26.707     1145.550      739.639      713.263        0.382        0.130       70.932       15.810        0.050      333.926        3.561      868.685
11/22/2013  11:21:00       11.400       58.166       70.743       34.247       37.004       48.627     1172.851     1369.321     2364.626        0.671        0.245       59.273       27.937        0.222      334.368        4.295      868.671
11/22/2013  11:22:00      102.293      113.032       73.526       72.509       51.359       54.159     5257.603     2637.772     2933.185        1.974        0.541      152.447       40.180        0.069      333.781        3.319      868.664
11/22/2013  11:23:00       90.245       82.759       20.281       48.993       21.569       23.871     2400.328      465.229      569.803        0.942        0.172      122.447        7.019        0.003      333.562        2.957      868.654
11/22/2013  11:24:00      -19.463       45.915       14.945       21.878       43.882       31.199      478.658     1925.606      973.391        0.304        0.169       49.869       20.363        0.167      334.156        3.943      868.623
11/22/2013  11:25:00      -15.212      -10.334       13.057       26.047       14.115       13.671      678.450      199.244      186.892        0.079        0.053       18.390       10.409        0.320      334.560        4.614      868.593
11/22/2013  11:26:00      -24.472      -36.961        2.503       28.602       31.146       22.966      818.097      970.045      527.420        0.214        0.116       44.328       13.312        0.090      334.432        4.401      868.584
11/22/2013  11:27:00        5.566      -32.667       51.494       65.860      106.517       62.078     4337.501    11345.918     3853.616        1.164        0.977       33.137       75.878        5.243      334.515        4.537      868.582
11/22/2013  11:28:00       58.643      -50.326        6.742       61.300       75.568       50.917     3757.747     5710.471     2592.515        0.904        0.603       77.277       50.850        0.433      334.282        4.153      868.529
11/22/2013  11:29:00       22.751        9.028       49.660       21.561       39.577       21.631      464.887     1566.364      467.913        0.278        0.125       24.476       22.967        0.880      334.504        4.519      868.496
11/22/2013  11:30:00       41.225      -79.646      -14.653       44.536       56.035       38.486     1983.447     3139.970     1481.148        0.743        0.330       89.683       27.373        0.093      334.089        3.832      868.469
11/22/2013  11:31:00       42.257     -136.239      -12.381       31.075       60.895       32.147      965.638     3708.196     1033.433        1.310        0.285      142.642       23.397        0.027      334.022        3.720      868.452
11/22/2013  11:32:00       33.595       -3.227       54.400       50.067       88.900       64.811     2506.731     7903.204     4200.437        0.935        0.731       33.750       68.429        4.111      334.470        4.464      868.433
11/22/2013  11:33:00       16.840       71.709       97.972       62.273       80.833       59.117     3877.986     6534.014     3494.819        1.446        0.695       73.660       57.978        0.620      334.167        3.960      868.414
11/22/2013  11:34:00       15.146      -22.309       15.938       41.241       62.970       50.215     1700.818     3965.258     2521.524        0.458        0.409       26.965       50.887        3.561      334.029        3.732      868.399
11/22/2013  11:35:00       30.712       24.594       11.459       45.798       65.548       26.234     2097.451     4296.545      688.247        0.438        0.354       39.346       21.514        0.299      333.941        3.587      868.370
11/22/2013  11:36:00       32.468       58.978       41.548       46.058       44.548       61.656     2121.301     1984.536     3801.457        0.708        0.395       67.325       34.015        0.255      334.183        3.987      868.327
11/22/2013  11:37:00      118.186       84.071       25.913       68.638       62.141       54.431     4711.203     3861.485     2962.688        1.662        0.577      145.038       38.610        0.071      334.099        3.848      868.286
11/22/2013  11:38:00      124.341      110.662       42.301       56.269       50.787       64.439     3166.251     2579.311     4152.430        1.970        0.495      166.453       45.743        0.076      333.808        3.363      868.288
11/22/2013  11:39:00       43.138       30.831       -1.045       42.416       27.393       23.977     1799.115      750.392      574.874        0.297        0.156       53.023       19.936        0.141      334.083        3.822      868.281
11/22/2013  11:40:00       67.524       97.496       50.785       83.486       54.878       85.291     6969.865     3011.545     7274.614        1.695        0.863      118.596       65.740        0.307      334.517        4.539      868.290
11/22/2013  11:41:00      148.520      132.117      127.050      101.803       75.339       69.303    10363.878     5675.976     4802.842        3.824        1.042      198.779       68.599        0.119      334.077        3.808      868.290
11/22/2013  11:42:00      142.568      115.364       57.698      117.238       48.264       60.868    13744.820     2329.451     3704.863        2.837        0.989      183.397       50.545        0.076      333.973        3.636      868.297
11/22/2013  11:43:00      104.968      112.239      108.928       77.376       62.448       46.916     5987.018     3899.763     2201.084        2.378        0.604      153.675       41.433        0.073      334.204        4.020      868.290
11/22/2013  11:44:00       74.882       49.415       19.792       78.395       84.456       34.717     6145.699     7132.745     1205.295        1.146        0.724       89.717       23.486        0.069      334.031        3.735      868.290
11/22/2013  11:45:00       35.953      -41.323       -6.023       52.394       28.509       24.560     2745.084      812.763      603.210        0.360        0.208       54.774       19.678        0.129      334.158        3.945      868.265
11/22/2013  11:46:00      -82.849      -39.098       -8.068       50.111       32.801       25.497     2511.069     1075.905      650.116        0.635        0.212       91.611       20.680        0.051      334.015        3.709      868.228
11/22/2013  11:47:00      -25.854       20.790       10.064       72.571       40.645       25.617     5266.534     1651.976      656.214        0.439        0.379       33.176       12.390        0.139      334.138        3.913      868.215
11/22/2013  11:48:00       36.996       48.109       46.544       30.949       26.355       25.913      957.868      694.571      671.496        0.409        0.116       60.689       15.470        0.065      334.443        4.418      868.198
11/22/2013  11:49:00      161.179      139.141       64.957      120.865       56.229       55.016    14608.351     3161.689     3026.713        3.517        1.040      212.929       43.400        0.042      334.238        4.075      868.180
11/22/2013  11:50:00      187.595      106.526       17.204       76.716       63.167       47.964     5885.304     3990.043     2300.587        2.950        0.609      215.730       22.808        0.011      333.817        3.377      868.181
11/22/2013  11:51:00      137.489      108.133       69.157      106.711       51.560       61.125    11387.216     2658.413     3736.229        2.658        0.889      174.917       58.939        0.114      334.111        3.866      868.174
11/22/2013  11:52:00      180.659      102.781       41.960       49.068       43.295       65.501     2407.689     1874.470     4290.367        2.677        0.429      207.850       36.750        0.031      334.089        3.826      868.189
11/22/2013  11:53:00       96.471       32.433       24.834       60.268       74.090       54.633     3632.279     5489.364     2984.778        1.154        0.605      101.777       46.067        0.205      334.077        3.812      868.197
11/22/2013  11:54:00       83.965       80.239       19.312       59.654       53.881       43.720     3558.549     2903.175     1911.405        1.112        0.419      116.140       28.021        0.058      334.271        4.134      868.212
11/22/2013  11:55:00       24.680       81.102        0.546       54.778       54.190       41.320     3000.616     2936.515     1707.375        0.741        0.382       84.774       36.961        0.190      334.131        3.902      868.197
11/22/2013  11:56:00        9.642       42.330       -8.217       17.702       34.870       21.224      313.364     1215.915      450.447        0.197        0.099       43.414       11.391        0.069      334.108        3.864      868.149
11/22/2013  11:57:00       14.440       -5.602       17.196       21.234       24.871       23.475      450.870      618.552      551.087        0.108        0.081       15.489        8.909        0.331      334.487        4.492      868.117
11/22/2013  11:58:00       25.134      -24.802       21.162       24.339       75.612       29.740      592.403     5717.209      884.488        0.444        0.360       35.311       31.055        0.773      334.584        4.652      868.113
11/22/2013  11:59:00       28.432       22.854       21.441       72.989       51.068       30.689     5327.359     2607.903      941.840        0.533        0.444       36.478       13.718        0.141      334.854        5.102      868.130
11/22/2013  12:00:00       47.920       52.912       63.554       63.802       78.128       65.830     4070.704     6103.942     4333.649        1.182        0.725       71.386       61.487        0.742      334.875        5.136      868.157
11/22/2013  12:01:00      184.929      127.973       65.664       88.322       73.513       72.973     7800.863     5404.160     5325.052        3.671        0.927      224.891       48.853        0.047      334.217        4.039      868.145
11/22/2013  12:02:00       22.165       32.367       88.203       66.448       93.773       55.620     4415.280     8793.348     3093.529        1.281        0.815       39.229       48.367        1.520      334.737        4.907      868.158
11/22/2013  12:03:00       42.296       77.579      108.597       83.402       72.779       61.203     6955.844     5296.738     3745.836        1.780        0.800       88.359       54.034        0.374      334.368        4.294      868.163
11/22/2013  12:04:00       48.861      -30.249       19.825       49.584       59.147       44.700     2458.595     3498.311     1998.078        0.582        0.398       57.467       39.795        0.480      334.268        4.129      868.159
11/22/2013  12:05:00       87.451      -82.743        5.806       64.092       59.619       37.997     4107.812     3554.412     1443.799        1.182        0.455      120.392       36.498        0.092      334.337        4.244      868.133
11/22/2013  12:06:00      106.392       90.747       97.528       86.262      113.606       80.612     7441.171    12906.349     6498.328        2.795        1.342      139.837       83.286        0.355      334.333        4.232      868.098
11/22/2013  12:07:00      121.243      138.133       98.333      109.437       93.843       75.075    11976.519     8806.444     5636.292        3.493        1.321      183.795       54.182        0.087      334.289        4.159      868.075
11/22/2013  12:08:00       60.672       43.652       65.726       95.104       62.940       55.194     9044.694     3961.384     3046.422        1.298        0.803       74.744       49.415        0.437      334.514        4.535      868.099
11/22/2013  12:09:00        3.479       23.415       57.160       63.909       88.922       54.875     4084.343     7907.082     3011.275        0.941        0.750       23.672       57.929        5.989      335.072        5.464      868.108
11/22/2013  12:10:00       21.756      -59.450       34.791       69.628      130.296       56.526     4848.035    16977.033     3195.173        1.511        1.251       63.306       42.898        0.459      334.763        4.948      868.120
11/22/2013  12:11:00       22.255       -2.448       41.221       49.019       70.852       48.784     2402.825     5019.942     2379.879        0.600        0.490       22.389       33.283        2.210      334.728        4.892      868.131
11/22/2013  12:12:00       43.020      -35.714       53.916       77.564      131.544       70.916     6016.108    17303.932     5029.011        1.719        1.417       55.912       97.128        3.018      334.839        5.075      868.129
11/22/2013  12:13:00      112.309     -159.085       -0.198       61.104       75.534       44.793     3733.658     5705.351     2006.429        2.468        0.572      194.734       27.622        0.020      334.577        4.638      868.156
11/22/2013  12:14:00       99.580       66.920      114.655      100.745      163.989       86.027    10149.571    26892.494     7400.619        3.598        2.222      119.976      107.816        0.808      334.640        4.743      868.154
11/22/2013  12:15:00      146.350      122.428       67.958       75.341       66.082       65.277     5676.209     4366.797     4261.075        2.766        0.715      190.806       45.621        0.057      334.276        4.139      868.148
11/22/2013  12:16:00      154.366      105.131       61.963       81.747       63.702       59.742     6682.534     4057.920     3569.048        2.651        0.715      186.765       39.701        0.045      334.275        4.137      868.133
11/22/2013  12:17:00      184.429      154.079      108.548       78.807       74.371       77.363     6210.548     5531.077     5985.081        4.363        0.886      240.321       65.520        0.074      334.249        4.092      868.111
11/22/2013  12:18:00      192.801      126.488       46.474       79.822       49.530       60.324     6371.605     2453.176     3638.964        3.390        0.623      230.590       38.651        0.028      334.205        4.020      868.067
11/22/2013  12:19:00      106.910       97.853       46.553       55.900       51.767       44.225     3124.763     2679.863     1955.889        1.546        0.388      144.930       28.461        0.039      334.224        4.054      868.042
11/22/2013  12:20:00       12.927       -0.992       36.675       58.991       69.462       37.210     3479.930     4825.013     1384.603        0.560        0.484       12.965       41.310       10.153      334.595        4.671      868.023
11/22/2013  12:21:00       52.162     -111.204       -5.529       56.960       60.904       41.322     3244.400     3709.305     1707.489        1.189        0.433      122.830       34.900        0.081      334.653        4.768      868.003
11/22/2013  12:22:00       54.706     -124.265      -22.152       40.191       42.509       35.160     1615.319     1807.027     1236.257        1.179        0.233      135.774       21.695        0.026      334.662        4.782      867.985
11/22/2013  12:23:00       -5.317       18.524       53.886       41.631       46.426       40.330     1733.133     2155.395     1626.544        0.439        0.276       19.272       37.359        3.758      334.812        5.031      867.968
11/22/2013  12:24:00       18.756      -46.554        2.090       46.960       75.277       36.377     2205.288     5666.612     1323.254        0.586        0.460       50.190       35.074        0.488      334.929        5.226      867.968
11/22/2013  12:25:00       92.967     -139.402      -15.120       66.561       88.020       44.729     4430.392     7747.563     2000.639        2.124        0.709      167.559       45.249        0.073      334.448        4.425      867.964
11/22/2013  12:26:00      100.629     -157.839      -25.409       52.804       51.594       29.519     2788.221     2661.984      871.372        2.100        0.316      187.188       25.092        0.018      334.378        4.309      867.953
11/22/2013  12:27:00       54.919      -44.290        2.610       38.270       51.130       38.034     1464.601     2614.254     1446.604        0.525        0.276       70.553       32.634        0.214      334.542        4.584      867.968
11/22/2013  12:28:00       85.063       18.454       49.127       64.330       82.097       49.389     4138.366     6739.956     2439.239        1.165        0.666       87.042       56.001        0.414      334.458        4.443      867.957
11/22/2013  12:29:00       87.717      -32.908       37.968       57.282       94.294       57.232     3281.187     8891.362     3275.531        1.283        0.772       93.687       66.940        0.511      334.731        4.895      867.918
11/22/2013  12:30:00       83.090      -36.188       46.748       60.107      110.627       63.744     3612.894    12238.433     4063.250        1.515        0.996       90.628       62.179        0.471      334.915        5.202      867.880
11/22/2013  12:31:00       47.674       65.822      102.090       80.974      137.003       96.372     6556.775    18769.853     9287.504        2.581        1.731       81.273      106.487        1.717      334.662        4.780      867.844
11/22/2013  12:32:00       42.571      -33.629       18.157       49.515       77.770       57.518     2451.699     6048.217     3308.290        0.754        0.590       54.251       56.509        1.085      334.435        4.405      867.824
11/22/2013  12:33:00      101.020       50.055       35.403       71.225       48.188       39.007     5072.942     2322.101     1521.550        1.144        0.446      112.741       37.421        0.110      334.565        4.622      867.769
11/22/2013  12:34:00       60.803       21.915       42.901       55.430       51.194       46.982     3072.522     2620.856     2207.315        0.696        0.395       64.631       48.231        0.557      334.464        4.454      867.751
11/22/2013  12:35:00       69.852     -103.703        4.968       56.792       83.493       43.803     3225.337     6971.114     1918.737        1.388        0.606      125.035       46.879        0.141      334.669        4.793      867.762
11/22/2013  12:36:00      -32.661       22.273       26.909       44.075       33.043       29.097     1942.564     1091.823      846.641        0.308        0.194       39.532       24.963        0.399      334.955        5.268      867.751
11/22/2013  12:37:00       43.358       39.477       36.414       30.491       29.190       24.061      929.721      852.055      578.945        0.356        0.118       58.638       16.463        0.079      335.025        5.386      867.750
11/22/2013  12:38:00       31.393       16.744       -1.793       29.357       48.894       27.056      861.810     2390.648      732.001        0.263        0.199       35.579       17.201        0.234      335.025        5.387      867.755
11/22/2013  12:39:00       56.387        2.895       51.260       47.424      108.131       66.211     2249.021    11692.369     4383.949        1.207        0.916       56.461       74.112        1.723      334.877        5.139      867.750
11/22/2013  12:40:00      166.445       97.405       50.865      105.749       62.955       58.897    11182.886     3963.306     3468.906        2.919        0.931      192.851       35.858        0.035      334.542        4.580      867.739
11/22/2013  12:41:00       91.319       44.945       23.837       63.567       57.212       45.049     4040.719     3273.251     2029.431        1.013        0.467      101.780       42.041        0.171      334.647        4.757      867.737
11/22/2013  12:42:00       31.222       69.778        8.889       63.212       67.498       26.580     3995.797     4556.014      706.484        0.759        0.463       76.444       33.175        0.188      334.812        5.032      867.731
11/22/2013  12:43:00        8.409       29.894        8.264       47.798       67.587       39.966     2284.640     4567.972     1597.303        0.474        0.422       31.054       25.910        0.696      334.848        5.091      867.716
11/22/2013  12:44:00       87.487      -62.434       30.472       96.754      151.094      104.000     9361.378    22829.381    10815.921        2.773        2.150      107.480      121.313        1.274      334.778        4.972      867.680
11/22/2013  12:45:00      125.430     -161.496      -30.632       97.823       80.341       57.340     9569.345     6454.695     3287.915        3.103        0.966      204.484       61.128        0.089      334.430        4.393      867.691
11/22/2013  12:46:00      130.428      -46.383       14.347       75.188       90.219       65.987     5653.162     8139.437     4354.224        1.875        0.907      138.430       64.582        0.218      334.567        4.624      867.704
11/22/2013  12:47:00       93.937      -31.042       53.277       96.882       99.408       72.915     9386.152     9881.944     5316.563        1.860        1.229       98.933       73.263        0.548      334.877        5.140      867.690
11/22/2013  12:48:00      108.558       40.219      101.240       79.698      130.242       86.102     6351.734    16963.022     7413.604        2.718        1.536      115.769       96.260        0.691      334.666        4.786      867.691
11/22/2013  12:49:00       64.910      -85.867       28.885       72.353      147.355       87.758     5234.976    21713.523     7701.507        2.353        1.733      107.640      104.831        0.948      334.888        5.157      867.667
11/22/2013  12:50:00      152.103     -130.753       -7.936       53.644       78.755       49.805     2877.703     6202.292     2480.538        2.593        0.578      200.578       45.908        0.052      334.619        4.709      867.652
11/22/2013  12:51:00      103.667      -41.593       40.425       65.381       75.464       50.916     4274.671     5694.784     2592.454        1.333        0.628      111.700       49.799        0.199      334.854        5.101      867.630
11/22/2013  12:52:00       67.261      -60.173       23.171       45.402       67.099       43.339     2061.319     4502.325     1878.247        0.856        0.422       90.249       40.659        0.203      334.840        5.078      867.622
11/22/2013  12:53:00       71.804      -74.151        0.398       46.790       57.732       31.648     2189.281     3332.964     1001.578        0.859        0.326      103.219       42.067        0.166      334.636        4.739      867.605
11/22/2013  12:54:00       -4.950       -8.276       29.913       28.118       56.365       33.082      790.648     3177.014     1094.427        0.302        0.253        9.643       37.505       15.127      335.249        5.758      867.584
11/22/2013  12:55:00        4.944      -26.156       22.622       44.005       41.199       39.908     1936.405     1697.396     1592.683        0.322        0.261       26.619       18.219        0.468      335.386        5.984      867.588
11/22/2013  12:56:00      -10.879       40.116       76.610       32.208       49.057       39.118     1037.381     2406.638     1530.206        0.628        0.249       41.566       35.341        0.723      335.511        6.194      867.594
11/22/2013  12:57:00       12.073      -22.030       33.928       57.643       73.431       45.611     3322.675     5392.130     2080.408        0.629        0.540       25.121       45.753        3.317      335.311        5.861      867.592
11/22/2013  12:58:00       36.464      -24.785       53.392       57.774       95.477       64.233     3337.865     9115.913     4125.896        1.068        0.829       44.090       67.356        2.334      335.249        5.758      867.579
11/22/2013  12:59:00       24.961       33.579       68.180       49.763       79.301       44.493     2476.402     6288.724     1979.614        0.857        0.537       41.840       52.845        1.595      335.263        5.781      867.574
11/22/2013  13:00:00       22.688       39.014       55.856       68.503       51.240       36.185     4692.647     2625.516     1309.340        0.689        0.431       45.131       21.789        0.233      335.232        5.729      867.589
11/22/2013  13:01:00       78.368     -176.020       -1.005       94.750       81.114       47.275     8977.629     6579.501     2234.953        2.746        0.890      192.677       56.209        0.085      334.984        5.315      867.602
11/22/2013  13:02:00       54.412       21.354       55.930       73.720       75.986       51.649     5434.607     5773.918     2667.631        1.021        0.694       58.452       56.742        0.942      335.194        5.666      867.593
11/22/2013  13:03:00       58.664      -63.162       10.501       64.477      103.417       57.191     4157.290    10695.147     3270.799        1.283        0.906       86.203       54.750        0.403      335.096        5.504      867.586
11/22/2013  13:04:00       26.121       47.214       99.345       67.328      122.532       97.469     4533.064    15014.077     9500.199        2.091        1.452       53.958      101.899        3.566      334.971        5.295      867.574
11/22/2013  13:05:00       65.998       27.486       56.238       72.653       71.262       76.917     5278.505     5078.264     5916.207        1.227        0.814       71.493       60.681        0.720      334.900        5.178      867.545
11/22/2013  13:06:00       23.750       69.715       93.991       61.312       60.791       47.570     3759.114     3695.581     2262.889        1.199        0.486       73.650       44.970        0.373      335.305        5.850      867.516
11/22/2013  13:07:00      105.002       77.943       39.668       82.925       48.686       43.428     6876.482     2370.354     1885.965        1.490        0.557      130.769       37.902        0.084      334.837        5.072      867.504
11/22/2013  13:08:00       50.473       74.553       15.018       70.984       50.481       38.994     5038.768     2548.284     1520.532        0.872        0.455       90.031       25.862        0.083      334.935        5.235      867.489
11/22/2013  13:09:00       11.197       -9.262       18.177       18.932       25.131       18.943      358.410      631.566      358.853        0.094        0.067       14.532       14.440        0.987      335.440        6.076      867.473
11/22/2013  13:10:00       -7.919       18.023        7.101       20.489       25.840       19.592      419.793      667.682      383.854        0.095        0.074       19.687       10.459        0.282      335.430        6.059      867.473
11/22/2013  13:11:00        1.475      -34.814        8.647       43.567       56.599       37.678     1898.127     3203.494     1419.665        0.390        0.326       34.845       34.284        0.968      335.542        6.244      867.472
11/22/2013  13:12:00       26.092       56.446      114.420       57.493       77.519       55.782     3305.495     6009.271     3111.580        1.469        0.621       62.185       52.963        0.725      335.269        5.791      867.462
11/22/2013  13:13:00       54.645       69.318       88.871       68.347       85.049       57.438     4671.264     7233.398     3299.180        1.544        0.760       88.267       58.385        0.438      335.074        5.467      867.450
11/22/2013  13:14:00       25.234      -43.124       46.693       86.417       87.739       47.410     7467.868     7698.110     2247.732        1.104        0.871       49.964       47.725        0.912      335.415        6.032      867.434
11/22/2013  13:15:00      121.556     -147.045       22.166       94.077      161.328       93.211     8850.472    26026.565     8688.367        4.022        2.178      190.783      116.142        0.371      335.019        5.373      867.425
11/22/2013  13:16:00      155.794     -180.767      -24.840      101.086      143.405       86.122    10218.344    20564.972     7417.036        4.788        1.910      238.639       96.925        0.165      334.811        5.028      867.447
11/22/2013  13:17:00       -3.871       32.062        6.710       35.119       33.619       28.277     1233.327     1130.215      799.593        0.212        0.158       32.295       15.282        0.224      334.886        5.154      867.515
11/22/2013  13:18:00       14.658      -82.227      -12.380       35.434       66.675       36.210     1255.550     4445.605     1311.195        0.707        0.351       83.524       23.790        0.081      335.169        5.625      867.494
11/22/2013  13:19:00       31.339      -47.597       20.658       81.876       68.851       47.149     6703.624     4740.412     2222.990        0.867        0.683       56.988       39.352        0.477      335.058        5.440      867.475
11/22/2013  13:20:00     -125.759      -53.046       -9.654       60.257       36.753       33.430     3630.888     1350.766     1117.592        1.241        0.305      136.489       38.966        0.082      334.907        5.190      867.449
11/22/2013  13:21:00      -23.926      -54.903      -11.390       56.964       44.340       26.365     3244.950     1966.021      695.131        0.481        0.295       59.890       25.433        0.180      335.162        5.615      867.443
11/22/2013  13:22:00       25.088     -110.287       -0.035       94.060       90.001       46.235     8847.349     8100.133     2137.649        1.594        0.954      113.105       48.114        0.181      335.253        5.764      867.418
11/22/2013  13:23:00      -23.826      -25.027        9.800       33.192       34.409       27.590     1101.678     1183.958      761.206        0.217        0.152       34.555       14.326        0.172      335.502        6.177      867.411
11/22/2013  13:24:00      -62.367      -22.799       19.392       53.022       59.108       49.585     2811.381     3493.757     2458.691        0.677        0.438       66.404       41.198        0.385      335.087        5.487      867.399
11/22/2013  13:25:00      -43.523        5.790        1.865       39.292       32.148       27.585     1543.847     1033.515      760.917        0.263        0.167       43.906       23.231        0.280      335.094        5.499      867.398
11/22/2013  13:26:00       17.989      -31.202        5.780       24.029       30.632       17.373      577.386      938.289      301.834        0.157        0.091       36.016       13.710        0.145      335.393        5.998      867.389
11/22/2013  13:27:00       74.113     -184.117      -13.928       66.931       64.725       36.404     4479.739     4189.267     1325.285        2.479        0.500      198.473       31.104        0.025      335.025        5.382      867.383
11/22/2013  13:28:00      106.503     -135.793        2.984       60.697       79.223       35.513     3684.147     6276.293     1261.182        2.050        0.561      172.577       40.674        0.056      334.951        5.261      867.374
11/22/2013  13:29:00       75.011      -63.753       26.324       86.688      117.763       61.981     7514.818    13868.181     3841.656        1.780        1.261       98.443       72.137        0.537      335.360        5.940      867.382
11/22/2013  13:30:00      124.866     -206.632      -11.077       98.652      152.347       67.994     9732.302    23209.483     4623.197        4.798        1.878      241.429       81.066        0.113      335.040        5.408      867.383
11/22/2013  13:31:00      140.971     -151.739       -9.785       98.038      140.878       78.979     9611.475    19846.573     6237.694        3.934        1.785      207.118       88.172        0.181      335.008        5.355      867.375
11/22/2013  13:32:00       87.055     -110.409       -4.624       78.234      136.334       71.055     6120.626    18586.960     5048.884        2.477        1.488      140.601       76.100        0.293      334.940        5.241      867.372
11/22/2013  13:33:00       82.640      -14.917       34.244       76.784       70.375       65.478     5895.803     4952.659     4287.405        1.168        0.757       83.975       54.846        0.427      334.996        5.338      867.388
11/22/2013  13:34:00       35.912        7.781       54.986       49.585       81.511       55.882     2458.651     6643.998     3122.764        0.830        0.611       36.745       59.962        2.663      335.208        5.690      867.396
11/22/2013  13:35:00       75.565     -130.134       -7.514       56.132       97.864       44.076     3150.818     9577.308     1942.664        1.868        0.734      150.482       48.531        0.104      334.831        5.062      867.398
11/22/2013  13:36:00       69.430      -40.838       17.081       48.128       46.390       26.416     2316.279     2151.989      697.796        0.597        0.258       80.549       30.829        0.146      334.957        5.271      867.395
11/22/2013  13:37:00       74.009      -78.123       12.525      108.925      123.247       77.503    11864.604    15189.724     6006.640        2.239        1.653      107.613      103.268        0.921      335.141        5.576      867.388
11/22/2013  13:38:00       60.041      -17.384       58.554       91.730      137.273       89.627     8414.377    18843.925     8032.953        2.131        1.765       62.507      108.161        2.994      335.168        5.623      867.380
11/22/2013  13:39:00       57.644      -59.239       29.635       74.808      128.409       64.709     5596.269    16488.922     4187.239        1.699        1.314       82.657       79.775        0.931      335.191        5.660      867.386
11/22/2013  13:40:00       95.951     -197.810      -28.228       99.557      118.798       59.385     9911.527    14112.990     3526.557        3.834        1.378      219.853       52.800        0.058      335.126        5.550      867.384
11/22/2013  13:41:00      127.125     -131.171        4.143       89.001       95.169       50.519     7921.183     9057.079     2552.147        2.645        0.977      182.665       51.133        0.078      335.166        5.618      867.400
11/22/2013  13:42:00      112.719      -10.325       51.185       91.284       63.651       43.571     8332.706     4051.457     1898.424        1.485        0.714      113.191       51.242        0.205      335.199        5.674      867.411
11/22/2013  13:43:00       68.099      -22.438       55.779       79.262      112.108       66.636     6282.476    12568.266     4440.339        1.577        1.165       71.700       75.370        1.105      335.334        5.897      867.417
11/22/2013  13:44:00       97.936     -122.086        4.254       84.510       88.625       57.231     7141.988     7854.338     3275.343        2.139        0.914      156.513       59.909        0.147      335.205        5.683      867.427
11/22/2013  13:45:00       82.241       34.467       53.968       81.317      121.705       58.616     6612.518    14812.084     3435.797        1.786        1.243       89.171       70.076        0.618      335.189        5.659      867.414
11/22/2013  13:46:00      120.327      -97.506       22.645       87.009      115.595       55.915     7570.504    13362.129     3126.458        2.427        1.203      154.874       61.988        0.160      335.286        5.816      867.392
11/22/2013  13:47:00       89.383     -105.898        0.078       78.975       84.350       55.984     6237.118     7114.858     3134.229        1.784        0.824      138.577       47.914        0.120      335.329        5.890      867.380
11/22/2013  13:48:00      127.585     -121.897       22.052       70.811      134.204       79.188     5014.171    18010.785     6270.727        3.045        1.465      176.456       98.998        0.315      334.961        5.274      867.362
11/22/2013  13:49:00      178.214     -242.444      -36.449       57.368       71.788       29.772     3291.045     5153.510      886.370        5.060        0.467      300.898       16.156        0.003      334.952        5.259      867.327
11/22/2013  13:50:00       95.583      -47.272       51.607       72.731      117.584       67.030     5289.750    13826.038     4492.956        1.882        1.180      106.634       73.985        0.481      335.223        5.713      867.317
11/22/2013  13:51:00      124.886     -171.291      -28.426       81.141      113.431       63.222     6583.917    12866.595     3997.004        3.459        1.172      211.984       50.968        0.058      335.044        5.414      867.312
11/22/2013  13:52:00       68.682      100.266      108.367       74.405       60.014       43.217     5536.150     3601.622     1867.697        1.876        0.550      121.534       27.821        0.052      335.238        5.738      867.318
11/22/2013  13:53:00      149.874       99.259       81.460      137.909       71.597       67.083    19018.831     5126.144     4500.082        3.379        1.432      179.763       71.629        0.159      335.142        5.577      867.303
11/22/2013  13:54:00      211.163      108.673       26.699       99.598       68.445       51.756     9919.815     4684.742     2678.733        3.719        0.864      237.486       50.671        0.046      334.971        5.293      867.284
11/22/2013  13:55:00       91.512      -40.252       36.831       65.724       94.390       63.966     4319.601     8909.539     4091.662        1.433        0.866       99.974       62.864        0.395      335.248        5.754      867.289
11/22/2013  13:56:00       99.294     -155.408        1.115       80.689       63.983       54.513     6510.680     4093.790     2971.655        2.379        0.679      184.421       48.267        0.068      335.282        5.809      867.299
11/22/2013  13:57:00       64.585     -116.634       14.729       63.589       90.505       48.522     4043.621     8191.227     2354.349        1.629        0.729      133.322       40.720        0.093      335.439        6.073      867.302
11/22/2013  13:58:00       12.571       27.099       35.438       44.668       54.543       49.001     1995.198     2974.889     2401.128        0.476        0.369       29.873       28.972        0.941      335.660        6.442      867.333
11/22/2013  13:59:00       74.768       88.204       74.716       65.392       60.692       51.921     4276.141     3683.458     2695.834        1.480        0.533      115.630       36.154        0.098      335.462        6.111      867.334
11/22/2013  14:00:00      169.221      150.758      134.634       95.028       83.399       77.173     9030.370     6955.454     5955.732        4.571        1.097      226.636       56.745        0.063      335.121        5.541      867.325
11/22/2013  14:01:00      184.356      169.593      155.849      101.172       93.874       78.017    10235.732     8812.302     6086.632        5.608        1.257      250.497       67.751        0.073      334.856        5.100      867.314
11/22/2013  14:02:00      143.451      131.483       86.525       80.933       61.623       68.117     6550.157     3797.340     4639.961        3.017        0.749      194.592       57.005        0.086      334.837        5.070      867.311
11/22/2013  14:03:00      158.513      160.847      132.608       90.402       75.969       80.407     8172.607     5771.351     6465.333        4.449        1.020      225.828       70.149        0.096      334.903        5.180      867.294
11/22/2013  14:04:00       96.468       73.042      105.817       74.924       88.723       58.312     5613.610     7871.752     3400.336        2.136        0.844      121.001       59.415        0.241      334.895        5.168      867.298
11/22/2013  14:05:00      110.814      125.409      121.338       92.430       65.673       62.345     8543.321     4312.989     3886.851        2.973        0.837      167.354       67.027        0.160      335.089        5.489      867.270
11/22/2013  14:06:00       82.787       84.295       80.410       75.578       69.925       52.706     5711.975     4889.544     2777.947        1.690        0.669      118.149       43.444        0.135      335.215        5.700      867.257
11/22/2013  14:07:00       65.465      -54.042       27.302       78.942       98.792       56.170     6231.879     9759.909     3155.104        1.355        0.957       84.889       52.148        0.377      335.518        6.204      867.219
11/22/2013  14:08:00       99.743      -58.350       64.066       96.098      128.878       80.436     9234.773    16609.472     6470.013        2.488        1.616      115.557       80.993        0.491      335.372        5.961      867.170
11/22/2013  14:09:00       98.162        7.195       70.548      115.007      121.002       74.648    13226.582    14641.392     5572.366        2.405        1.672       98.425       87.177        0.784      335.227        5.720      867.164
11/22/2013  14:10:00      120.586     -105.459       12.443       62.579       86.897       44.103     3916.168     7551.019     1945.033        1.961        0.671      160.196       50.206        0.098      335.031        5.393      867.155
11/22/2013  14:11:00      127.552      -45.220       32.179       75.392       63.958       49.825     5683.878     4090.578     2482.574        1.580        0.613      135.330       49.402        0.133      335.108        5.523      867.141
11/22/2013  14:12:00       81.245       31.655       89.485       87.237      104.537       68.495     7610.255    10928.034     4691.576        1.942        1.161       87.195       77.371        0.787      335.182        5.645      867.143
11/22/2013  14:13:00       52.582       -0.884       56.887       43.280       89.547       57.214     1873.191     8018.628     3273.472        0.958        0.658       52.589       64.552        1.507      335.330        5.891      867.136
11/22/2013  14:14:00      120.383      -74.388       20.006       84.671      102.371       67.304     7169.126    10479.864     4529.786        2.130        1.109      141.512       74.777        0.279      335.426        6.050      867.124
11/22/2013  14:15:00       79.865      -58.813       43.566       65.567      145.137       72.643     4299.094    21064.758     5277.066        2.118        1.532       99.184       95.826        0.933      335.335        5.899      867.114
11/22/2013  14:16:00       94.442      -65.173       46.735       69.435       89.453       57.040     4821.205     8001.753     3253.524        1.571        0.804      114.747       62.990        0.301      335.134        5.564      867.117
11/22/2013  14:17:00       68.099      -35.842       23.943       57.678       48.335       34.761     3326.704     2336.312     1208.293        0.668        0.344       76.956       42.109        0.299      335.070        5.460      867.099
11/22/2013  14:18:00       68.948       14.716       29.396       46.243       71.016       38.404     2138.437     5043.340     1474.884        0.724        0.433       70.501       28.921        0.168      335.160        5.611      867.073
11/22/2013  14:19:00       57.348        9.915        6.745       28.784       29.589       27.528      828.540      875.480      757.775        0.295        0.123       58.198       11.036        0.036      335.217        5.704      867.049
11/22/2013  14:20:00       96.155       48.637        7.903       57.480       49.642       33.210     3303.916     2464.325     1102.926        0.927        0.344      107.756       18.915        0.031      335.238        5.738      867.030
11/22/2013  14:21:00       48.618       19.264        8.741       56.603       44.233       34.114     3203.900     1956.529     1163.775        0.457        0.316       52.295       24.374        0.217      335.365        5.950      866.997
11/22/2013  14:22:00       53.016       25.545        9.325       46.260       38.756       39.184     2139.971     1502.042     1535.364        0.436        0.259       58.849       15.963        0.074      335.303        5.846      866.977
11/22/2013  14:23:00       60.043       13.895       -1.952       27.001       26.525       27.218      729.071      703.560      740.794        0.299        0.109       61.630       13.594        0.049      335.232        5.729      866.954
11/22/2013  14:24:00       16.832       14.670       33.258       33.972       32.533       23.311     1154.122     1058.380      543.412        0.218        0.138       22.327       17.379        0.606      335.515        6.200      866.940
11/22/2013  14:25:00       57.200       14.691       58.884       58.529       94.453       61.399     3425.677     8921.339     3769.782        1.153        0.806       59.056       65.863        1.244      335.491        6.160      866.932
11/22/2013  14:26:00        8.376       47.611       90.959       39.329       77.451       52.300     1546.741     5998.651     2735.258        1.044        0.514       48.343       50.507        1.092      335.684        6.481      866.913
11/22/2013  14:27:00       97.149       72.774       70.875       60.128       59.254       49.109     3615.331     3511.055     2411.708        1.465        0.477      121.384       30.711        0.064      335.369        5.958      866.879
11/22/2013  14:28:00       56.345     -101.661       -2.587       73.539       64.768       43.580     5408.011     4194.857     1899.196        1.251        0.575      116.231       41.182        0.126      335.504        6.180      866.835
11/22/2013  14:29:00       85.685       18.326       40.208       72.155       77.567       49.280     5206.348     6016.658     2428.549        1.147        0.683       87.623       38.524        0.193      335.345        5.917      866.801
11/22/2013  14:30:00       44.962       16.554       17.056       56.271       35.533       28.120     3166.466     1262.591      790.715        0.390        0.261       47.912       23.890        0.249      335.292        5.830      866.755
11/22/2013  14:31:00       15.256      -43.466       10.719       43.118       56.155       33.939     1859.168     3153.373     1151.862        0.420        0.308       46.066       26.680        0.335      335.606        6.351      866.707
11/22/2013  14:32:00       46.889       55.255      114.090       71.024      124.597       72.466     5044.383    15524.324     5251.387        2.204        1.291       72.468       87.742        1.466      335.252        5.763      866.694
11/22/2013  14:33:00       48.357      -28.295       40.184       34.794       72.976       33.955     1210.624     5325.568     1152.936        0.622        0.384       56.026       44.725        0.637      335.281        5.809      866.690
11/22/2013  14:34:00       22.986       36.113       75.851       43.205       64.993       36.248     1866.645     4224.050     1313.898        0.749        0.370       42.808       22.614        0.279      335.549        6.257      866.699
11/22/2013  14:35:00       93.151      -16.219       61.966       86.731      139.063       82.936     7522.183    19338.493     6878.362        2.325        1.687       94.553       99.502        1.107      335.346        5.917      866.705
11/22/2013  14:36:00       49.287      -11.284       85.285       81.706      116.253       81.951     6675.802    13514.737     6715.917        1.836        1.345       50.563       87.453        2.991      335.537        6.236      866.689
11/22/2013  14:37:00       60.657      -12.232       63.591       56.160       93.098       38.866     3153.917     8667.324     1510.544        1.060        0.667       61.878       40.647        0.431      335.385        5.984      866.703
11/22/2013  14:38:00       19.845        2.371       57.495       41.813       95.487       57.226     1748.358     9117.799     3274.794        0.892        0.707       19.986       64.051       10.270      335.451        6.094      866.698
11/22/2013  14:39:00       70.038       62.837       71.599       70.728       59.342       48.688     5002.464     3521.476     2370.497        1.244        0.545       94.095       34.992        0.138      335.274        5.799      866.685
11/22/2013  14:40:00      145.743       64.664       51.566       62.511       54.309       50.236     3907.579     2949.488     2523.687        1.873        0.469      159.444       31.723        0.040      335.086        5.486      866.675
11/22/2013  14:41:00      138.944       72.451       45.830       44.071       39.617       34.602     1942.236     1569.518     1197.298        1.568        0.235      156.699       21.487        0.019      335.095        5.502      866.685
11/22/2013  14:42:00       91.228       21.320       55.642       82.468       58.578       40.423     6801.046     3431.394     1633.983        1.187        0.593       93.686       37.442        0.160      335.232        5.728      866.682
11/22/2013  14:43:00       49.782       72.535       54.015       55.114       37.233       35.896     3037.608     1386.292     1288.517        0.818        0.286       87.975       17.067        0.038      335.403        6.013      866.685
11/22/2013  14:44:00       11.353       65.645      100.432       53.058       42.759       40.896     2815.134     1828.329     1672.507        1.042        0.316       66.619       23.216        0.121      335.519        6.206      866.696
11/22/2013  14:45:00      133.831      100.568       60.814       54.891       39.617       44.858     3013.029     1569.525     2012.261        1.916        0.330      167.406       34.488        0.042      335.177        5.637      866.697
11/22/2013  14:46:00      128.291       89.972       14.193       43.600       41.507       38.842     1900.917     1722.845     1508.710        1.494        0.257      156.696       19.283        0.015      335.236        5.734      866.686
11/22/2013  14:47:00       97.251       31.177        7.658       58.094       49.669       25.694     3374.925     2467.040      660.174        0.849        0.325      102.126       25.673        0.063      335.238        5.738      866.682
11/22/2013  14:48:00       33.665       18.615       -1.210       41.564       52.958       31.767     1727.548     2804.575     1009.165        0.351        0.277       38.469       22.198        0.333      335.262        5.779      866.656
11/22/2013  14:49:00       53.477       57.059       16.199       52.461       39.486       32.807     2752.126     1559.161     1076.287        0.588        0.269       78.202       28.384        0.132      335.264        5.782      866.631
11/22/2013  14:50:00       81.388       43.019        7.730       36.266       42.472       31.611     1315.234     1803.890      999.269        0.633        0.206       92.058       18.357        0.040      335.323        5.879      866.613
11/22/2013  14:51:00      133.763       63.860       40.939       61.948       48.714       50.757     3837.517     2373.052     2576.290        1.621        0.439      148.225       31.537        0.045      335.276        5.802      866.588
11/22/2013  14:52:00      138.522       82.509       23.740       61.612       48.361       37.939     3795.986     2338.820     1439.340        1.707        0.379      161.233       29.360        0.033      335.163        5.615      866.579
11/22/2013  14:53:00      125.550       72.427       15.790       64.691       43.535       34.482     4184.986     1895.274     1188.978        1.426        0.363      144.943        9.329        0.004      335.193        5.664      866.574
11/22/2013  14:54:00       26.913       28.968       11.315       30.852       32.368       15.895      951.851     1047.669      252.667        0.197        0.113       39.540       14.119        0.128      335.282        5.811      866.579
11/22/2013  14:55:00       92.619       65.231       34.040       45.281       42.594       46.282     2050.353     1814.270     2142.058        1.000        0.300      113.284       26.509        0.055      335.263        5.780      866.594
11/22/2013  14:56:00       45.516       76.757       93.536       65.736       54.196       37.330     4321.190     2937.164     1393.504        1.268        0.433       89.238       33.287        0.139      335.458        6.105      866.603
11/22/2013  14:57:00      125.710      110.355       84.714       62.570       40.846       43.315     3914.971     1668.403     1876.159        2.131        0.373      167.275       22.706        0.018      335.282        5.811      866.623
11/22/2013  14:58:00       60.275       31.252       31.572       39.211       28.681       22.662     1537.492      822.626      513.574        0.424        0.144       67.895       19.757        0.085      335.288        5.822      866.621
11/22/2013  14:59:00      110.502       71.701       67.880       59.652       48.138       47.830     3558.417     2317.312     2287.664        1.506        0.408      131.726       38.943        0.087      335.335        5.901      866.619
11/22/2013  15:00:00        8.740       -4.376       31.267       46.079       51.555       29.705     2123.300     2657.873      882.393        0.337        0.283        9.774       21.592        4.880      335.728        6.556      866.622
11/22/2013  15:01:00       59.069       -5.300       35.846       69.294       41.590       41.586     4801.694     1729.714     1729.380        0.653        0.413       59.306       38.782        0.428      335.510        6.191      866.620
11/22/2013  15:02:00        7.239       28.183       25.104       23.281       23.244       18.832      541.987      540.262      354.651        0.146        0.072       29.098       10.074        0.120      335.594        6.332      866.624
11/22/2013  15:03:00        7.493       27.788       36.927       20.436       28.661       27.595      417.644      821.457      761.495        0.210        0.100       28.780       24.343        0.715      335.650        6.425      866.634
11/22/2013  15:04:00       17.280       24.061       40.452       34.017       34.233       35.318     1157.141     1171.921     1247.374        0.304        0.179       29.623       29.233        0.974      335.641        6.410      866.642
11/22/2013  15:05:00        8.501      -16.672       27.181       34.552       43.285       27.989     1193.839     1873.577      783.391        0.247        0.193       18.714       25.603        1.872      335.661        6.443      866.648
11/22/2013  15:06:00       30.853      -25.817       40.361       48.796       66.214       41.045     2381.073     4384.355     1684.729        0.585        0.423       40.230       37.024        0.847      335.682        6.478      866.648
11/22/2013  15:07:00       63.160       60.942       87.492       60.814       67.248       54.004     3698.332     4522.307     2916.477        1.325        0.557       87.767       49.531        0.318      335.490        6.158      866.650
11/22/2013  15:08:00       52.621      140.486      132.150       86.796       56.436       45.770     7533.495     3185.050     2094.851        2.639        0.641      150.018       40.236        0.072      335.343        5.911      866.664
11/22/2013  15:09:00       75.096      131.725      104.162       69.225       58.626       57.620     4792.155     3437.046     3320.081        2.269        0.577      151.628       43.778        0.083      335.306        5.851      866.666
11/22/2013  15:10:00       53.019       79.995       61.435       57.725       36.560       38.038     3332.138     1336.639     1446.919        0.955        0.306       95.969       37.944        0.156      335.242        5.746      866.647
11/22/2013  15:11:00       38.618       34.770       25.928       51.975       37.545       22.736     2701.446     1409.664      516.922        0.400        0.231       51.964       15.187        0.085      335.343        5.914      866.623
11/22/2013  15:12:00       47.621      -39.202       -6.378       48.443       32.813       31.479     2346.762     1076.722      990.907        0.413        0.221       61.681       22.383        0.132      335.443        6.080      866.604
11/22/2013  15:13:00       80.103       35.931       15.709       54.407       25.845       32.938     2960.119      667.976     1084.897        0.633        0.236       87.792       15.482        0.031      335.358        5.938      866.574
11/22/2013  15:14:00       70.512       45.326       18.394       33.229       25.829       22.060     1104.138      667.146      486.622        0.481        0.113       83.823       11.197        0.018      335.276        5.801      866.550
11/22/2013  15:15:00      134.706       74.364       23.787       40.301       29.011       33.453     1624.130      841.621     1119.119        1.391        0.179      153.870       14.874        0.009      335.336        5.901      866.530
11/22/2013  15:16:00      109.129       71.127       37.322       57.615       50.935       42.652     3319.453     2594.382     1819.225        1.305        0.387      130.262       27.508        0.045      335.340        5.907      866.519
11/22/2013  15:17:00       96.038        1.759       35.786       64.929       49.031       47.035     4215.718     2404.031     2212.300        0.967        0.442       96.054       49.206        0.262      335.293        5.830      866.502
11/22/2013  15:18:00       67.092       99.604       84.344       44.671       44.886       39.686     1995.485     2014.746     1574.942        1.356        0.279      120.093       25.859        0.046      335.293        5.830      866.476
11/22/2013  15:19:00       75.931       92.892       86.882       46.536       41.739       41.944     2165.635     1742.176     1759.259        1.380        0.283      119.977       23.299        0.038      335.267        5.785      866.470
11/22/2013  15:20:00       51.975       48.999       43.724       48.639       56.027       39.808     2365.761     3138.992     1584.671        0.705        0.354       71.431       34.414        0.232      335.356        5.934      866.490
11/22/2013  15:21:00       38.526      -14.124       22.240       49.655       58.681       43.062     2465.635     3443.453     1854.318        0.497        0.388       41.034       49.321        1.445      335.396        6.002      866.503
11/22/2013  15:22:00        8.081       13.065       24.052       18.045       15.086       10.483      325.611      227.579      109.889        0.074        0.033       15.362        6.985        0.207      335.448        6.088      866.497
11/22/2013  15:23:00       -0.298       32.845       15.874       14.583       18.067       15.514      212.658      326.423      240.695        0.106        0.039       32.846        7.612        0.054      335.456        6.101      866.483
11/22/2013  15:24:00        1.685       18.335       13.644       12.923       18.364       14.670      167.003      337.227      215.216        0.062        0.036       18.412       10.529        0.327      335.585        6.318      866.483
11/22/2013  15:25:00        2.254       27.525       -1.498       18.991       21.293       18.223      360.650      453.400      332.074        0.096        0.057       27.617       17.593        0.406      335.420        6.041      866.489
11/22/2013  15:26:00       18.858       13.902       -0.205       22.015       18.791       15.481      484.650      353.088      239.661        0.081        0.054       23.428       16.333        0.486      335.473        6.131      866.490
11/22/2013  15:27:00       48.227        7.611        7.393       29.205       26.426       14.948      852.935      698.320      223.452        0.211        0.089       48.824        7.707        0.025      335.450        6.092      866.486
11/22/2013  15:28:00       44.914       41.369       36.706       43.754       37.285       21.323     1914.434     1390.171      454.654        0.442        0.188       61.063       16.694        0.075      335.487        6.155      866.481
11/22/2013  15:29:00       25.881       22.354       48.366       33.694       61.128       39.342     1135.296     3736.619     1547.790        0.496        0.321       34.199       36.831        1.160      335.526        6.218      866.481
11/22/2013  15:30:00       63.702       57.643       67.563       56.297       54.290       40.342     3169.327     2947.357     1627.471        0.984        0.387       85.911       43.855        0.261      335.366        5.951      866.466
11/22/2013  15:31:00       62.817       51.700       30.674       32.371       31.681       29.645     1047.851     1003.690      878.840        0.524        0.147       81.356       18.262        0.050      335.335        5.899      866.452
11/22/2013  15:32:00      100.791       65.877       33.402       27.720       25.646       19.353      768.404      657.718      374.521        0.871        0.090      120.410       10.552        0.008      335.407        6.019      866.446
11/22/2013  15:33:00       57.962       68.946        9.648       32.466       30.223       26.101     1054.054      913.403      681.259        0.543        0.132       90.073       17.041        0.036      335.377        5.969      866.436
11/22/2013  15:34:00       48.890       50.834       33.022       17.025       14.995       14.785      289.851      224.855      218.600        0.340        0.037       70.529        7.766        0.012      335.436        6.068      866.432
11/22/2013  15:35:00       40.363       77.749      -11.206       32.471       46.446       22.912     1054.388     2157.256      524.962        0.577        0.187       87.602       16.388        0.035      335.413        6.029      866.423
11/22/2013  15:36:00       41.159       85.089       -6.431       33.921       30.014       21.496     1150.605      900.845      462.068        0.574        0.126       94.521       17.807        0.035      335.354        5.932      866.420
11/22/2013  15:37:00       59.216       46.250       14.503       40.758       22.943       24.800     1661.205      526.385      615.052        0.433        0.140       75.138       15.568        0.043      335.444        6.081      866.412
11/22/2013  15:38:00      108.570       36.820       45.163       49.231       33.715       44.066     2423.716     1136.682     1941.781        1.034        0.275      114.644       32.148        0.079      335.425        6.049      866.405
11/22/2013  15:39:00       90.589       49.697       16.667       41.776       30.438       30.091     1745.235      926.451      905.497        0.726        0.179      103.326       17.157        0.028      335.381        5.978      866.383
11/22/2013  15:40:00       68.314       34.020       20.637       46.756       36.065       30.195     2186.153     1300.695      911.736        0.532        0.220       76.316       27.414        0.129      335.412        6.027      866.342
11/22/2013  15:41:00       20.219       26.850        0.840       25.518       25.299       13.836      651.161      640.040      191.433        0.131        0.074       33.612        6.051        0.032      335.486        6.149      866.323
11/22/2013  15:42:00       93.045       43.046       35.443       36.637       33.035       28.304     1342.255     1091.313      801.124        0.750        0.162      102.520       16.168        0.025      335.417        6.036      866.329
11/22/2013  15:43:00       73.386       71.166       69.460       51.931       45.018       34.466     2696.836     2026.599     1187.911        1.059        0.296      102.226       29.785        0.085      335.470        6.126      866.326
11/22/2013  15:44:00       41.812       35.030       33.215       28.758       36.320       28.770      827.026     1319.162      827.717        0.353        0.149       54.547       21.269        0.152      335.515        6.200      866.333
11/22/2013  15:45:00       26.636      -13.346       -2.769       26.997       22.450       10.324      728.814      504.015      106.579        0.112        0.067       29.793        8.653        0.084      335.609        6.357      866.324
11/22/2013  15:46:00       29.540       35.745       22.071       24.097       24.900       16.995      580.671      620.035      288.836        0.206        0.074       46.371       14.585        0.099      335.468        6.121      866.339
11/22/2013  15:47:00       87.759       32.202        7.860       29.226       28.880       29.193      854.166      834.040      852.250        0.567        0.127       93.481       10.423        0.012      335.429        6.055      866.355
11/22/2013  15:48:00       25.726      109.204      -15.501       29.175       44.420       18.837      851.170     1973.174      354.839        0.800        0.159      112.193       15.119        0.018      335.470        6.125      866.359
11/22/2013  15:49:00       14.236       43.315       -0.269       31.249       58.070       16.375      976.472     3372.154      268.135        0.335        0.231       45.595       15.827        0.120      335.500        6.176      866.330
11/22/2013  15:50:00       67.293      -18.676       18.588       43.533       43.554       27.948     1895.124     1896.958      781.068        0.490        0.229       69.836       31.568        0.204      335.498        6.171      866.305
11/22/2013  15:51:00      107.811       38.035       31.844       62.235       35.577       38.301     3873.155     1265.757     1466.953        1.034        0.330      114.323       34.789        0.093      335.458        6.104      866.309
11/22/2013  15:52:00       63.910       77.388       58.515       39.384       42.080       45.970     1551.124     1770.732     2113.199        0.947        0.272      100.367       20.650        0.042      335.465        6.116      866.347
11/22/2013  15:53:00       91.685       60.793        3.503       27.931       25.979       22.305      780.128      674.888      497.530        0.703        0.098      110.009       13.327        0.015      335.433        6.063      866.366
11/22/2013  15:54:00       12.886      -20.909        4.955       27.086       19.336       26.721      733.669      373.897      713.987        0.122        0.091       24.561       17.717        0.520      335.702        6.512      866.330
11/22/2013  15:55:00       30.976       16.210        9.683       20.082       32.407       23.989      403.297     1050.208      575.493        0.167        0.101       34.961       24.295        0.483      335.559        6.272      866.308
11/22/2013  15:56:00       92.985       83.322       -8.027       45.121       33.400       22.306     2035.892     1115.567      497.571        0.965        0.182      124.855       20.018        0.026      335.508        6.187      866.305
11/22/2013  15:57:00       22.539       94.378        4.139       84.297       69.128       37.457     7105.919     4778.728     1403.050        1.136        0.664       97.032       36.108        0.138      335.646        6.419      866.296
11/22/2013  15:58:00       65.985       99.959      -12.169       58.444       88.677       41.877     3415.657     7863.660     1753.717        1.376        0.652      119.774       40.725        0.116      335.608        6.354      866.294
11/22/2013  15:59:00       51.713      101.432       -3.676       54.988       64.423       37.272     3023.665     4150.349     1389.174        1.077        0.428      113.854       24.463        0.046      335.616        6.369      866.289
11/22/2013  16:00:00       52.108       48.654       15.241       35.381       29.260       26.524     1251.844      856.124      703.534        0.406        0.141       71.291       20.876        0.086      335.621        6.378      866.259
11/22/2013  16:01:00       73.872       41.454       23.175       30.783       30.877       27.633      947.609      953.391      763.608        0.519        0.133       84.708       15.316        0.033      335.607        6.354      866.267
11/22/2013  16:02:00       91.207       43.419       19.176       45.092       36.341       36.435     2033.285     1320.670     1327.540        0.763        0.234      101.014       26.593        0.069      335.666        6.453      866.280
11/22/2013  16:03:00       73.348      103.097       57.998       63.014       46.212       67.072     3970.709     2135.594     4498.627        1.499        0.530      126.526       49.827        0.155      335.667        6.454      866.272
11/22/2013  16:04:00       98.461       87.844       42.721       40.792       40.020       35.341     1664.020     1601.631     1248.968        1.187        0.226      131.951       21.277        0.026      335.661        6.444      866.272
11/22/2013  16:05:00      121.003       84.363       53.000       75.639       48.046       43.429     5721.310     2308.372     1886.079        1.724        0.496      147.509       28.683        0.038      335.596        6.335      866.281
11/22/2013  16:06:00      155.172       58.183       50.526       97.184       78.901       59.598     9444.804     6225.363     3551.939        2.462        0.961      165.721       59.147        0.127      335.591        6.325      866.282
11/22/2013  16:07:00      100.801       68.171       96.482       56.286       61.351       41.471     3168.096     3763.958     1719.850        1.638        0.433      121.689       45.158        0.138      335.615        6.368      866.301
11/22/2013  16:08:00       92.885      -45.577       31.265       77.761       77.881       49.292     6046.837     6065.457     2429.682        1.311        0.727      103.464       54.157        0.274      335.729        6.557      866.282
11/22/2013  16:09:00       49.802      -25.355       11.846       44.123       62.625       48.695     1946.836     3921.917     2371.200        0.575        0.412       55.885       39.048        0.488      335.701        6.512      866.274
11/22/2013  16:10:00       25.907      -18.804       51.207       33.614       48.348       33.193     1129.895     2337.576     1101.781        0.411        0.228       32.012       31.481        0.967      335.675        6.467      866.286
11/22/2013  16:11:00       85.838       60.587       30.973       49.579       31.841       28.607     2458.054     1013.863      818.369        0.814        0.215      105.067       21.856        0.043      335.613        6.364      866.292
11/22/2013  16:12:00       63.444       24.634       12.315       35.742       27.850       21.902     1277.491      775.615      479.699        0.366        0.127       68.059       17.433        0.066      335.604        6.348      866.296
11/22/2013  16:13:00       62.056       40.041        9.673       29.866       24.042       20.882      891.995      578.005      436.065        0.373        0.095       73.852       15.539        0.044      335.513        6.196      866.280
11/22/2013  16:14:00       72.743       35.081       13.909       24.479       24.481       23.650      599.245      599.297      559.326        0.424        0.088       80.760       10.589        0.017      335.483        6.146      866.266
11/22/2013  16:15:00       41.461       38.139       42.693       23.329       31.809       24.213      544.240     1011.790      586.257        0.357        0.107       56.335       22.106        0.154      335.519        6.208      866.238
11/22/2013  16:16:00       94.745       75.897       60.851       51.440       38.847       40.962     2646.116     1509.114     1677.878        1.214        0.292      121.395       40.227        0.110      335.638        6.407      866.248
11/22/2013  16:17:00       87.841       50.747       37.324       39.083       32.583       27.268     1527.509     1061.657      743.569        0.751        0.167      101.446       22.764        0.050      335.501        6.178      866.256
11/22/2013  16:18:00       60.937        5.907       27.812       26.332       42.513       26.468      693.383     1807.391      700.550        0.386        0.160       61.223       19.560        0.102      335.534        6.231      866.275
11/22/2013  16:19:00       25.299      -53.086       10.729       25.110       36.095       20.677      630.506     1302.827      427.522        0.297        0.118       58.806        9.709        0.027      335.718        6.539      866.256
11/22/2013  16:20:00       65.535     -100.411       11.075       47.433       72.601       42.911     2249.867     5270.914     1841.332        1.193        0.468      119.905       47.830        0.159      335.705        6.517      866.212
11/22/2013  16:21:00       88.577     -130.855        3.490       48.139       69.658       39.518     2317.368     4852.243     1561.712        1.685        0.437      158.016       38.911        0.061      335.680        6.474      866.208
11/22/2013  16:22:00       70.521      -25.866       17.819       50.306       61.436       37.398     2530.706     3774.374     1398.583        0.683        0.385       75.115       45.309        0.364      335.555        6.266      866.187
11/22/2013  16:23:00       74.892       46.875       30.705       51.217       37.984       30.319     2623.181     1442.804      919.231        0.687        0.249       88.352       20.411        0.053      335.540        6.242      866.200
11/22/2013  16:24:00      118.807       73.766       18.871       39.147       47.110       35.695     1532.514     2219.357     1274.128        1.247        0.251      139.845       18.785        0.018      335.429        6.057      866.200
11/22/2013  16:25:00       88.390       60.212       -5.397       45.824       34.108       29.474     2099.816     1163.381      868.734        0.780        0.207      106.950       15.199        0.020      335.399        6.007      866.196
11/22/2013  16:26:00       50.404       35.905       -2.458       34.635       25.264       22.963     1199.576      638.276      527.290        0.310        0.118       61.885       16.109        0.068      335.339        5.905      866.193
11/22/2013  16:27:00       70.020       50.844       11.479       37.049       34.595       25.276     1372.625     1196.817      638.864        0.541        0.160       86.533        9.754        0.013      335.416        6.034      866.183
11/22/2013  16:28:00       22.374        4.610        8.895       19.572       26.393       19.605      383.074      696.565      384.351        0.103        0.073       22.843       14.274        0.390      335.447        6.087      866.177
11/22/2013  16:29:00       56.916      -60.475        7.508       33.463       34.538       23.835     1119.753     1192.878      568.124        0.492        0.144       83.046       21.739        0.069      335.611        6.361      866.177
11/22/2013  16:30:00        8.898      -79.752       -5.681       34.347       43.513       30.613     1179.700     1893.372      937.183        0.524        0.201       80.246       12.707        0.025      335.614        6.366      866.148
11/22/2013  16:31:00       55.553      -99.375      -20.498       49.941       42.434       33.482     2494.130     1800.625     1121.015        0.940        0.271      113.849       24.161        0.045      335.728        6.556      866.130
11/22/2013  16:32:00       68.242      -97.163        4.823       45.845       51.734       44.669     2101.769     2676.440     1995.349        1.045        0.339      118.733       23.804        0.040      335.742        6.578      866.122
11/22/2013  16:33:00       33.295      -38.471       14.393       30.759       40.612       39.713      946.111     1649.371     1577.119        0.348        0.209       50.877       25.163        0.245      335.726        6.553      866.131
11/22/2013  16:34:00       71.128     -121.148       -4.079       58.529       64.775       41.045     3425.617     4195.832     1684.660        1.453        0.465      140.485       40.566        0.083      335.577        6.302      866.124
11/22/2013  16:35:00       30.814       52.795       86.699       61.659       77.361       57.503     3801.866     5984.766     3306.564        1.217        0.655       61.129       68.650        1.261      335.453        6.096      866.129
11/22/2013  16:36:00       50.877       48.367       23.308       36.228       41.358       25.702     1312.441     1710.498      660.585        0.458        0.184       70.198       14.342        0.042      335.393        5.996      866.142
11/22/2013  16:37:00       34.920       28.161       16.803       25.850       19.874       19.058      668.246      394.972      363.225        0.186        0.071       44.860       14.229        0.101      335.309        5.856      866.162
11/22/2013  16:38:00       32.071       33.307       37.127       25.839       30.796       19.182      667.651      948.410      367.938        0.275        0.099       46.237       15.862        0.118      335.226        5.718      866.165
11/22/2013  16:39:00       -9.250        1.331       24.025       13.753       22.550       14.430      189.136      508.496      208.217        0.079        0.045        9.345        9.228        0.975      335.239        5.740      866.155
11/22/2013  16:40:00        7.916       15.193       29.219       19.689       37.783       29.962      387.667     1427.525      897.712        0.193        0.136       17.131       29.618        2.989      335.290        5.826      866.155
11/22/2013  16:41:00       40.911       44.867       28.189       22.568       17.300       16.665      509.302      299.280      277.715        0.278        0.054       60.719       11.206        0.034      335.221        5.710      866.151
11/22/2013  16:42:00       38.104       16.359       38.936       42.406       47.782       29.358     1798.286     2283.149      861.915        0.409        0.247       41.467       35.993        0.753      335.251        5.760      866.156
11/22/2013  16:43:00       24.292       26.961       53.797       51.947       44.256       29.707     2698.491     1958.577      882.489        0.487        0.277       36.291       32.973        0.826      335.236        5.737      866.162
11/22/2013  16:44:00       14.150       24.097       47.618       29.968       31.149       29.080      898.090      970.232      845.635        0.288        0.136       27.944       13.629        0.238      335.151        5.596      866.150
11/22/2013  16:45:00        5.681       -4.015       66.322       39.267       68.421       38.388     1541.896     4681.435     1473.600        0.607        0.385        6.957       36.067       26.881      335.176        5.637      866.165
11/22/2013  16:46:00        9.946        4.953       56.344       48.816       74.145       40.230     2383.006     5497.475     1618.489        0.640        0.475       11.111       43.491       15.322      335.173        5.633      866.164
11/22/2013  16:47:00       28.122      -14.939       34.749       44.926       51.898       43.794     2018.318     2693.351     1917.914        0.442        0.331       31.844       42.662        1.795      335.216        5.700      866.142
11/22/2013  16:48:00      -11.601        5.978       -4.738       14.064       20.420       14.284      197.788      416.978      204.025        0.051        0.041       13.051        4.638        0.126      335.221        5.710      866.138
11/22/2013  16:49:00       -1.801       20.714       26.604       21.654       18.831       23.538      468.881      354.622      554.052        0.126        0.069       20.792       13.637        0.430      335.093        5.500      866.133
11/22/2013  16:50:00      -11.598       -0.552       35.537       17.605       27.321       16.044      309.949      746.441      257.424        0.136        0.066       11.611       12.604        1.178      335.109        5.525      866.144
11/22/2013  16:51:00       13.739      -48.141       22.811       40.081       62.879       29.890     1606.476     3953.745      893.389        0.474        0.323       50.063       35.217        0.495      335.201        5.678      866.156
11/22/2013  16:52:00       23.386        5.355       42.675       48.520       61.426       35.996     2354.194     3773.160     1295.745        0.491        0.371       23.991       42.139        3.085      335.086        5.488      866.168
11/22/2013  16:53:00       16.543      -26.599       34.137       60.473       77.090       37.630     3657.010     5942.924     1416.046        0.658        0.551       31.324       47.230        2.273      335.011        5.363      866.170
11/22/2013  16:54:00       -8.671      -17.922       12.708       37.890       31.113       27.734     1435.680      968.004      769.164        0.186        0.159       19.909       10.733        0.291      335.072        5.463      866.161
11/22/2013  16:55:00        6.314       -6.697       33.768       31.967       41.431       30.844     1021.872     1716.501      951.327        0.246        0.184        9.204       18.150        3.888      335.062        5.447      866.157
11/22/2013  16:56:00       -8.440       22.143       57.753       21.645       37.259       25.155      468.499     1388.234      632.789        0.319        0.124       23.697       24.183        1.041      334.976        5.303      866.165
11/22/2013  16:57:00       15.994        6.095       42.548       33.184       63.327       36.600     1101.147     4010.290     1339.596        0.428        0.323       17.116       44.752        6.836      334.993        5.332      866.173
11/22/2013  16:58:00        1.504       28.665       57.947       23.228       46.617       36.474      539.532     2173.187     1330.330        0.411        0.202       28.705       35.817        1.557      335.023        5.383      866.171
11/22/2013  16:59:00       32.503       30.484       67.648       51.634       42.846       37.496     2666.049     1835.784     1405.960        0.623        0.295       44.562       38.235        0.736      335.073        5.466      866.168
11/22/2013  17:00:00        5.867       30.996       63.399       59.121       45.836       35.024     3495.289     2100.918     1226.655        0.592        0.341       31.546       38.769        1.510      335.024        5.383      866.157
11/22/2013  17:01:00       50.923      -50.874       16.033       37.414       63.268       43.970     1399.845     4002.787     1933.383        0.639        0.367       71.982       42.283        0.345      335.031        5.396      866.139
11/22/2013  17:02:00       86.465     -133.261      -23.577       65.423       41.571       30.204     4280.230     1728.155      912.310        1.635        0.346      158.854       30.342        0.036      335.076        5.470      866.129
11/22/2013  17:03:00       76.585      -79.344       -4.419       55.844       71.970       41.208     3118.558     5179.726     1698.117        1.109        0.500      110.276       43.650        0.157      335.060        5.444      866.132
11/22/2013  17:04:00       44.308      -40.434       21.064       52.458       59.348       35.475     2751.832     3522.156     1258.462        0.579        0.377       59.984       40.857        0.464      335.060        5.444      866.153
11/22/2013  17:05:00       11.337       30.842       63.090       34.719       56.467       39.087     1205.434     3188.571     1527.806        0.549        0.296       32.860       43.100        1.720      334.940        5.245      866.161
11/22/2013  17:06:00        8.746       20.513       60.609       30.854       49.712       23.010      951.998     2471.251      529.466        0.406        0.198       22.300       29.578        1.759      334.909        5.193      866.158
11/22/2013  17:07:00       18.243       23.840       61.428       32.310       52.361       26.092     1043.938     2741.700      680.791        0.457        0.223       30.019       27.693        0.851      334.925        5.219      866.147
11/22/2013  17:08:00       63.104        7.988       47.185       55.445       78.910       47.574     3074.112     6226.734     2263.289        0.892        0.578       63.608       59.632        0.879      334.953        5.265      866.154
11/22/2013  17:09:00       68.581       16.633       29.960       39.879       60.995       44.261     1590.318     3720.417     1959.018        0.657        0.363       70.569       38.612        0.299      334.918        5.208      866.168
11/22/2013  17:10:00       58.318       38.042        9.429       38.315       25.345       18.989     1468.016      642.367      360.591        0.370        0.124       69.629       16.926        0.059      334.625        4.720      866.178
11/22/2013  17:11:00       27.885       33.964        2.558       28.654       31.324       17.166      821.032      981.219      294.674        0.202        0.105       43.944       17.121        0.152      334.496        4.508      866.180
11/22/2013  17:12:00       34.627       40.506       -4.957       28.851       31.077       21.747      832.383      965.752      472.913        0.257        0.114       53.290       18.322        0.118      334.521        4.549      866.194
11/22/2013  17:13:00       28.805       52.306       -5.321       20.727       39.038       17.811      429.618     1523.985      317.246        0.293        0.114       59.713       18.976        0.101      334.559        4.610      866.199
11/22/2013  17:14:00       16.684       78.915      -14.229       17.878       11.348        6.864      319.622      128.770       47.118        0.360        0.025       80.660        6.838        0.007      334.799        5.009      866.185
11/22/2013  17:15:00       16.129       40.361       -9.348       11.178       24.382        8.441      124.946      594.478       71.246        0.138        0.040       43.464       11.060        0.065      334.796        5.005      866.167
11/22/2013  17:16:00       40.820       31.519        1.482       18.605       17.267       14.875      346.153      298.137      221.269        0.176        0.043       51.572        6.184        0.014      334.695        4.838      866.167
11/22/2013  17:17:00       76.997       39.240       14.048       16.420       14.422       13.097      269.605      207.987      171.543        0.416        0.032       86.419        5.504        0.004      334.736        4.906      866.163
11/22/2013  17:18:00       73.855       22.548       41.353       30.080       32.481       32.334      904.805     1054.999     1045.479        0.534        0.150       77.220       26.886        0.121      334.798        5.008      866.150
11/22/2013  17:19:00       -8.907      -39.717       21.254       29.593       21.638       25.880      875.774      468.195      669.783        0.206        0.101       40.704       10.001        0.060      334.889        5.160      866.130
11/22/2013  17:20:00       -8.008      -24.577        9.506       27.338       29.371       16.546      747.365      862.679      273.761        0.132        0.094       25.849       18.076        0.489      334.785        4.987      866.121
11/22/2013  17:21:00        0.466       14.396       22.037       28.630       12.673       18.968      819.683      160.612      359.792        0.102        0.067       14.403       17.724        1.514      334.662        4.782      866.113
11/22/2013  17:22:00      -32.413        8.869       -4.462       28.353       38.552       21.504      803.909     1486.263      462.430        0.195        0.138       33.605       16.312        0.236      334.944        5.251      866.120
11/22/2013  17:23:00      -17.959       11.464       16.751       15.310       20.262       16.034      234.394      410.561      257.092        0.082        0.045       21.306       10.372        0.237      334.734        4.903      866.122
11/22/2013  17:24:00        8.836       18.519       15.391       20.017       17.434       17.065      400.690      303.946      291.203        0.083        0.050       20.519       13.307        0.421      334.720        4.879      866.100
11/22/2013  17:25:00        4.072       37.140       -2.713       16.876       43.372       17.098      284.805     1881.097      292.328        0.193        0.123       37.363       23.573        0.398      334.652        4.767      866.099
11/22/2013  17:26:00       11.485      108.863      -18.590       22.118       30.780       10.383      489.215      947.412      107.799        0.694        0.077      109.467       10.566        0.009      334.501        4.515      866.093
11/22/2013  17:27:00       29.136      135.694      -20.410       22.843       26.852       18.913      521.790      721.031      357.706        1.064        0.080      138.787       16.111        0.013      334.539        4.579      866.091
11/22/2013  17:28:00       32.510      122.290      -11.147       23.890       38.951       25.005      570.720     1517.143      625.265        0.942        0.136      126.538       25.455        0.040      334.529        4.563      866.096
11/22/2013  17:29:00       31.796      126.745      -18.795       26.046       32.194       20.743      678.419     1036.448      430.292        0.979        0.107      130.673       18.480        0.020      334.538        4.577      866.114
11/22/2013  17:30:00       19.796       85.360      -15.903       14.951       29.090       11.601      223.540      846.252      134.576        0.457        0.060       87.626        6.524        0.006      334.812        5.033      866.095
11/22/2013  17:31:00      -13.674       48.797      -11.012       14.209       12.374        6.276      201.905      153.122       39.392        0.154        0.020       50.677        7.061        0.019      334.898        5.175      866.080
11/22/2013  17:32:00      -33.509       -2.263       -5.725       11.778       15.745        6.767      138.718      247.909       45.788        0.080        0.022       33.585        5.767        0.029      334.695        4.838      866.060
11/22/2013  17:33:00       -2.226       -6.246       -0.301       14.257        9.635        8.674      203.257       92.831       75.238        0.021        0.019        6.631        6.959        1.102      334.625        4.720      866.061
11/22/2013  17:34:00      -15.768       -0.067       -3.939       15.903       10.471        7.004      252.897      109.632       49.051        0.034        0.021       15.768        5.778        0.134      334.744        4.919      866.049
11/22/2013  17:35:00       -0.770       18.254        5.737       18.165       22.248       15.521      329.949      494.968      240.901        0.072        0.053       18.270       12.232        0.448      334.841        5.080      866.064
11/22/2013  17:36:00       43.874       40.812       12.255        7.213        5.958       14.553       52.022       35.501      211.786        0.202        0.015       59.922        5.976        0.010      334.775        4.971      866.085
11/22/2013  17:37:00       27.485       34.862       -4.657       29.392       24.837       18.932      863.864      616.880      358.434        0.192        0.092       44.393       13.611        0.094      334.570        4.631      866.094
11/22/2013  17:38:00       29.851       38.864       -1.648       30.930       26.745       19.779      956.661      715.290      391.227        0.223        0.103       49.005       18.061        0.136      334.441        4.417      866.097
11/22/2013  17:39:00       20.967       43.725        3.135       26.310       29.992       19.235      692.237      899.548      369.991        0.216        0.098       48.492       18.827        0.151      334.396        4.342      866.093
11/22/2013  17:40:00       -0.923      126.851      -20.763       15.602       24.086        9.661      243.423      580.150       93.327        0.872        0.046      126.854        8.379        0.004      334.453        4.435      866.091
11/22/2013  17:41:00      -20.416       58.449       -4.245       16.905       38.677       14.276      285.791     1495.942      203.816        0.292        0.099       61.912       16.088        0.068      334.502        4.517      866.091
11/22/2013  17:42:00      -24.068       -8.874       -7.381       18.872       11.088       10.496      356.141      122.952      110.158        0.065        0.029       25.651        6.578        0.066      334.325        4.225      866.100
11/22/2013  17:43:00      -28.073       -8.093       -3.915       14.457        7.874        8.025      208.992       62.005       64.406        0.060        0.017       29.217        2.411        0.007      334.087        3.830      866.111
11/22/2013  17:44:00      -24.768      -21.691       -6.555       21.379       17.865       11.330      457.047      319.152      128.369        0.102        0.045       32.924       10.525        0.102      334.054        3.774      866.104
11/22/2013  17:45:00      -46.010       -6.838       -7.249       13.261       12.915        7.889      175.860      166.789       62.238        0.131        0.020       46.516        6.117        0.017      334.090        3.832      866.108
11/22/2013  17:46:00      -22.599      -23.227        1.612       18.417       15.808       11.224      339.177      249.891      125.967        0.088        0.036       32.407        9.453        0.085      334.088        3.830      866.084
11/22/2013  17:47:00      -25.433      -21.551       -6.309       14.651        8.696        5.928      214.666       75.616       35.142        0.074        0.016       33.336        5.934        0.032      334.346        4.260      866.072
11/22/2013  17:48:00      -20.195       -6.559       -4.077        7.848        8.818        6.623       61.592       77.754       43.864        0.033        0.009       21.233        3.977        0.035      334.345        4.258      866.063
11/22/2013  17:49:00      -17.488        7.893       -5.016        6.138        9.639        4.412       37.681       92.906       19.470        0.027        0.008       19.187        3.917        0.042      334.501        4.515      866.043
11/22/2013  17:50:00        6.534       18.592       22.956       20.201       13.965       18.307      408.086      195.019      335.154        0.093        0.047       19.706       10.192        0.267      334.355        4.273      866.057
11/22/2013  17:51:00       -1.361      -19.105        9.422       15.742       18.714       15.198      247.825      350.232      230.991        0.064        0.041       19.153        9.583        0.250      334.214        4.040      866.085
11/22/2013  17:52:00      -43.226        5.925       -3.023       27.595       22.502       18.147      761.498      506.323      329.298        0.175        0.080       43.630       19.101        0.192      333.942        3.588      866.089
11/22/2013  17:53:00      -73.402      -30.848       -8.268       31.148       35.003       19.917      970.193     1225.240      396.669        0.450        0.130       79.621       16.702        0.044      333.651        3.105      866.095
11/22/2013  17:54:00      -58.251      -22.420       -3.516       31.060       34.189       22.169      964.710     1168.888      491.459        0.327        0.131       62.417       15.801        0.064      333.589        3.003      866.097
11/22/2013  17:55:00      -95.946      -24.785      -11.890       28.630       19.887       13.735      819.693      395.481      188.650        0.568        0.070       99.096       11.394        0.013      333.551        2.938      866.084
11/22/2013  17:56:00      -58.483      -42.288      -12.825       27.268       26.142       14.752      743.518      683.381      217.623        0.351        0.082       72.170        7.595        0.011      333.679        3.152      866.073
11/22/2013  17:57:00      -85.412      -31.458      -10.232       28.866       17.673       14.875      833.238      312.335      221.257        0.488        0.068       91.021       15.665        0.030      333.645        3.096      866.068
11/22/2013  17:58:00      -93.580      -15.883      -13.978       20.443       24.625       13.442      417.911      606.394      180.677        0.520        0.060       94.918       10.945        0.013      333.631        3.073      866.058
11/22/2013  17:59:00      -87.564      -10.975      -12.851       12.055       12.902        9.066      145.329      166.470       82.188        0.417        0.020       88.249        8.786        0.010      333.740        3.254      866.062
11/22/2013  18:00:00      -83.792      -20.679       -8.311       16.622       13.096       10.275      276.295      171.508      105.577        0.404        0.028       86.306        9.589        0.012      333.831        3.406      866.087
11/22/2013  18:01:00      -79.909      -27.200      -10.385       20.009       16.727       12.847      400.357      279.778      165.058        0.404        0.042       84.412       11.130        0.017      333.827        3.397      866.119
11/22/2013  18:02:00      -80.204      -24.965       -7.482       23.539       17.731       13.596      554.099      314.406      184.849        0.408        0.053       84.000       10.057        0.014      333.587        2.999      866.128
11/22/2013  18:03:00      -21.081        2.153       -2.247       24.724       22.975       15.493      611.297      527.853      240.039        0.092        0.069       21.191        9.504        0.201      333.502        2.858      866.158
11/22/2013  18:04:00      -14.211       27.915       -7.774       27.630       33.207       17.119      763.424     1102.726      293.066        0.160        0.108       31.324       17.117        0.299      333.600        3.022      866.174
11/22/2013  18:05:00      -48.115      -13.960       -4.983       14.232       19.462       11.036      202.555      378.783      121.792        0.162        0.035       50.099        6.284        0.016      333.579        2.986      866.159
11/22/2013  18:06:00      -51.721      -21.319       -5.264       12.778       18.269       20.468      163.277      333.763      418.946        0.204        0.046       55.943        7.558        0.018      333.604        3.028      866.153
11/22/2013  18:07:00      -47.939      -23.397      -13.737       16.745       21.499       15.436      280.403      462.187      238.265        0.201        0.049       53.344       15.214        0.081      333.733        3.242      866.165
11/22/2013  18:08:00      -49.662      -21.628       -6.685       13.010       11.998       12.524      169.249      143.942      156.841        0.172        0.024       54.167       11.524        0.045      333.852        3.439      866.167
11/22/2013  18:09:00      -76.638      -24.170      -13.889        8.061        9.161        6.744       64.987       83.925       45.488        0.342        0.010       80.359        2.697        0.001      333.704        3.193      866.152
11/22/2013  18:10:00      -77.249      -32.082      -10.677        9.829       10.653        9.098       96.606      113.493       82.765        0.370        0.015       83.646        7.090        0.007      333.573        2.976      866.113
11/22/2013  18:11:00      -93.138      -37.343       -8.083       13.348       17.300       11.604      178.158      299.298      134.659        0.537        0.031      100.345        7.281        0.005      333.520        2.887      866.083
11/22/2013  18:12:00      -95.856      -46.596      -13.296       15.696       26.587       16.164      246.357      706.878      261.279        0.638        0.061      106.582       10.889        0.010      333.427        2.735      866.097
11/22/2013  18:13:00     -110.524      -25.706      -13.452       19.117       22.411       13.607      365.450      502.251      185.149        0.705        0.053      113.474       10.946        0.009      333.402        2.693      866.098
11/22/2013  18:14:00     -113.980      -30.791      -10.667       24.387       17.634       14.025      594.702      310.969      196.701        0.758        0.055      118.065       13.127        0.012      333.393        2.677      866.065
11/22/2013  18:15:00     -102.046      -57.031      -11.756       16.763       18.479       11.703      281.000      341.463      136.957        0.728        0.038      116.901        7.580        0.004      333.381        2.659      866.034
11/22/2013  18:16:00      -57.459      -31.943       -5.763       22.996       20.176       11.795      528.827      407.053      139.125        0.271        0.054       65.741        8.525        0.017      333.429        2.736      866.020
11/22/2013  18:17:00      -43.459        2.912       -4.498       18.804       13.603        7.008      353.600      185.054       49.113        0.125        0.029       43.557        6.896        0.025      333.431        2.741      866.051
11/22/2013  18:18:00      -56.468       23.633       -8.144        8.277        8.849        7.664       68.516       78.300       58.732        0.201        0.010       61.214        3.892        0.004      333.516        2.882      866.097
11/22/2013  18:19:00        1.069       34.897       -7.905       33.943       21.926       14.140     1152.149      480.758      199.950        0.156        0.092       34.914       11.817        0.115      333.424        2.729      866.121
11/22/2013  18:20:00       70.619       66.959       -1.950       49.378       52.878       24.494     2438.170     2796.088      599.936        0.765        0.292       97.316       18.837        0.037      333.195        2.350      866.147
11/22/2013  18:21:00      114.007       56.561        8.750       34.283       26.541       24.539     1175.293      704.439      602.186        0.938        0.124      127.267        9.074        0.005      333.335        2.582      866.177
11/22/2013  18:22:00       -5.984        5.252       -7.593       16.575       18.385        9.003      274.723      338.007       81.056        0.041        0.035        7.962        6.510        0.668      333.666        3.131      866.171
11/22/2013  18:23:00       -2.030      -29.820       -9.684       17.483       16.347        8.199      305.653      267.234       67.226        0.081        0.032       29.889        6.014        0.040      333.894        3.509      866.151
11/22/2013  18:24:00        0.125      -20.442        5.748       11.816       15.473        8.338      139.617      239.411       69.523        0.045        0.022       20.442        6.703        0.108      333.836        3.412      866.140
11/22/2013  18:25:00      -52.625       -5.404       -6.868       19.076       11.487        7.063      363.890      131.944       49.893        0.170        0.027       52.902        3.325        0.004      333.589        3.002      866.143
11/22/2013  18:26:00      -69.748      -34.941      -12.395        8.172       10.906        7.078       66.783      118.951       50.100        0.324        0.012       78.011        2.382        0.001      333.531        2.906      866.140
11/22/2013  18:27:00      -73.608       -7.833       -7.622       10.247       16.323        7.157      105.008      266.437       51.227        0.298        0.021       74.024        5.147        0.005      333.550        2.937      866.121
11/22/2013  18:28:00      -84.299       12.363      -11.513        6.913       15.836        5.808       47.791      250.780       33.728        0.386        0.017       85.201        6.754        0.006      334.041        3.753      866.118
11/22/2013  18:29:00      -70.220       48.351      -19.414       14.153       16.031        9.076      200.306      256.993       82.374        0.409        0.027       85.257        5.362        0.004      333.869        3.467      866.143
11/22/2013  18:30:00      -29.657       47.383       -1.996       19.247       20.880       12.499      370.443      435.973      156.217        0.205        0.048       55.899       14.656        0.069      334.022        3.722      866.163
11/22/2013  18:31:00       20.346       50.958       -8.464       20.097       19.794       10.675      403.874      391.808      113.961        0.200        0.045       54.869       10.837        0.039      334.054        3.774      866.189
11/22/2013  18:32:00       25.295        9.108        0.761       19.757       18.572       15.714      390.357      344.916      246.923        0.085        0.049       26.885        6.465        0.058      333.551        2.940      866.203
11/22/2013  18:33:00      -15.377       26.140       -3.451       14.544       16.066       11.605      211.517      258.106      134.671        0.077        0.030       30.327        6.751        0.050      333.319        2.555      866.209
11/22/2013  18:34:00      -20.440       53.354      -14.962       19.762       27.915        9.126      390.532      779.261       83.285        0.237        0.063       57.136        7.778        0.019      333.497        2.851      866.202
11/22/2013  18:35:00      -18.368       -9.983       -0.146       23.561       22.532       10.242      555.114      507.702      104.893        0.080        0.058       20.906       12.234        0.342      333.599        3.020      866.193
11/22/2013  18:36:00      -17.660      -12.849       -5.771       13.981        9.678        6.941      195.468       93.663       48.182        0.042        0.017       21.840        7.647        0.123      333.393        2.678      866.191
11/22/2013  18:37:00      -11.289       -4.870        2.059        7.368        9.040        3.940       54.290       81.730       15.521        0.015        0.008       12.295        4.044        0.108      333.417        2.716      866.184
11/22/2013  18:38:00       -2.142       17.654       -5.747        9.001        8.959        8.166       81.010       80.261       66.680        0.029        0.011       17.783        3.813        0.046      333.606        3.031      866.175
11/22/2013  18:39:00       10.848       41.774       -8.060       24.612       24.747        8.403      605.747      612.392       70.607        0.161        0.064       43.159        6.195        0.021      333.640        3.087      866.162
11/22/2013  18:40:00       33.717       53.425       -4.381       20.287       33.998       20.851      411.567     1155.863      434.767        0.301        0.100       63.175       19.891        0.099      333.627        3.065      866.150
11/22/2013  18:41:00       26.813       46.029       -3.138       16.767       20.334       15.698      281.116      413.481      246.418        0.189        0.047       53.269       10.112        0.036      333.619        3.052      866.150
11/22/2013  18:42:00       13.821        2.361       -5.904        9.068       23.086        7.037       82.234      532.967       49.520        0.045        0.033       14.021        8.906        0.404      333.912        3.537      866.137
11/22/2013  18:43:00      -24.733      -32.971        3.067       29.587       12.370       15.580      875.377      153.019      242.727        0.149        0.064       41.217       11.622        0.080      333.684        3.162      866.110
11/22/2013  18:44:00      -45.384      -46.250       -4.979       33.806       24.734       19.314     1142.874      611.756      373.036        0.318        0.106       64.797       11.293        0.030      333.648        3.100      866.090
11/22/2013  18:45:00        4.609       -0.771       -0.234       24.646       23.083       17.420      607.445      532.811      303.449        0.073        0.072        4.673        8.206        3.084      333.781        3.321      866.094
11/22/2013  18:46:00      -93.813      -34.068        3.924       45.602       43.812       19.904     2079.541     1919.506      396.166        0.719        0.220       99.808        9.067        0.008      333.915        3.543      866.102
11/22/2013  18:47:00     -115.410      -71.645       -0.809       62.279       41.796       29.468     3878.674     1746.900      868.386        1.247        0.325      135.840       20.977        0.024      333.814        3.374      866.076
11/22/2013  18:48:00     -137.332      -36.140       -1.867       48.779       40.187       25.550     2379.409     1614.972      652.819        1.241        0.232      142.008       22.088        0.024      333.564        2.961      866.074
11/22/2013  18:49:00      -47.422       48.208       -2.829       44.115       43.069       24.714     1946.170     1854.901      610.794        0.450        0.221       67.623       26.266        0.151      333.389        2.671      866.124
11/22/2013  18:50:00       17.247       57.464       -7.636       49.092       40.750       24.978     2410.005     1660.576      623.878        0.418        0.235       59.997       19.839        0.109      333.372        2.643      866.177
11/22/2013  18:51:00       43.112       80.244        0.644       56.210       56.630       33.136     3159.619     3206.913     1097.985        0.788        0.373       91.092       25.329        0.077      333.015        2.053      866.196
11/22/2013  18:52:00        1.814      155.113      -28.117       32.381       27.867       15.782     1048.524      776.574      249.066        1.346        0.104      155.124       15.377        0.010      333.482        2.826      866.187
11/22/2013  18:53:00      -67.481       30.622      -15.139       32.157       61.403       18.516     1034.068     3770.345      342.837        0.543        0.257       74.104       10.708        0.021      333.508        2.870      866.179
11/22/2013  18:54:00     -124.099      -46.206      -17.070       21.055       23.947       14.208      443.331      573.458      201.864        0.952        0.061      132.422        7.783        0.003      333.149        2.273      866.136
11/22/2013  18:55:00      -91.103      -50.823       -5.382       28.195       24.577       15.386      794.951      604.053      236.739        0.627        0.082      104.321       12.109        0.013      333.113        2.215      866.087
11/22/2013  18:56:00      -36.039      -19.724       -3.962       27.861       28.584       15.217      776.225      817.055      231.565        0.176        0.091       41.083       16.237        0.156      333.086        2.170      866.096
11/22/2013  18:57:00      -28.480       20.397       -8.273       18.002       25.521       11.569      324.061      651.297      133.841        0.120        0.055       35.031       10.591        0.091      333.490        2.839      866.131
11/22/2013  18:58:00      -68.212       26.342      -13.953       54.716       23.330       17.116     2993.824      544.304      292.946        0.469        0.192       73.122       16.832        0.053      333.616        3.048      866.146
11/22/2013  18:59:00     -100.834       -2.043      -13.140       33.857       22.625       18.629     1146.269      511.888      347.026        0.617        0.100      100.855       16.173        0.026      333.460        2.789      866.114
11/22/2013  19:00:00      -68.701      -16.994      -14.509       28.468       27.609       15.295      810.422      762.229      233.935        0.351        0.090       70.772        7.872        0.012      333.332        2.578      866.095
11/22/2013  19:01:00      -20.102       -2.905       -8.207       15.021       20.380       14.118      225.635      415.346      199.327        0.066        0.042       20.311       11.677        0.331      333.434        2.747      866.103
11/22/2013  19:02:00      -20.188      -12.969       -3.394       14.306       14.583        6.516      204.667      212.662       42.458        0.052        0.023       23.994        7.270        0.092      333.484        2.830      866.110
11/22/2013  19:03:00      -61.952      -11.716      -11.379       11.362       13.786        7.746      129.094      190.041       59.996        0.224        0.019       63.050        9.042        0.021      333.679        3.151      866.097
11/22/2013  19:04:00      -64.329       -3.972       -7.047       10.959        8.144        7.898      120.108       66.332       62.386        0.223        0.012       64.452        2.468        0.001      333.635        3.079      866.093
11/22/2013  19:05:00       14.566       14.255       -0.913       39.619       31.663       25.783     1569.694     1002.543      664.783        0.183        0.162       20.381       18.809        0.852      333.305        2.531      866.096
11/22/2013  19:06:00       61.317       37.208       -8.314       30.216       24.563       17.277      912.985      603.325      298.502        0.351        0.091       71.723       12.246        0.029      333.199        2.357      866.114
11/22/2013  19:07:00       37.249       32.659       -7.731        8.908        6.697        7.372       79.351       44.849       54.353        0.135        0.009       49.539        5.059        0.010      333.611        3.039      866.109
11/22/2013  19:08:00       34.367       40.077       -5.423       11.617       12.487        7.849      134.953      155.924       61.613        0.158        0.018       52.795        7.189        0.019      333.546        2.931      866.121
11/22/2013  19:09:00        9.615       81.476      -12.029        7.490       15.017        5.933       56.105      225.502       35.204        0.360        0.016       82.042        3.515        0.002      333.830        3.403      866.110
11/22/2013  19:10:00       50.557       40.659        1.520       40.336       29.588       23.797     1627.006      875.475      566.287        0.364        0.153       64.878       10.351        0.025      333.237        2.421      866.113
11/22/2013  19:11:00       36.432       44.321        0.400       27.653       26.972       20.771      764.683      727.514      431.428        0.261        0.096       57.373       16.400        0.082      332.727        1.579      866.116
11/22/2013  19:12:00       21.855       90.091      -16.715       14.096       20.898        9.134      198.711      436.716       83.422        0.480        0.036       92.704        7.900        0.007      333.202        2.361      866.116
11/22/2013  19:13:00        9.485       50.994       -8.880       13.809       18.104        6.965      190.693      327.747       48.511        0.167        0.028       51.868        8.481        0.027      333.430        2.739      866.098
11/22/2013  19:14:00       -0.015       16.174       -1.403        2.551       11.463        2.279        6.508      131.406        5.193        0.020        0.007       16.174        2.474        0.023      333.422        2.725      866.076
11/22/2013  19:15:00      -21.799      -13.277       -5.792       18.999       10.192        5.955      360.952      103.869       35.465        0.059        0.025       25.524        9.190        0.130      333.351        2.608      866.069
11/22/2013  19:16:00      -38.685      -14.814       -7.227        5.718        6.875        4.509       32.690       47.268       20.328        0.093        0.005       41.425        2.317        0.003      333.325        2.564      866.057
11/22/2013  19:17:00       -0.836       16.822        0.885       28.449       30.336       12.718      809.351      920.280      161.756        0.109        0.095       16.843       15.295        0.825      333.156        2.285      866.064
11/22/2013  19:18:00       41.270       90.019      -14.130       17.740       28.358       15.889      314.711      804.175      252.464        0.569        0.069       99.028       16.865        0.029      333.069        2.141      866.088
11/22/2013  19:19:00       25.253       79.464      -13.714       17.926       27.176       10.054      321.358      738.533      101.089        0.415        0.058       83.380       10.375        0.015      333.185        2.334      866.097
11/22/2013  19:20:00       20.052       47.128       -7.054        9.746       16.074        7.207       94.976      258.384       51.944        0.154        0.020       51.217        4.242        0.007      333.288        2.502      866.099
11/22/2013  19:21:00        7.561       30.404       -5.490        9.810        7.664        3.764       96.244       58.731       14.168        0.059        0.008       31.330        3.251        0.011      333.433        2.743      866.091
11/22/2013  19:22:00       -3.813       25.744       -2.938        9.541        5.856        3.442       91.038       34.287       11.844        0.041        0.007       26.025        1.843        0.005      333.652        3.108      866.068
11/22/2013  19:23:00      -36.990      -16.582       -4.207       15.029       12.889        5.925      225.862      166.133       35.107        0.104        0.021       40.536        7.188        0.031      333.187        2.338      866.040
11/22/2013  19:24:00       -2.910       -7.006        1.307       10.346       14.680       10.315      107.047      215.498      106.392        0.024        0.021        7.586        3.628        0.229      333.214        2.382      866.033
11/22/2013  19:25:00       36.345       17.473       19.037       19.378        9.340       14.746      375.516       87.234      217.458        0.133        0.034       40.327        9.732        0.058      333.112        2.215      866.029
11/22/2013  19:26:00       37.732       30.471       26.309       16.485       14.299       16.272      271.742      204.459      264.768        0.189        0.037       48.499       10.971        0.051      333.192        2.344      866.029
11/22/2013  19:27:00       79.224       24.997        9.252       32.064       23.368       17.106     1028.118      546.042      292.600        0.443        0.093       83.074       12.637        0.023      333.301        2.525      866.035
11/22/2013  19:28:00       53.781       44.339        8.202       32.012       22.701       16.306     1024.768      515.356      265.901        0.337        0.090       69.702       11.229        0.026      333.077        2.155      866.037
11/22/2013  19:29:00       48.051       36.315       -2.713       21.457       20.093       12.811      460.386      403.747      164.133        0.233        0.051       60.231        7.916        0.017      333.147        2.271      866.018
11/22/2013  19:30:00       23.531        6.323        1.609       12.056        3.657        3.787      145.345       13.372       14.340        0.038        0.009       24.366        3.353        0.019      333.623        3.058      865.983
11/22/2013  19:31:00        2.830        1.892       14.288        8.141       15.194       18.776       66.272      230.848      352.555        0.043        0.032        3.404       15.191       19.915      333.338        2.588      865.959
11/22/2013  19:32:00       19.024       30.471       34.493       22.625       28.485       29.979      511.883      811.393      898.757        0.235        0.111       35.922       28.245        0.618      333.113        2.214      865.971
11/22/2013  19:33:00       20.948        5.483       -0.017       18.541       14.494        9.203      343.780      210.081       84.688        0.055        0.032       21.654        6.586        0.093      333.387        2.669      865.958
11/22/2013  19:34:00       11.174        9.896        4.955        8.067        8.155        4.991       65.071       66.507       24.912        0.020        0.008       14.926        3.670        0.060      333.365        2.631      865.937
11/22/2013  19:35:00       34.202       15.588       10.735       12.997        7.105        6.837      168.916       50.482       46.748        0.090        0.013       37.587        3.223        0.007      333.361        2.625      865.936
11/22/2013  19:36:00       54.994       35.766        9.235       21.466       15.638       10.218      460.808      244.562      104.417        0.260        0.040       65.601        7.573        0.013      333.309        2.539      865.946
11/22/2013  19:37:00       48.417       21.544        2.010       17.384       15.926       10.336      302.197      253.650      106.825        0.174        0.033       52.994        7.360        0.019      333.238        2.422      865.952
11/22/2013  19:38:00       36.593        9.760       -1.012       12.069       14.348        6.075      145.669      205.856       36.907        0.091        0.019       37.872        3.644        0.009      333.228        2.404      865.953
11/22/2013  19:39:00       13.042      -11.431        4.613        9.267       13.952        9.149       85.875      194.663       83.700        0.034        0.018       17.343        6.842        0.156      333.268        2.473      865.953
11/22/2013  19:40:00       -8.536      -13.536       -8.913       15.991       17.934       13.240      255.723      321.621      175.303        0.054        0.038       16.003       12.715        0.631      333.132        2.246      865.965
11/22/2013  19:41:00       28.429       14.841       11.658       33.349       15.232       13.530     1112.130      232.000      183.062        0.135        0.076       32.070       10.317        0.104      333.038        2.091      865.991
11/22/2013  19:42:00       78.678       24.617       13.292       28.173       27.789       18.726      793.741      772.214      350.675        0.444        0.096       82.439        8.141        0.010      332.921        1.899      866.014
11/22/2013  19:43:00       14.074        2.023        7.424       17.289       16.634       13.067      298.915      276.689      170.757        0.050        0.037       14.219        4.967        0.122      333.048        2.110      865.995
11/22/2013  19:44:00      -15.414      -24.341       -0.762       18.906       12.399       16.917      357.456      153.731      286.198        0.081        0.040       28.811       10.914        0.144      333.030        2.079      865.958
11/22/2013  19:45:00      -51.896      -11.825       -4.247       20.088       14.378        9.830      403.517      206.715       96.620        0.178        0.035       53.226       11.518        0.047      332.652        1.454      865.946
11/22/2013  19:46:00      -27.967        0.420       -4.583       11.665        7.917        7.516      136.080       62.678       56.496        0.053        0.013       27.970        7.173        0.066      332.648        1.448      865.942
11/22/2013  19:47:00       27.325       30.659        3.671       12.186       10.511        7.385      148.488      110.490       54.537        0.101        0.016       41.069        6.490        0.025      333.137        2.256      865.949
11/22/2013  19:48:00       -6.479       40.835       -9.123       14.013        6.713        4.665      196.362       45.070       21.767        0.103        0.013       41.345        4.560        0.012      333.304        2.530      865.935
11/22/2013  19:49:00      -13.786       23.651       -1.889       10.909       11.472        4.546      119.002      131.610       20.664        0.051        0.014       27.376        1.632        0.004      333.230        2.409      865.924
11/22/2013  19:50:00       -8.696        2.182        3.331       12.125        7.987        6.733      147.023       63.793       45.332        0.017        0.013        8.965        2.540        0.080      332.998        2.025      865.932
11/22/2013  19:51:00       27.468       29.919       14.307       23.671       13.979       15.053      560.328      195.411      226.583        0.142        0.049       40.616        4.768        0.014      332.965        1.972      865.942
11/22/2013  19:52:00       -4.519       18.477       -6.389       13.607       11.262        7.568      185.144      126.834       57.281        0.039        0.018       19.022        7.686        0.163      333.145        2.268      865.928
11/22/2013  19:53:00      -47.905      -20.209      -11.600       15.960       10.747       10.656      254.708      115.494      113.547        0.166        0.024       51.993        7.960        0.023      332.654        1.458      865.918
11/22/2013  19:54:00      -58.448       -6.686      -10.262       14.164       14.475        7.390      200.622      209.515       54.616        0.202        0.023       58.829        6.193        0.011      332.527        1.246      865.942
11/22/2013  19:55:00      -57.441       -6.506      -10.477       16.120       12.211        9.543      259.858      149.120       91.075        0.198        0.025       57.809        8.526        0.022      332.538        1.264      865.963
11/22/2013  19:56:00      -86.421      -34.788      -16.647       11.326       13.272        6.571      128.270      176.143       43.181        0.465        0.017       93.160        4.738        0.003      332.506        1.213      865.977
11/22/2013  19:57:00     -117.901      -62.212      -21.726       27.076       26.108       12.725      733.107      681.611      161.926        0.991        0.079      133.308        9.003        0.005      332.418        1.068      865.944
11/22/2013  19:58:00      -74.121      -39.181       -8.514       29.161       25.569       17.445      850.365      653.775      304.315        0.445        0.090       83.840       16.065        0.037      332.381        1.006      865.926
11/22/2013  19:59:00      -43.136       26.540       -2.107       18.029       13.311        7.448      325.036      177.170       55.471        0.156        0.028       50.646        4.656        0.008      332.633        1.421      865.963
11/22/2013  20:00:00       -8.168       61.728       -9.220       15.992       43.599        9.822      255.742     1900.912       96.463        0.311        0.113       62.266       18.725        0.090      332.938        1.927      865.981
11/22/2013  20:01:00      -39.733       60.338      -12.905       18.274       42.667       11.751      333.954     1820.433      138.082        0.384        0.115       72.246       12.215        0.029      332.892        1.851      865.969
11/22/2013  20:02:00      -68.893      -23.566      -13.494       29.503       26.508        9.224      870.405      702.657       85.090        0.357        0.083       72.812        6.469        0.008      332.566        1.310      865.932
11/22/2013  20:03:00      -37.412      -30.261       -0.237       40.901       16.817       13.815     1672.892      282.821      190.847        0.223        0.107       48.119       15.703        0.106      332.429        1.085      865.919
11/22/2013  20:04:00       -9.894       -5.944       -7.787       26.386       23.459       11.251      696.214      550.329      126.575        0.078        0.069       11.542       14.401        1.557      332.750        1.616      865.940
11/22/2013  20:05:00      -37.990       23.408      -11.328       16.246       16.468        8.728      263.945      271.191       76.184        0.137        0.031       44.623        8.284        0.034      332.807        1.710      865.938
11/22/2013  20:06:00      -40.178      -30.156       -7.243       15.751       16.547        7.731      248.103      273.795       59.764        0.158        0.029       50.236        6.491        0.017      332.652        1.453      865.912
11/22/2013  20:07:00        1.669      -34.371        1.157       17.809       14.816        7.830      317.146      219.515       61.314        0.089        0.030       34.412        8.514        0.061      332.884        1.837      865.891
11/22/2013  20:08:00       14.002       29.156       31.168       14.165       16.371       14.081      200.653      268.015      198.269        0.134        0.033       32.344       12.959        0.161      332.660        1.468      865.901
11/22/2013  20:09:00       13.310        3.521        5.257       19.857       15.903        8.467      394.290      252.909       71.695        0.047        0.036       13.768        4.433        0.104      332.957        1.957      865.919
11/22/2013  20:10:00       29.577       55.672        4.985       18.096       42.349       18.847      327.459     1793.404      355.195        0.324        0.124       63.041       24.690        0.153      333.213        2.381      865.945
11/22/2013  20:11:00        9.353      116.446      -24.586       14.374       31.814        8.967      206.602     1012.137       80.416        0.778        0.065      116.822       12.454        0.011      332.949        1.946      865.970
11/22/2013  20:12:00      -17.306       -2.019       -7.351       11.800       31.316        7.585      139.240      980.717       57.536        0.077        0.059       17.423       11.483        0.434      333.249        2.440      865.953
11/22/2013  20:13:00      -45.620      -17.442       -6.266       15.250        8.638        8.363      232.568       74.617       69.933        0.140        0.019       48.841        5.552        0.013      332.710        1.550      865.924
11/22/2013  20:14:00      -30.591        5.495       -4.156       10.416        8.312        3.985      108.484       69.093       15.881        0.059        0.010       31.081        3.341        0.012      332.843        1.770      865.920
11/22/2013  20:15:00       37.380       44.219        2.371       29.183       16.513       12.087      851.641      272.682      146.090        0.231        0.064       57.902        4.001        0.005      333.028        2.076      865.921
11/22/2013  20:16:00       45.779       42.699       -5.187       35.199       36.340       21.249     1238.999     1320.584      451.526        0.348        0.151       62.602       22.007        0.124      332.668        1.482      865.927
11/22/2013  20:17:00        1.755       67.955      -10.509       25.374       25.340       14.144      643.859      642.121      200.050        0.311        0.074       67.978       17.056        0.063      333.205        2.368      865.897
11/22/2013  20:18:00       43.759       34.273        1.950       29.040       17.509       19.309      843.320      306.578      372.840        0.231        0.076       55.584       16.233        0.085      333.241        2.426      865.895
11/22/2013  20:19:00        0.580      -18.477       15.578       10.621       26.996       16.609      112.811      728.760      275.848        0.085        0.056       18.486        7.356        0.158      332.943        1.934      865.911
11/22/2013  20:20:00       -7.775        1.295       12.288        9.706       10.596        8.766       94.205      112.275       76.849        0.025        0.014        7.882        7.440        0.891      332.963        1.968      865.937
11/22/2013  20:21:00       35.429      -24.693       -2.360       17.717       24.272        9.161      313.882      589.118       83.932        0.143        0.049       43.185        6.618        0.023      333.291        2.509      865.944
11/22/2013  20:22:00       26.702      -21.814        2.033       23.766       17.781       11.474      564.809      316.178      131.655        0.110        0.051       34.480        7.614        0.049      333.332        2.578      865.947
11/22/2013  20:23:00       -2.452        2.164        5.545       27.243       17.915       16.923      742.176      320.949      286.382        0.070        0.067        3.270       20.620       39.756      333.036        2.088      865.944
11/22/2013  20:24:00       53.999       30.873       18.520       13.900       13.340       13.395      193.217      177.959      179.437        0.238        0.028       62.202        7.154        0.013      333.098        2.189      865.977
11/22/2013  20:25:00       69.470       20.929       13.616       15.592       24.002       12.759      243.113      576.092      162.786        0.322        0.049       72.554       11.154        0.024      333.090        2.178      865.987
11/22/2013  20:26:00       40.945        0.865       21.851       31.131       20.539       21.040      969.162      421.863      442.669        0.199        0.092       40.954       23.329        0.324      333.180        2.327      865.980
11/22/2013  20:27:00        0.391       29.897       47.056       17.265       17.623       15.369      298.077      310.573      236.200        0.198        0.042       29.899       13.754        0.212      333.139        2.258      865.978
11/22/2013  20:28:00       52.372       40.797       12.484       20.322       17.323       24.586      412.998      300.103      604.493        0.294        0.066       66.387        7.069        0.011      332.907        1.877      865.998
11/22/2013  20:29:00       37.048       35.174        0.823       30.681       20.815       17.525      941.334      433.277      307.131        0.215        0.084       51.086       15.022        0.086      332.688        1.514      866.031
11/22/2013  20:30:00       68.195       11.262       24.054       26.090       17.832       19.593      680.708      317.994      383.869        0.337        0.069       69.119       15.613        0.051      332.746        1.611      866.050
11/22/2013  20:31:00       29.790       29.404       49.344       26.243       18.036       15.040      688.721      325.284      226.189        0.271        0.062       41.858       11.929        0.081      332.838        1.762      866.056
11/22/2013  20:32:00       16.775        2.982       29.861       33.820       44.463       26.930     1143.792     1976.976      725.241        0.251        0.192       17.038       32.659        3.674      332.965        1.972      866.049
11/22/2013  20:33:00       67.353      -58.411       -0.609       22.867       20.088       16.640      522.920      403.527      276.894        0.458        0.060       89.153       14.717        0.027      333.042        2.098      866.060
11/22/2013  20:34:00       44.863      -72.432        0.344       30.830       22.239       15.815      950.496      494.559      250.102        0.448        0.085       85.200       12.169        0.020      333.108        2.206      866.065
11/22/2013  20:35:00        2.204      -38.019        8.842       29.840       26.751       14.905      890.447      715.609      222.148        0.168        0.091       38.083       16.562        0.189      332.910        1.880      866.082
11/22/2013  20:36:00      -11.135       -2.815       -2.150       11.836       12.211        8.024      140.092      149.105       64.384        0.024        0.018       11.486        9.490        0.683      332.397        1.031      866.108
11/22/2013  20:37:00      -11.285      -14.080       -6.076        6.631        3.952        5.604       43.966       15.618       31.401        0.023        0.005       18.045        2.954        0.027      332.578        1.329      866.114
11/22/2013  20:38:00       14.917       -4.050        3.060       13.148       11.183        5.493      172.871      125.069       30.173        0.029        0.016       15.457        3.710        0.058      332.679        1.498      866.116
11/22/2013  20:39:00       22.899       10.188        3.799        8.402        6.471        9.264       70.601       41.879       85.813        0.042        0.010       25.063        4.701        0.035      332.751        1.618      866.134
11/22/2013  20:40:00       29.393       11.083        9.390        9.807        9.072        8.888       96.173       82.306       78.991        0.067        0.013       31.413        5.028        0.026      332.622        1.404      866.146
11/22/2013  20:41:00       22.786        6.784        4.164       10.988        7.731        6.927      120.731       59.774       47.980        0.041        0.011       23.774        3.959        0.028      332.727        1.577      866.141
11/22/2013  20:42:00       -3.822       18.945       -1.300       19.980       21.679       10.106      399.183      469.963      102.129        0.067        0.049       19.327       13.414        0.482      332.629        1.415      866.157
11/22/2013  20:43:00      -12.760       25.216       -2.278       19.313       10.082        7.094      372.993      101.643       50.318        0.066        0.026       28.261        6.492        0.053      332.655        1.460      866.159
11/22/2013  20:44:00        7.814       35.000       -4.065       10.219        7.503        4.317      104.431       56.297       18.637        0.074        0.009       35.862        3.932        0.012      332.865        1.808      866.175
11/22/2013  20:45:00       -1.303        9.397       -3.774       13.790       11.873        3.282      190.162      140.970       10.772        0.022        0.017        9.486        3.484        0.135      332.853        1.786      866.171
11/22/2013  20:46:00      -75.760      -28.852      -10.694       18.656       15.258        8.959      348.033      232.801       80.273        0.367        0.033       81.068        5.795        0.005      332.379        1.002      866.157
11/22/2013  20:47:00      -84.691      -32.425      -10.480       20.022       17.563        9.805      400.885      308.448       96.129        0.457        0.040       90.686        9.384        0.011      332.094        0.534      866.142
11/22/2013  20:48:00      -96.443      -20.032      -13.782       11.653       13.811        9.484      135.790      190.736       89.937        0.515        0.021       98.501        3.668        0.001      332.117        0.572      866.123
11/22/2013  20:49:00      -92.727        2.163      -13.364       20.958       13.957        9.783      439.246      194.811       95.710        0.476        0.036       92.752        6.336        0.005      332.124        0.583      866.105
11/22/2013  20:50:00      -97.764       14.150      -13.327       26.034       17.004       12.103      677.758      289.137      146.482        0.552        0.056       98.783       11.763        0.014      332.129        0.591      866.094
11/22/2013  20:51:00      -71.408       13.176       -3.967       14.586       15.848       11.586      212.759      251.145      134.232        0.294        0.030       72.614        6.584        0.008      332.299        0.870      866.095
11/22/2013  20:52:00      -52.686      -17.473       -7.321       22.085       20.382       10.296      487.728      415.432      106.005        0.207        0.050       55.508        6.197        0.012      332.303        0.878      866.103
11/22/2013  20:53:00      -77.760      -16.860      -13.637       21.882       17.896       11.783      478.832      320.279      138.836        0.373        0.047       79.567       10.255        0.017      332.204        0.714      866.103
11/22/2013  20:54:00      -71.011       12.328      -13.751       22.087       16.595       12.642      487.826      275.387      159.829        0.315        0.046       72.073        9.582        0.018      332.060        0.478      866.115
11/22/2013  20:55:00      -60.007       12.473       -6.750       22.193       26.427       15.614      492.541      698.412      243.797        0.262        0.072       61.290       12.598        0.042      332.330        0.923      866.118
11/22/2013  20:56:00     -106.303      -20.490      -15.239       26.314       23.288       14.011      692.451      542.317      196.313        0.669        0.072      108.260       11.762        0.012      332.060        0.476      866.115
11/22/2013  20:57:00     -120.758      -31.858      -10.252       27.927       34.478       19.475      779.921     1188.753      379.260        0.902        0.117      124.890       10.195        0.007      331.998        0.375      866.092
11/22/2013  20:58:00     -123.608      -35.821       -7.898       38.766       42.041       26.198     1502.777     1767.488      686.313        1.029        0.198      128.693       20.933        0.026      331.889        0.196      866.069
11/22/2013  20:59:00     -149.008       44.233      -13.962       71.141       48.858       34.947     5061.010     2387.152     1221.280        1.651        0.433      155.435       37.385        0.058      331.871        0.164      866.065
11/22/2013  21:00:00     -155.649        3.651      -15.293       62.691       44.779       27.804     3930.180     2005.123      773.066        1.559        0.335      155.692       26.050        0.028      331.917        0.241      866.073
11/22/2013  21:01:00     -112.105      -40.380      -11.621       45.034       44.050       25.701     2028.050     1940.427      660.545        0.948        0.231      119.156       14.384        0.015      331.872        0.168      866.059
11/22/2013  21:02:00     -100.734       -6.145       -8.527       34.322       31.968       19.973     1178.007     1021.976      398.934        0.643        0.130      100.921       15.928        0.025      331.879        0.179      866.080
11/22/2013  21:03:00      -54.561       -7.701        3.629       36.069       47.360       22.259     1300.949     2242.956      495.471        0.354        0.202       55.102       16.206        0.087      331.923        0.251      866.094
11/22/2013  21:04:00      -35.341      -11.705       -4.238       26.286       39.302       17.234      690.978     1544.633      297.015        0.197        0.127       37.229       10.564        0.081      331.957        0.307      866.113
11/22/2013  21:05:00      -92.272      -31.361       -9.188       30.825       29.766       18.719      950.172      886.038      350.398        0.588        0.109       97.456       15.981        0.027      331.984        0.352      866.112
11/22/2013  21:06:00      -49.079      -25.999        0.106       35.425       19.827       16.778     1254.939      393.112      281.497        0.251        0.096       55.540       16.532        0.089      331.993        0.367      866.106
11/22/2013  21:07:00      -33.254      -26.518       -5.335       26.390       16.768       13.757      696.446      281.175      189.251        0.150        0.058       42.533       10.765        0.064      332.002        0.382      866.113
11/22/2013  21:08:00      -50.575      -39.572      -15.347       32.243       17.773        9.973     1039.626      315.885       99.453        0.291        0.073       64.217        7.378        0.013      332.030        0.429      866.109
11/22/2013  21:09:00      -48.901      -31.026       -0.215       30.512       17.763       17.837      930.983      315.508      318.154        0.246        0.078       57.913       16.226        0.078      331.989        0.359      866.105
11/22/2013  21:10:00      -51.579      -34.346       -1.357       35.794       15.793       18.865     1281.197      249.407      355.885        0.286        0.094       61.969       16.103        0.068      331.958        0.309      866.091
11/22/2013  21:11:00     -129.317      -54.597      -10.054       36.351       17.211       11.350     1321.383      296.226      128.817        1.078        0.087      140.370        8.337        0.004      331.983        0.351      866.072
11/22/2013  21:12:00     -138.317      -59.720       -5.185       29.295       16.425       17.311      858.225      269.780      299.668        1.208        0.071      150.659       14.341        0.009      331.995        0.371      866.067
11/22/2013  21:13:00      -92.768      -15.430       -2.616       39.512       27.647       20.067     1561.173      764.376      402.680        0.579        0.136       94.042       18.109        0.037      331.896        0.206      866.059
11/22/2013  21:14:00      -66.388        6.193       -1.838       47.014       28.457       21.081     2210.337      809.785      444.414        0.396        0.173       66.676       16.433        0.061      331.926        0.256      866.062
11/22/2013  21:15:00      -94.519        2.033      -13.501       45.680       22.371       23.404     2086.677      500.455      547.737        0.613        0.157       94.541       26.940        0.081      331.984        0.352      866.069
11/22/2013  21:16:00      -78.836      -29.666       -8.455       32.914       21.289       14.851     1083.299      453.220      220.541        0.446        0.088       84.233        6.312        0.006      332.003        0.382      866.051
11/22/2013  21:17:00      -71.201      -56.638       -8.986       38.812       16.949       17.647     1506.404      287.262      311.402        0.523        0.105       90.980       14.880        0.027      331.956        0.306      866.028
11/22/2013  21:18:00      -30.321      -35.743      -10.878       24.564       25.673       14.774      603.406      659.087      218.258        0.190        0.074       46.871        9.515        0.041      332.030        0.428      866.011
11/22/2013  21:19:00      -73.277      -30.675      -11.461       28.844       19.464       14.859      832.000      378.831      220.795        0.394        0.072       79.438       12.750        0.026      332.056        0.469      866.011
11/22/2013  21:20:00     -131.123      -12.235      -20.360       20.256       19.187       14.169      410.318      368.135      200.774        0.937        0.049      131.693       10.740        0.007      332.056        0.471      866.001
11/22/2013  21:21:00      -81.569      -32.158       -7.673       32.791       26.719       17.524     1075.262      713.912      307.078        0.492        0.105       87.679       17.673        0.041      331.986        0.354      866.004
11/22/2013  21:22:00      -56.128       -1.438       -8.693       35.171       24.066       17.670     1236.981      579.177      312.234        0.268        0.106       56.146       17.881        0.101      331.879        0.178      865.993
11/22/2013  21:23:00      -88.655      -33.899      -10.314       20.258       26.264       14.862      410.391      689.812      220.871        0.522        0.066       94.915       10.254        0.012      331.911        0.232      865.970
11/22/2013  21:24:00      -91.182      -23.050      -14.451       24.795       19.687       15.191      614.809      387.570      230.771        0.514        0.062       94.051       10.919        0.013      331.985        0.353      865.954
11/22/2013  21:25:00      -68.774      -42.622      -17.636       30.772       20.520       21.502      946.911      421.062      462.343        0.434        0.092       80.911       10.361        0.016      332.008        0.392      865.936
11/22/2013  21:26:00      -57.110      -66.073       -2.923       33.204       34.459       28.017     1102.519     1187.429      784.950        0.535        0.154       87.334       21.461        0.060      331.956        0.305      865.930
11/22/2013  21:27:00      -97.024      -46.480      -22.484       29.510       37.151       24.960      870.858     1380.228      623.014        0.748        0.144      107.583       20.087        0.035      331.972        0.332      865.919
11/22/2013  21:28:00     -111.621      -13.161      -12.922       49.207       35.472       21.161     2421.363     1258.281      447.807        0.846        0.206      112.395       22.390        0.040      331.957        0.307      865.931
11/22/2013  21:29:00      -73.852      -27.973      -15.901       26.157       17.841       12.177      684.174      318.300      148.278        0.382        0.058       78.972        7.127        0.008      331.970        0.330      865.938
11/22/2013  21:30:00      -89.505      -31.838       -7.558       32.324       19.415       17.349     1044.810      376.925      300.987        0.540        0.086       94.999       16.686        0.031      332.059        0.475      865.921
11/22/2013  21:31:00     -105.375      -54.544      -16.644       40.267       33.638       20.418     1621.454     1131.486      416.879        0.876        0.158      118.655       17.574        0.022      332.092        0.529      865.931
11/22/2013  21:32:00     -144.050      -41.216      -15.996       35.394       29.749       17.741     1252.710      885.023      314.760        1.258        0.123      149.831       17.456        0.014      331.974        0.335      865.938
11/22/2013  21:33:00     -107.062      -31.266      -24.771       37.575       29.158       15.111     1411.890      850.183      228.339        0.777        0.125      111.534       10.906        0.010      331.914        0.238      865.936
11/22/2013  21:34:00      -58.055      -42.864      -14.321       24.993       25.678       18.332      624.644      659.361      336.058        0.352        0.081       72.165       12.762        0.031      331.962        0.316      865.926
11/22/2013  21:35:00     -105.699       -6.185      -14.096       24.910       15.741       11.045      620.530      247.788      121.998        0.620        0.050      105.880        4.338        0.002      331.954        0.302      865.897
11/22/2013  21:36:00      -87.125      -11.167      -18.986       19.324       24.620       14.007      373.417      606.167      196.187        0.463        0.059       87.838       14.524        0.027      331.991        0.362      865.897
11/22/2013  21:37:00      -65.813      -27.260      -15.899       12.821       15.240        7.526      164.366      232.264       56.643        0.289        0.023       71.235        4.792        0.005      332.339        0.938      865.913
11/22/2013  21:38:00      -38.105      -24.725       -9.224       11.854       13.710       12.699      140.528      187.977      161.254        0.132        0.024       45.424        4.686        0.011      332.977        1.991      865.906
11/22/2013  21:39:00      -57.599      -42.050      -12.593       20.889       17.705       11.242      436.371      313.456      126.387        0.306        0.044       71.315       10.091        0.020      332.215        0.734      865.903
11/22/2013  21:40:00      -76.545       -6.066       -9.826        7.879       11.126        8.285       62.072      123.793       68.641        0.312        0.013       76.785        3.052        0.002      332.065        0.484      865.888
11/22/2013  21:41:00      -84.381       -7.513      -14.740       24.461       13.947        9.867      598.337      194.515       97.364        0.414        0.045       84.715       10.202        0.015      332.088        0.523      865.897
11/22/2013  21:42:00      -98.750      -23.455      -18.981       18.777       22.701        8.719      352.588      515.340       76.015        0.580        0.047      101.497        8.222        0.007      332.044        0.451      865.888
11/22/2013  21:43:00      -81.130      -23.046      -16.546       20.255       13.136       12.895      410.276      172.560      166.269        0.407        0.037       84.340        7.997        0.009      331.942        0.280      865.888
11/22/2013  21:44:00      -87.053      -31.330      -18.420       13.150       13.497        9.552      172.927      182.159       91.246        0.467        0.022       92.519        6.267        0.005      331.984        0.352      865.909
11/22/2013  21:45:00      -83.677      -32.854      -19.944       16.289       12.245        7.212      265.341      149.951       52.013        0.447        0.023       89.896        7.989        0.008      332.002        0.381      865.914
11/22/2013  21:46:00     -117.825      -29.477      -17.384       16.977       13.603       11.574      288.234      185.047      133.955        0.783        0.030      121.457       10.231        0.007      332.058        0.473      865.925
11/22/2013  21:47:00     -136.677      -33.928      -21.863       16.197       13.713       14.144      262.334      188.049      200.039        1.048        0.033      140.825        4.969        0.001      332.062        0.481      865.928
11/22/2013  21:48:00     -115.399      -19.576      -20.530       22.664       14.450       13.329      513.651      208.814      177.659        0.751        0.045      117.048       13.395        0.013      331.988        0.358      865.924
11/22/2013  21:49:00      -76.180      -15.202       -9.542       29.841       19.837       16.804      890.465      393.502      282.375        0.385        0.078       77.682       16.903        0.047      331.860        0.148      865.945
11/22/2013  21:50:00      -78.803      -10.277      -13.008       23.658       15.428       11.715      559.700      238.015      137.232        0.371        0.047       79.470        8.881        0.012      331.966        0.322      865.975
11/22/2013  21:51:00      -70.187      -11.524      -14.327       26.032       18.564       13.911      677.657      344.618      193.503        0.324        0.061       71.127       14.412        0.041      332.057        0.473      865.973
11/22/2013  21:52:00     -141.761      -29.111      -14.800       19.066       18.571       11.687      363.507      344.883      136.575        1.100        0.042      144.719        5.659        0.002      332.102        0.547      865.972
11/22/2013  21:53:00     -136.796      -23.530      -19.558       27.294       14.792       17.181      744.972      218.817      295.179        1.045        0.063      138.805       15.560        0.013      331.879        0.178      865.974
11/22/2013  21:54:00      -55.045       -5.541      -12.188       13.285       29.254       12.530      176.484      855.794      156.998        0.220        0.059       55.323        9.559        0.030      331.864        0.152      865.975
11/22/2013  21:55:00      -53.263       10.322       -5.938       14.412       16.269        9.750      207.701      264.688       95.057        0.177        0.028       54.253        7.259        0.018      332.060        0.478      865.991
11/22/2013  21:56:00      -57.350       -1.114      -13.544       17.102        9.546        8.062      292.484       91.119       64.991        0.196        0.022       57.361        7.771        0.018      332.183        0.680      866.005
11/22/2013  21:57:00      -60.364      -27.090      -14.451       14.428       16.208       12.687      208.179      262.686      160.970        0.261        0.032       66.164        7.161        0.012      332.213        0.727      866.000
11/22/2013  21:58:00      -35.252      -22.569      -11.280       15.386       14.999        7.818      236.727      224.964       61.114        0.120        0.026       41.857        4.132        0.010      332.557        1.297      865.987
11/22/2013  21:59:00        4.256        2.211        4.295       20.936        9.395        7.185      438.309       88.261       51.624        0.031        0.029        4.796        5.979        1.554      332.411        1.055      865.989
11/22/2013  22:00:00       14.050       11.507        6.020       11.011       16.343       10.415      121.236      267.105      108.466        0.043        0.025       18.160       10.453        0.331      332.032        0.431      865.983
11/22/2013  22:01:00       -5.365        0.662        0.688        7.024       21.838        5.590       49.333      476.877       31.246        0.029        0.028        5.405        7.096        1.723      332.220        0.740      865.981
11/22/2013  22:02:00        8.763       55.380       -8.349        8.946       20.506        7.215       80.034      420.514       52.060        0.188        0.028       56.069        5.525        0.010      332.719        1.563      865.967
11/22/2013  22:03:00        4.323       63.398      -12.819        7.483       10.276        4.571       55.993      105.600       20.897        0.219        0.009       63.545        3.881        0.004      332.962        1.965      865.960
11/22/2013  22:04:00       -4.410       47.619       -7.804        6.672       11.463        5.944       44.515      131.395       35.337        0.128        0.011       47.823        5.881        0.015      333.052        2.116      865.934
11/22/2013  22:05:00        3.606       56.392       -8.330        3.736        9.579        6.004       13.960       91.765       36.048        0.170        0.007       56.507        6.851        0.015      333.142        2.260      865.920
11/22/2013  22:06:00        5.528       61.347      -12.564        5.798        5.246        3.532       33.619       27.521       12.473        0.201        0.004       61.596        1.163        0.000      333.199        2.356      865.956
11/22/2013  22:07:00       27.239       29.320        0.150       14.184       11.508       11.116      201.179      132.428      123.571        0.103        0.023       40.020        5.761        0.021      332.881        1.832      865.997
11/22/2013  22:08:00       35.712       28.253       -2.667       16.901       16.869       10.337      285.660      284.571      106.861        0.138        0.034       45.536        9.908        0.047      332.516        1.229      866.022
11/22/2013  22:09:00       12.086       38.631       -2.714       19.929       14.679       11.872      397.148      215.465      140.952        0.120        0.038       40.477        9.448        0.054      332.292        0.860      866.019
11/22/2013  22:10:00        0.161       33.385       -3.896        7.705       11.058        5.392       59.363      122.287       29.070        0.067        0.011       33.386        3.760        0.013      332.606        1.377      865.999
11/22/2013  22:11:00       28.622       29.137       13.076       17.312       14.544       13.076      299.707      211.525      170.992        0.126        0.034       40.844       11.159        0.075      332.305        0.883      866.005
11/22/2013  22:12:00       32.290       20.711        2.450        9.329       11.009        8.305       87.037      121.201       68.974        0.088        0.014       38.361        6.562        0.029      332.179        0.674      866.009
11/22/2013  22:13:00       31.173       34.484       -2.273        9.345        7.713        4.753       87.329       59.491       22.588        0.117        0.008       46.485        3.940        0.007      332.965        1.968      865.999
11/22/2013  22:14:00        6.190      -15.077       -1.206       26.519       21.077        8.444      703.235      444.222       71.304        0.074        0.061       16.298       11.986        0.541      332.874        1.821      865.973
11/22/2013  22:15:00      -36.754      -29.073      -11.763       12.109       13.769        9.618      146.633      189.593       92.497        0.138        0.021       46.862        7.907        0.028      332.092        0.530      865.955
11/22/2013  22:16:00      -24.057       -9.076       -2.824       11.522        8.285        4.204      132.756       68.643       17.677        0.044        0.011       25.712        4.064        0.025      332.565        1.311      865.946
11/22/2013  22:17:00      -92.579      -15.960      -17.953       13.878       24.884        9.692      192.607      619.204       93.925        0.503        0.045       93.945        5.998        0.004      331.810        0.066      865.945
11/22/2013  22:18:00     -103.494      -33.467      -14.770       11.713       11.974        9.025      137.191      143.373       81.458        0.621        0.018      108.771        6.486        0.004      331.638       -0.218      865.950
11/22/2013  22:19:00     -106.607       -7.407      -18.064       18.202       16.473       14.273      331.312      271.367      203.705        0.628        0.040      106.864       11.220        0.011      331.582       -0.310      865.945
11/22/2013  22:20:00      -80.172       -0.445      -10.604       20.481       14.555       13.678      419.458      211.855      187.101        0.368        0.041       80.173       10.158        0.016      331.639       -0.216      865.937
11/22/2013  22:21:00      -61.548      -20.229       -9.744       12.621       10.737        7.886      159.281      115.284       62.183        0.231        0.017       64.787        3.794        0.003      331.873        0.170      865.923
11/22/2013  22:22:00      -41.334      -37.827      -12.525       14.570       11.258        8.364      212.297      126.739       69.957        0.185        0.020       56.031        4.872        0.008      332.013        0.400      865.905
11/22/2013  22:23:00      -46.090      -28.692      -10.052       12.495       12.144        8.469      156.117      147.488       71.725        0.171        0.019       54.291        5.091        0.009      331.837        0.110      865.901
11/22/2013  22:24:00      -47.834        1.639       -6.846       13.327        7.568        7.845      177.614       57.277       61.550        0.132        0.015       47.862        7.329        0.023      331.875        0.171      865.915
11/22/2013  22:25:00      -85.956       10.709      -11.317       25.171        9.397        8.374      633.591       88.295       70.120        0.421        0.040       86.620        9.077        0.011      331.706       -0.106      865.925
11/22/2013  22:26:00      -88.167       -7.993      -12.785       15.822       20.568       14.140      250.328      423.063      199.926        0.444        0.044       88.528        8.663        0.010      331.455       -0.520      865.914
11/22/2013  22:27:00      -82.418        0.694      -15.334       18.993       19.645       12.028      360.719      385.917      144.669        0.396        0.045       82.421        8.915        0.012      331.487       -0.468      865.901
11/22/2013  22:28:00      -85.597       -1.560      -19.061       14.486        8.610        9.637      209.846       74.127       92.866        0.403        0.019       85.611        5.542        0.004      331.467       -0.499      865.895
11/22/2013  22:29:00      -56.083        2.399      -13.353       19.712        9.037       10.933      388.574       81.665      119.539        0.196        0.029       56.134       11.688        0.043      331.426       -0.569      865.904
11/22/2013  22:30:00      -39.083       -7.374      -11.214       11.809       10.685        8.973      139.445      114.159       80.506        0.102        0.017       39.773        3.162        0.006      331.619       -0.249      865.918
11/22/2013  22:31:00      -57.887      -20.849      -12.807       12.054       12.315        7.666      145.308      151.659       58.773        0.215        0.018       61.527        5.543        0.008      331.602       -0.278      865.909
11/22/2013  22:32:00      -60.725      -37.034      -17.748       10.396       14.863        8.246      108.075      220.900       67.998        0.289        0.020       71.127        5.649        0.006      331.643       -0.209      865.890
11/22/2013  22:33:00      -64.024      -17.482      -11.333       10.081       11.896        8.871      101.631      141.526       78.699        0.243        0.016       66.368        4.845        0.005      331.699       -0.118      865.864
11/22/2013  22:34:00      -50.785      -16.929       -8.223       18.760       14.113       10.288      351.950      199.171      105.836        0.180        0.033       53.532       12.115        0.051      331.706       -0.105      865.858
11/22/2013  22:35:00        7.916       34.167       -8.215       24.637       43.132       11.600      606.960     1860.411      134.555        0.195        0.130       35.072       16.075        0.210      332.182        0.680      865.870
11/22/2013  22:36:00       21.617       59.255       -6.901       15.800       23.390       10.230      249.654      547.092      104.652        0.246        0.045       63.075       10.142        0.026      332.587        1.346      865.877
11/22/2013  22:37:00       -4.867       32.906       -5.179       11.593       23.743        7.619      134.389      563.745       58.049        0.094        0.038       33.264        8.388        0.064      332.646        1.444      865.852
11/22/2013  22:38:00      -54.387      -29.558       -7.350       15.653       20.050       11.506      245.029      402.009      132.382        0.233        0.039       61.900       12.044        0.038      331.738       -0.052      865.841
11/22/2013  22:39:00      -44.020      -15.207       -4.143       11.218        8.856        5.221      125.833       78.434       27.258        0.121        0.012       46.573        1.592        0.001      331.646       -0.204      865.865
11/22/2013  22:40:00      -13.848        0.437       -2.603       14.155       10.865        7.704      200.358      118.053       59.357        0.029        0.019       13.855       10.076        0.529      332.034        0.434      865.932
11/22/2013  22:41:00      -13.894       -1.209        3.416       16.410       16.002        6.823      269.283      256.050       46.556        0.039        0.029       13.946        5.694        0.167      332.173        0.665      865.979
11/22/2013  22:42:00      -21.696      -27.109       -6.529       12.631        8.652       11.089      159.534       74.861      122.957        0.080        0.018       34.721        7.433        0.046      331.879        0.179      865.987
11/22/2013  22:43:00       -2.634      -12.255       -2.531        4.670        7.199        4.044       21.811       51.830       16.355        0.013        0.004       12.535        3.122        0.062      332.091        0.527      865.976
11/22/2013  22:44:00      -26.383        5.482       -3.859       17.531        8.335        4.780      307.348       69.470       22.850        0.057        0.020       26.947        4.759        0.031      332.339        0.937      865.963
11/22/2013  22:45:00      -46.634      -20.912      -10.921        9.432        7.984        6.731       88.970       63.752       45.309        0.146        0.010       51.108        1.675        0.001      331.808        0.062      865.954
11/22/2013  22:46:00      -32.307       -1.409       -9.042       14.932        4.544        3.807      222.974       20.651       14.490        0.069        0.013       32.337        5.005        0.024      332.442        1.106      865.958
11/22/2013  22:47:00      -26.849       -9.046       -3.953       24.507       12.210        4.446      600.578      149.081       19.764        0.079        0.038       28.332        4.102        0.021      332.363        0.978      865.957
11/22/2013  22:48:00      -57.233       -9.687      -10.487        8.474        8.123        8.117       71.809       65.982       65.891        0.184        0.010       58.047        5.053        0.008      331.749       -0.033      865.963
11/22/2013  22:49:00      -61.968       -3.054      -15.403        6.195        4.243        4.422       38.381       18.005       19.551        0.208        0.004       62.043        2.367        0.001      331.938        0.275      865.966
11/22/2013  22:50:00      -61.800      -30.151      -14.378        8.393       12.710        4.861       70.446      161.545       23.624        0.260        0.013       68.762        4.723        0.005      331.912        0.233      865.954
11/22/2013  22:51:00      -73.150      -30.841       -8.185        8.542       13.896        6.558       72.966      193.100       43.007        0.334        0.015       79.385        4.347        0.003      331.779        0.016      865.944
11/22/2013  22:52:00      -47.820       -3.296      -10.860        8.423        7.990        3.739       70.939       63.836       13.983        0.128        0.007       47.934        3.315        0.005      331.773        0.006      865.957
11/22/2013  22:53:00       -9.347       24.185       -2.212       18.526       18.318        5.483      343.228      335.535       30.065        0.069        0.035       25.929        4.283        0.027      332.205        0.716      865.985
11/22/2013  22:54:00      -28.317       36.650       -5.457       18.696       14.274       10.024      349.549      203.744      100.487        0.141        0.033       46.315        6.898        0.022      332.217        0.738      866.002
11/22/2013  22:55:00      -29.144       -8.138       -7.407       14.047       25.104        7.978      197.309      630.202       63.651        0.093        0.045       30.259        8.715        0.083      332.131        0.594      865.998
11/22/2013  22:56:00      -50.007      -30.605      -13.175       15.153        8.794        8.291      229.599       77.327       68.734        0.199        0.019       58.629        3.658        0.004      331.657       -0.188      865.996
11/22/2013  22:57:00      -74.047      -16.573      -15.943       10.269       17.310       10.274      105.461      299.652      105.555        0.326        0.026       75.879       10.685        0.020      331.535       -0.387      866.000
11/22/2013  22:58:00      -69.585        0.252      -15.843       10.331        8.542        8.006      106.732       72.972       64.090        0.267        0.012       69.585        3.581        0.003      331.617       -0.253      866.007
11/22/2013  22:59:00      -78.301       -1.524      -17.912       13.942       10.643        8.190      194.387      113.265       67.072        0.341        0.019       78.316        7.161        0.008      331.570       -0.330      866.011
11/22/2013  23:00:00      -24.319       10.423       -7.365       19.620       12.405        5.635      384.952      153.875       31.757        0.066        0.029       26.459        9.775        0.136      332.255        0.799      866.003
11/22/2013  23:01:00       23.098       29.008        2.405       11.830       13.291        6.147      139.947      176.653       37.785        0.087        0.018       37.081        6.173        0.028      332.504        1.208      865.990
11/22/2013  23:02:00       40.563       19.233        3.511        6.632        6.940        6.849       43.985       48.169       46.911        0.108        0.007       44.892        4.042        0.008      332.273        0.830      865.991
11/22/2013  23:03:00       24.623        0.812        1.335       14.560        8.626        5.246      211.982       74.409       27.525        0.046        0.016       24.636        2.868        0.014      332.109        0.558      866.008
11/22/2013  23:04:00        0.040        4.325       10.630        9.270       13.668        6.195       85.929      186.815       38.383        0.022        0.016        4.325        6.705        2.403      332.070        0.493      866.013
11/22/2013  23:05:00      -13.219      -11.464        0.303        9.338        7.450        6.119       87.195       55.502       37.442        0.024        0.009       17.498        5.841        0.111      331.553       -0.358      866.020
11/22/2013  23:06:00      -39.145      -21.901       -2.631       10.080        6.354        6.175      101.600       40.375       38.135        0.110        0.009       44.855        2.815        0.004      331.513       -0.425      866.003
11/22/2013  23:07:00      -13.767        8.261       -3.834       19.429       15.017        5.119      377.496      225.519       26.206        0.045        0.031       16.055        7.342        0.209      331.983        0.350      866.003
11/22/2013  23:08:00       -1.428       23.093       -5.666       12.303        8.668        8.253      151.369       75.143       68.104        0.043        0.015       23.137        8.266        0.128      332.149        0.625      866.003
11/22/2013  23:09:00        8.961       28.885       -6.146        6.060        4.316        2.786       36.727       18.626        7.764        0.051        0.003       30.243        1.370        0.002      332.394        1.029      866.004
11/22/2013  23:10:00       16.869       22.483       -0.592        7.881       16.409        8.237       62.115      269.264       67.851        0.059        0.020       28.108        8.988        0.102      332.289        0.855      866.003
11/22/2013  23:11:00       19.810        0.976        0.595        7.547       10.990        8.710       56.954      120.786       75.863        0.032        0.013       19.834        5.869        0.088      332.036        0.436      866.008
11/22/2013  23:12:00       12.462       13.562       -0.043       10.761       15.882        5.875      115.792      252.235       34.518        0.037        0.020       18.418        5.364        0.085      332.074        0.501      866.014
11/22/2013  23:13:00        5.383       32.304       -1.540       10.973       11.796        6.621      120.407      139.147       43.834        0.069        0.015       32.749        3.755        0.013      332.135        0.603      866.029
11/22/2013  23:14:00       -2.619       48.351       -8.722        9.380        8.794        6.964       87.985       77.340       48.492        0.132        0.011       48.422        4.273        0.008      332.318        0.903      866.038
11/22/2013  23:15:00       -0.025       55.294       -8.694       14.751       24.868        9.292      217.586      618.417       86.344        0.203        0.046       55.294        9.496        0.029      332.290        0.856      866.045
11/22/2013  23:16:00       10.854       59.433       -5.485       19.241       15.517       11.485      370.221      240.775      131.897        0.221        0.037       60.416       10.466        0.030      332.189        0.689      866.048
11/22/2013  23:17:00      -21.710       52.388       -5.239       24.704       41.793       11.008      610.275     1746.675      121.186        0.286        0.124       56.708       19.896        0.123      332.066        0.487      866.033
11/22/2013  23:18:00      -57.966      -26.763      -12.600       16.312       15.168       11.764      266.067      230.079      138.380        0.243        0.032       63.846        4.736        0.006      331.494       -0.454      866.007
11/22/2013  23:19:00      -76.471      -28.185      -13.257        7.312        7.261        6.736       53.472       52.715       45.372        0.348        0.008       81.500        3.535        0.002      331.193       -0.951      865.986
11/22/2013  23:20:00      -54.604      -13.982       -9.763       19.893        9.892       11.981      395.720       97.846      143.550        0.195        0.032       56.366        9.429        0.028      331.175       -0.980      865.981
11/22/2013  23:21:00      -68.746       -1.045      -12.745       16.767       15.343        8.186      281.131      235.395       67.013        0.274        0.029       68.754        6.703        0.010      331.226       -0.896      865.979
11/22/2013  23:22:00      -80.891       -7.971      -16.217       18.152       15.111       12.074      329.478      228.357      145.783        0.379        0.035       81.283       10.276        0.016      331.221       -0.904      865.973
11/22/2013  23:23:00      -75.180       -3.667      -13.012       18.170       15.564       11.627      330.147      242.226      135.196        0.327        0.035       75.269       10.790        0.021      331.186       -0.963      865.977
11/22/2013  23:24:00      -51.012        6.168      -13.917       12.896        8.652       10.256      166.311       74.864      105.183        0.159        0.017       51.384        8.818        0.029      331.409       -0.594      865.977
11/22/2013  23:25:00      -31.398       14.308       -3.325       19.164       22.203       11.020      367.241      492.966      121.432        0.109        0.049       34.504        7.396        0.046      331.625       -0.239      865.968
11/22/2013  23:26:00      -48.600      -20.738      -10.242       22.202       16.747       11.355      492.924      280.463      128.925        0.190        0.045       52.840       11.522        0.048      331.374       -0.651      865.960
11/22/2013  23:27:00      -76.651      -21.990       -8.238       17.567       14.229       15.289      308.611      202.455      233.765        0.359        0.037       79.743       11.742        0.022      331.107       -1.092      865.956
11/22/2013  23:28:00     -105.993        0.727      -19.629       18.405       17.130       15.608      338.734      293.437      243.611        0.625        0.044      105.996       10.623        0.010      331.013       -1.244      865.947
11/22/2013  23:29:00      -93.708        1.163      -23.155       15.049       10.750        8.976      226.461      115.557       80.564        0.487        0.021       93.716        5.371        0.003      331.159       -1.005      865.913
11/22/2013  23:30:00      -66.813      -16.928      -16.846       16.173       14.239        9.972      261.570      202.742       99.444        0.280        0.028       68.924        5.560        0.007      331.111       -1.085      865.891
11/22/2013  23:31:00      -62.946      -15.405      -18.051       16.547        9.606        8.872      273.794       92.283       78.712        0.248        0.022       64.803        7.374        0.013      331.210       -0.922      865.880
11/22/2013  23:32:00      -69.415       -9.383       -7.139       11.088       10.330        9.541      122.942      106.709       91.030        0.264        0.016       70.047        5.182        0.005      331.251       -0.853      865.871
11/22/2013  23:33:00      -60.197       -0.343      -12.984       12.537       18.767        9.436      157.189      352.185       89.034        0.220        0.030       60.198        8.786        0.021      331.331       -0.722      865.851
11/22/2013  23:34:00      -87.464      -17.455      -15.522       12.608       15.489        9.981      158.963      239.914       99.613        0.435        0.025       89.189        5.146        0.003      331.183       -0.967      865.831
11/22/2013  23:35:00      -90.567      -11.225      -21.826       11.310        9.638       10.206      127.908       92.887      104.162        0.456        0.016       91.260        3.469        0.001      331.118       -1.073      865.812
11/22/2013  23:36:00      -85.798       -6.430      -19.760       13.172        9.464       12.748      173.496       89.564      162.509        0.411        0.021       86.039        9.212        0.011      331.176       -0.978      865.806
11/22/2013  23:37:00      -68.607       -2.625      -21.231       14.617       10.000        5.760      213.657      100.008       33.181        0.276        0.017       68.657        5.322        0.006      331.470       -0.494      865.790
11/22/2013  23:38:00      -66.109       -7.355      -11.410       10.190       14.981       10.414      103.827      224.426      108.444        0.250        0.022       66.517        8.415        0.016      331.541       -0.377      865.763
11/22/2013  23:39:00      -48.442      -18.682      -20.599       17.088       15.591       11.677      291.984      243.088      136.350        0.190        0.034       51.920        7.942        0.023      331.470       -0.493      865.741
11/22/2013  23:40:00      -55.472      -15.143      -15.461       13.096        7.985        9.127      171.499       63.757       83.306        0.193        0.016       57.502        6.234        0.012      331.489       -0.463      865.719
11/22/2013  23:41:00      -57.404      -28.818      -13.291       14.499       14.941        9.082      210.215      223.244       82.487        0.241        0.026       64.232        7.138        0.012      331.368       -0.662      865.703
11/22/2013  23:42:00      -24.517      -51.117       -7.548       11.382        9.339       12.114      129.561       87.223      146.750        0.182        0.018       56.693        7.226        0.016      331.404       -0.602      865.712
11/22/2013  23:43:00      -37.765      -14.073       -5.802       10.315       11.707        8.163      106.399      137.051       66.628        0.098        0.016       40.302        7.618        0.036      331.257       -0.844      865.727
11/22/2013  23:44:00      -16.106      -10.363       -7.775       12.095       10.330        5.287      146.280      106.704       27.956        0.035        0.014       19.152        6.052        0.100      331.658       -0.184      865.726
11/22/2013  23:45:00      -30.289       -9.677       -7.618       12.147       11.366        4.765      147.546      129.195       22.706        0.068        0.015       31.797        3.229        0.010      331.551       -0.361      865.715
11/22/2013  23:46:00      -20.299       -8.085        0.186       23.503       22.510       12.126      552.399      506.696      147.033        0.084        0.060       21.850        7.896        0.131      331.731       -0.064      865.708
11/22/2013  23:47:00      -22.524       -5.357       -4.417       23.408       20.834       11.708      547.942      434.038      137.074        0.084        0.056       23.152        6.334        0.075      331.805        0.058      865.704
11/22/2013  23:48:00      -20.429       -9.624        0.698       22.001       19.576       12.654      484.039      383.211      160.128        0.077        0.051       22.582       12.474        0.305      332.136        0.602      865.696
11/22/2013  23:49:00      -43.032      -23.453       -8.802       16.502       10.467        8.013      272.313      109.552       64.211        0.146        0.022       49.008        3.937        0.006      331.546       -0.370      865.702
11/22/2013  23:50:00      -38.382      -29.616      -13.213       23.417       13.393        6.798      548.365      179.384       46.214        0.165        0.039       48.480        6.709        0.019      331.469       -0.496      865.702
11/22/2013  23:51:00      -73.715        2.107      -13.254       10.333       10.630        6.956      106.768      112.997       48.387        0.294        0.013       73.745        5.183        0.005      331.361       -0.674      865.695
11/22/2013  23:52:00      -63.366       -0.774      -16.248       11.091       10.413        7.084      123.005      108.426       50.180        0.228        0.014       63.370        5.061        0.006      331.343       -0.703      865.694
11/22/2013  23:53:00      -59.233      -26.895      -11.616       12.290       11.559        8.113      151.033      133.618       65.817        0.236        0.018       65.053        4.993        0.006      331.289       -0.790      865.703
11/22/2013  23:54:00      -70.997      -30.391       -7.421       14.968       16.237        8.265      224.045      263.643       68.311        0.329        0.028       77.228        4.056        0.003      331.230       -0.889      865.712
11/22/2013  23:55:00      -76.285       -8.987      -18.764       10.630        8.712        7.339      112.988       75.899       53.858        0.325        0.012       76.813        4.534        0.003      331.201       -0.935      865.709
11/22/2013  23:56:00      -74.607       -5.797      -11.683       12.859       14.060       13.621      165.361      197.695      185.536        0.314        0.027       74.832        6.282        0.007      331.233       -0.883      865.703
11/22/2013  23:57:00      -66.592        7.372       -9.204        9.922       11.587        8.941       98.448      134.257       79.947        0.244        0.016       66.999        4.799        0.005      331.287       -0.794      865.710
11/22/2013  23:58:00      -63.645        9.569      -13.665        7.754        8.836        6.780       60.123       78.082       45.971        0.226        0.009       64.360        4.751        0.005      331.406       -0.599      865.705
11/22/2013  23:59:00      -72.105        2.473      -15.590       10.457       14.640        9.383      109.353      214.325       88.050        0.293        0.021       72.147        3.142        0.002      331.404       -0.602      865.671
